[[{"header":{"parameterUnit":"m.s-1","parameterCategory":1,"la1":31.0,"la2":29.5877,"lo1":-88.7671,"lo2":-86.6584,"dy":0.0162,"dx":0.0185,"nx":115,"ny":88,"refTime":"2023-02-23T18:00:00:Z","depth":0,"parameterNumber":2,"parameterNumberName":"U-component_of_WINDS"},"data":[0.0,0.0,0.0,0.0,0.0,0.0,0.0,0.0,0.0,0.0,0.0,0.0,0.0,0.0,0.0,0.0,0.0,0.0,0.0,0.0,0.0,0.0,0.0,0.0,0.0,0.0,0.0,0.0,0.0,0.0,0.0,0.0,0.0,0.0,0.0,0.0,0.0,0.0,0.0,0.0,0.0,0.0,0.0,0.0,0.0,0.0,0.0,0.0,0.0,0.0,0.0,0.0,0.0,0.0,0.0,0.0,0.0,0.0,0.0,0.0,0.0,0.0,0.0,0.0,0.0,0.0,0.0,0.0,0.0,0.0,0.0,0.0,0.0,0.0,0.0,0.0,0.0,0.0,0.0,0.0,0.0,0.0,0.0,0.0,0.0,0.0,0.0,0.0,0.0,0.0,0.0,0.0,0.0,0.0,0.0,0.0,0.0,0.0,0.0,0.0,0.0,0.0,0.0,0.0,0.0,0.0,0.0,0.0,0.0,0.0,0.0,0.0,0.0,0.0,0.0,0.0,0.0,0.0,0.0,0.0,0.0,0.0,0.0,0.0,0.0,0.0,0.0,0.0,0.0,0.0,0.0,0.0,0.0,0.0,0.0,0.0,0.0,0.0,0.0,0.0,0.0,0.0,0.0,0.0,0.0,0.0,0.0,0.0,0.0,0.0,0.0,0.0,0.0,0.0,0.0,0.0,0.0,0.0,0.0,0.0,0.0,0.0,0.0,0.0,0.0,0.0,0.0,0.0,0.0,0.0,0.0,0.0,0.0,0.0,0.0,0.0,0.0,0.0,0.0,0.0,0.0,0.0,0.0,0.0,0.0,0.0,0.0,0.0,0.0,0.0,0.0,0.0,0.0,0.0,0.0,0.0,0.0,0.0,0.0,0.0,0.0,0.0,0.0,0.0,0.0,0.0,0.0,0.0,0.0,0.0,0.0,0.0,0.0,0.0,0.0,0.0,0.0,0.0,0.0,0.0,0.0,0.0,0.0,0.0,0.0,0.0,0.0,0.0,0.0,0.0,0.0,0.0,0.0,0.0,0.0,0.0,0.0,0.0,0.0,0.0,0.0,0.0,0.0,0.0,0.0,0.0,0.0,0.0,0.0,0.0,0.0,0.0,0.0,0.0,0.0,0.0,0.0,0.0,0.0,0.0,0.0,0.0,0.0,0.0,0.0,0.0,0.0,0.0,0.0,0.0,0.0,0.0,0.0,0.0,0.0,0.0,0.0,0.0,0.0,0.0,0.0,0.0,0.0,0.0,0.0,0.0,0.0,0.0,0.0,0.0,0.0,0.0,0.0,0.0,0.0,0.0,0.0,0.0,0.0,0.0,0.0,0.0,0.0,0.0,0.0,0.0,0.0,0.0,0.0,0.0,0.0,0.0,0.0,0.0,0.0,0.0,0.0,0.0,0.0,0.0,0.0,0.0,0.0,0.0,0.0,0.0,0.0,0.0,0.0,0.0,0.0,0.0,0.0,0.0,0.0,0.0,0.0,0.0,0.0,0.0,0.0,0.0,0.0,0.0,0.0,0.0,0.0,0.0,0.0,0.0,0.0,0.0,0.0,0.0,0.0,0.0,0.0,0.0,0.0,0.0,0.0,0.0,0.0,0.0,0.0,0.0,0.0,0.0,0.0,0.0,0.0,0.0,0.0,0.0,0.0,0.0,0.0,0.0,0.0,0.0,0.0,0.0,0.0,0.0,0.0,0.0,0.0,0.0,0.0,0.0,0.0,0.0,0.0,0.0,0.0,0.0,0.0,0.0,0.0,0.0,0.0,0.0,0.0,0.0,0.0,0.0,0.0,0.0,0.0,0.0,0.0,0.0,0.0,0.0,0.0,0.0,0.0,0.0,0.0,0.0,0.0,0.0,0.0,0.0,0.0,0.0,0.0,0.0,0.0,0.0,0.0,0.0,0.0,0.0,0.0,0.0,0.0,0.0,0.0,0.0,0.0,0.0,0.0,0.0,0.0,0.0,0.0,0.0,0.0,0.0,0.0,0.0,0.0,0.0,0.0,0.0,0.0,0.0,0.0,0.0,0.0,0.0,0.0,0.0,0.0,0.0,0.0,0.0,0.0,0.0,0.0,0.0,0.0,0.0,0.0,0.0,0.0,0.0,0.0,0.0,0.0,0.0,0.0,0.0,0.0,0.0,0.0,0.0,0.0,0.0,0.0,0.0,0.0,0.0,0.0,0.0,0.0,0.0,0.0,0.0,0.0,0.0,0.0,0.0,0.0,0.0,0.0,0.0,0.0,0.0,0.0,0.0,0.0,0.0,0.0,0.0,0.0,0.0,0.0,0.0,0.0,0.0,0.0,0.0,0.0,0.0,0.0,0.0,0.0,0.0,0.0,0.0,0.0,0.0,0.0,0.0,0.0,0.0,0.0,0.0,0.0,0.0,0.0,0.0,0.0,0.0,0.0,0.0,0.0,0.0,0.0,0.0,0.0,0.0,0.0,0.0,0.0,0.0,0.0,0.0,0.0,0.0,0.0,0.0,0.0,0.0,0.0,0.0,0.0,0.0,0.0,0.0,0.0,0.0,0.0,0.0,0.0,0.0,0.0,0.0,0.0,0.0,0.0,0.0,0.0,0.0,0.0,0.0,0.0,0.0,0.0,0.0,0.0,0.0,0.0,0.0,0.0,0.0,0.0,0.0,0.0,0.0,0.0,0.0,0.0,0.0,0.0,0.0,0.0,0.0,0.0,0.0,0.0,0.0,0.0,0.0,0.0,0.0,0.0,0.0,0.0,0.0,0.0,0.0,0.0,0.0,0.0,0.0,0.0,0.0,0.0,0.0,0.0,0.0,0.0,0.0,0.0,0.0,0.0,0.0,0.0,0.0,0.0,0.0,0.0,0.0,0.0,0.0,0.0,0.0,0.0,0.0,0.0,0.0,0.0,0.0,0.0,0.0,0.0,0.0,0.0,0.0,0.0,0.0,0.0,0.0,0.0,0.0,0.0,0.0,0.0,0.0,0.0,0.0,0.0,0.0,0.0,0.0,0.0,0.0,0.0,0.0,0.0,0.0,0.0,0.0,0.0,0.0,0.0,0.0,0.0,0.0,0.0,0.0,0.0,0.0,0.0,0.0,0.0,0.0,0.0,0.0,0.0,0.0,0.0,0.0,0.0,0.0,0.0,0.0,0.0,0.0,0.0,0.0,0.0,0.0,0.0,0.0,0.0,0.0,0.0,0.0,0.0,0.0,0.0,0.0,0.0,0.0,0.0,0.0,0.0,0.0,0.0,0.0,0.0,0.0,0.0,0.0,0.0,0.0,0.0,0.0,0.0,0.0,0.0,0.0,0.0,0.0,0.0,0.0,0.0,0.0,0.0,0.0,0.0,0.0,0.0,0.0,0.0,0.0,0.0,0.0,0.0,0.0,0.0,0.0,0.0,0.0,0.0,0.0,0.0,0.0,0.0,0.0,0.0,0.0,0.0,0.0,0.0,0.0,0.0,0.0,0.0,0.0,0.0,0.0,0.0,0.0,0.0,0.0,0.0,0.0,0.0,0.0,0.0,0.0,0.0,0.0,0.0,0.0,0.0,0.0,0.0,0.0,0.0,0.0,0.0,0.0,0.0,0.0,0.0,0.0,0.0,0.0,0.0,0.0,0.0,0.0,0.0,0.0,0.0,0.0,0.0,0.0,0.0,0.0,0.0,0.0,0.0,0.0,0.0,0.0,0.0,0.0,0.0,0.0,0.0,0.0,0.0,0.0,0.0,0.0,0.0,0.0,0.0,0.0,0.0,0.0,0.0,0.0,0.0,0.0,0.0,0.0,0.0,0.0,0.0,0.0,0.0,0.0,0.0,0.0,0.0,0.0,0.0,0.0,0.0,0.0,0.0,0.0,0.0,0.0,0.0,0.0,0.0,0.0,0.0,0.0,0.0,0.0,0.0,0.0,0.0,0.0,0.0,0.0,0.0,0.0,0.0,0.0,0.0,0.0,0.0,0.0,0.0,0.0,0.0,0.0,0.0,0.0,0.0,0.0,0.0,0.0,0.0,0.0,0.0,0.0,0.0,0.0,0.0,0.0,0.0,0.0,0.0,0.0,0.0,0.0,0.0,0.0,0.0,0.0,0.0,0.0,0.0,0.0,0.0,0.0,0.0,0.0,0.0,0.0,0.0,0.0,0.0,0.0,0.0,0.0,0.0,0.0,0.0,0.0,0.0,0.0,0.0,0.0,0.0,0.0,0.0,0.0,0.0,0.0,0.0,0.0,0.0,0.0,0.0,0.0,0.0,0.0,0.0,0.0,0.0,0.0,0.0,0.0,-7.8789,0.0,0.0,0.0,0.0,0.0,0.0,0.0,0.0,0.0,0.0,0.0,0.0,0.0,0.0,0.0,0.0,0.0,0.0,0.0,0.0,0.0,0.0,0.0,0.0,0.0,0.0,0.0,0.0,0.0,0.0,0.0,0.0,0.0,0.0,0.0,0.0,0.0,0.0,0.0,0.0,0.0,0.0,0.0,0.0,0.0,0.0,0.0,0.0,0.0,0.0,0.0,0.0,0.0,0.0,0.0,0.0,0.0,0.0,0.0,0.0,0.0,0.0,0.0,0.0,0.0,0.0,0.0,0.0,0.0,0.0,0.0,0.0,0.0,0.0,0.0,0.0,0.0,0.0,0.0,0.0,0.0,0.0,0.0,0.0,0.0,0.0,0.0,0.0,0.0,0.0,0.0,0.0,0.0,0.0,0.0,0.0,0.0,0.0,0.0,0.0,0.0,0.0,0.0,0.0,0.0,0.0,0.0,0.0,0.0,0.0,-7.8789,-7.8789,-7.8789,-7.8789,-7.8789,0.0,0.0,0.0,0.0,0.0,0.0,0.0,0.0,0.0,0.0,0.0,0.0,0.0,0.0,0.0,0.0,0.0,0.0,0.0,0.0,0.0,0.0,0.0,0.0,0.0,0.0,0.0,0.0,0.0,0.0,0.0,0.0,0.0,0.0,0.0,0.0,0.0,0.0,0.0,0.0,0.0,0.0,0.0,0.0,0.0,0.0,0.0,0.0,0.0,0.0,0.0,0.0,0.0,0.0,0.0,0.0,0.0,0.0,0.0,0.0,0.0,0.0,0.0,0.0,0.0,0.0,0.0,0.0,0.0,0.0,0.0,0.0,0.0,0.0,0.0,0.0,0.0,0.0,0.0,0.0,0.0,0.0,0.0,0.0,0.0,0.0,0.0,0.0,0.0,0.0,0.0,0.0,0.0,0.0,0.0,0.0,0.0,0.0,0.0,0.0,0.0,0.0,0.0,0.0,0.0,0.0,0.0,0.0,0.0,0.0,0.0,0.0,-7.8789,-7.8789,-7.8789,0.0,0.0,0.0,0.0,0.0,0.0,0.0,0.0,0.0,0.0,0.0,0.0,0.0,0.0,0.0,0.0,0.0,0.0,0.0,0.0,0.0,0.0,0.0,0.0,0.0,0.0,0.0,0.0,0.0,0.0,0.0,0.0,0.0,0.0,0.0,0.0,0.0,0.0,0.0,0.0,0.0,0.0,0.0,0.0,0.0,0.0,0.0,0.0,0.0,0.0,0.0,0.0,0.0,0.0,0.0,0.0,0.0,0.0,0.0,0.0,0.0,0.0,0.0,0.0,0.0,0.0,0.0,0.0,0.0,0.0,0.0,0.0,0.0,0.0,0.0,0.0,0.0,0.0,0.0,0.0,0.0,0.0,0.0,0.0,0.0,0.0,0.0,0.0,0.0,0.0,0.0,0.0,0.0,0.0,0.0,0.0,0.0,0.0,0.0,0.0,0.0,0.0,0.0,0.0,0.0,0.0,0.0,0.0,0.0,0.0,-7.8789,-7.8789,-7.8789,0.0,-7.8789,0.0,0.0,0.0,0.0,0.0,0.0,0.0,0.0,0.0,0.0,0.0,0.0,0.0,0.0,0.0,0.0,0.0,0.0,0.0,0.0,0.0,0.0,0.0,0.0,0.0,0.0,0.0,0.0,0.0,0.0,0.0,0.0,0.0,0.0,0.0,0.0,0.0,0.0,0.0,0.0,0.0,0.0,0.0,0.0,0.0,0.0,0.0,0.0,0.0,0.0,0.0,0.0,0.0,0.0,0.0,0.0,0.0,0.0,0.0,0.0,0.0,0.0,0.0,0.0,0.0,0.0,0.0,0.0,0.0,0.0,0.0,0.0,0.0,0.0,0.0,0.0,0.0,0.0,0.0,0.0,0.0,0.0,0.0,0.0,0.0,0.0,0.0,0.0,0.0,0.0,0.0,0.0,0.0,0.0,0.0,0.0,0.0,0.0,0.0,0.0,0.0,0.0,0.0,0.0,0.0,0.0,0.0,0.0,0.0,0.0,-7.8789,-7.8789,-7.8789,-7.8789,0.0,0.0,0.0,0.0,0.0,0.0,0.0,0.0,0.0,0.0,0.0,0.0,0.0,0.0,0.0,0.0,0.0,0.0,0.0,0.0,0.0,0.0,0.0,0.0,0.0,0.0,0.0,0.0,0.0,0.0,0.0,0.0,0.0,0.0,0.0,0.0,0.0,0.0,0.0,0.0,0.0,0.0,0.0,0.0,0.0,0.0,0.0,0.0,0.0,0.0,0.0,0.0,0.0,0.0,0.0,0.0,0.0,0.0,0.0,0.0,0.0,0.0,0.0,0.0,0.0,0.0,0.0,0.0,0.0,0.0,0.0,0.0,0.0,0.0,0.0,0.0,0.0,0.0,0.0,0.0,0.0,0.0,0.0,0.0,0.0,0.0,0.0,0.0,0.0,0.0,0.0,0.0,0.0,0.0,0.0,0.0,0.0,0.0,0.0,0.0,0.0,0.0,0.0,0.0,0.0,0.0,0.0,0.0,0.0,0.0,-7.8789,-7.8789,-7.8789,-7.8789,-7.8789,-7.8789,0.0,0.0,0.0,0.0,0.0,0.0,0.0,0.0,0.0,0.0,0.0,0.0,0.0,0.0,0.0,0.0,0.0,0.0,0.0,0.0,0.0,0.0,0.0,0.0,0.0,0.0,0.0,0.0,0.0,0.0,0.0,0.0,0.0,0.0,0.0,0.0,0.0,0.0,0.0,0.0,0.0,0.0,0.0,0.0,0.0,0.0,0.0,0.0,0.0,0.0,0.0,0.0,0.0,0.0,0.0,0.0,0.0,0.0,0.0,0.0,0.0,0.0,0.0,0.0,0.0,0.0,0.0,0.0,0.0,0.0,0.0,0.0,0.0,0.0,0.0,0.0,0.0,0.0,0.0,0.0,0.0,0.0,0.0,0.0,0.0,0.0,0.0,0.0,0.0,0.0,0.0,0.0,0.0,0.0,0.0,0.0,0.0,0.0,0.0,0.0,0.0,0.0,0.0,0.0,0.0,0.0,0.0,0.0,-7.8789,-7.8789,-7.8789,-7.8789,-7.8789,-7.8789,0.0,0.0,0.0,0.0,0.0,0.0,0.0,0.0,0.0,0.0,0.0,0.0,0.0,0.0,0.0,0.0,0.0,0.0,0.0,0.0,0.0,0.0,0.0,0.0,0.0,0.0,0.0,0.0,0.0,0.0,0.0,0.0,0.0,0.0,0.0,0.0,0.0,0.0,0.0,0.0,0.0,0.0,0.0,0.0,0.0,0.0,0.0,0.0,0.0,0.0,0.0,0.0,0.0,0.0,0.0,0.0,0.0,0.0,0.0,0.0,0.0,0.0,0.0,0.0,0.0,0.0,0.0,0.0,0.0,0.0,0.0,0.0,0.0,0.0,0.0,0.0,0.0,0.0,0.0,0.0,0.0,0.0,0.0,0.0,0.0,0.0,0.0,0.0,0.0,0.0,0.0,0.0,0.0,0.0,0.0,0.0,0.0,0.0,0.0,0.0,0.0,0.0,0.0,0.0,0.0,0.0,0.0,0.0,0.0,-7.8789,-7.8789,-7.8789,-7.8789,-7.8789,-7.8789,0.0,0.0,0.0,0.0,0.0,0.0,0.0,0.0,0.0,0.0,0.0,0.0,0.0,0.0,0.0,0.0,0.0,0.0,0.0,0.0,0.0,0.0,0.0,0.0,0.0,0.0,0.0,0.0,0.0,0.0,0.0,0.0,0.0,0.0,0.0,0.0,0.0,0.0,0.0,0.0,0.0,0.0,0.0,0.0,0.0,0.0,0.0,0.0,0.0,0.0,0.0,0.0,0.0,0.0,0.0,0.0,0.0,0.0,0.0,0.0,0.0,0.0,0.0,0.0,0.0,0.0,0.0,0.0,0.0,0.0,0.0,0.0,0.0,0.0,0.0,0.0,0.0,0.0,0.0,0.0,0.0,0.0,0.0,0.0,0.0,0.0,0.0,0.0,0.0,0.0,0.0,0.0,0.0,0.0,0.0,0.0,0.0,0.0,0.0,0.0,0.0,0.0,0.0,0.0,0.0,0.0,0.0,0.0,0.0,-7.8789,0.0,-7.8789,-7.8789,-7.8789,-7.8789,0.0,0.0,0.0,0.0,0.0,0.0,0.0,0.0,0.0,0.0,0.0,0.0,0.0,0.0,0.0,0.0,0.0,0.0,0.0,0.0,0.0,0.0,0.0,0.0,0.0,0.0,0.0,0.0,0.0,0.0,0.0,0.0,0.0,0.0,0.0,0.0,0.0,0.0,0.0,0.0,0.0,0.0,0.0,0.0,0.0,0.0,0.0,0.0,0.0,0.0,0.0,0.0,0.0,0.0,0.0,0.0,0.0,0.0,0.0,0.0,0.0,0.0,0.0,0.0,0.0,0.0,0.0,0.0,0.0,0.0,0.0,0.0,0.0,0.0,0.0,0.0,0.0,0.0,0.0,0.0,0.0,0.0,0.0,0.0,0.0,0.0,0.0,0.0,0.0,0.0,0.0,0.0,0.0,0.0,0.0,0.0,0.0,0.0,0.0,0.0,0.0,0.0,0.0,0.0,0.0,0.0,0.0,0.0,-7.8789,-7.8789,-7.8789,-7.8789,-7.8789,-7.8789,-7.8789,0.0,0.0,0.0,0.0,0.0,0.0,0.0,0.0,0.0,0.0,0.0,0.0,0.0,0.0,0.0,0.0,0.0,0.0,0.0,0.0,0.0,0.0,0.0,0.0,0.0,0.0,0.0,0.0,0.0,0.0,0.0,0.0,0.0,0.0,0.0,0.0,0.0,0.0,0.0,0.0,0.0,0.0,0.0,0.0,0.0,0.0,0.0,0.0,0.0,0.0,0.0,0.0,0.0,0.0,0.0,0.0,0.0,0.0,0.0,0.0,0.0,0.0,0.0,0.0,0.0,0.0,0.0,0.0,0.0,0.0,0.0,0.0,0.0,0.0,0.0,0.0,0.0,0.0,0.0,0.0,0.0,0.0,0.0,0.0,0.0,0.0,0.0,0.0,0.0,0.0,0.0,0.0,0.0,0.0,0.0,0.0,0.0,0.0,0.0,0.0,0.0,0.0,0.0,0.0,0.0,0.0,0.0,0.0,0.0,-7.8789,-7.8789,-7.8789,-7.8789,-7.8789,-7.8789,0.0,0.0,0.0,0.0,0.0,0.0,0.0,0.0,0.0,0.0,0.0,0.0,0.0,0.0,0.0,0.0,0.0,0.0,0.0,0.0,0.0,0.0,0.0,0.0,0.0,0.0,0.0,0.0,0.0,0.0,0.0,0.0,0.0,0.0,0.0,0.0,0.0,0.0,0.0,0.0,0.0,0.0,0.0,0.0,0.0,0.0,0.0,0.0,0.0,0.0,0.0,0.0,0.0,0.0,0.0,0.0,0.0,0.0,0.0,0.0,0.0,0.0,0.0,0.0,0.0,0.0,0.0,0.0,0.0,0.0,0.0,0.0,0.0,0.0,0.0,0.0,0.0,0.0,0.0,0.0,0.0,0.0,0.0,0.0,0.0,0.0,0.0,0.0,0.0,0.0,0.0,0.0,0.0,0.0,0.0,0.0,0.0,0.0,0.0,0.0,0.0,0.0,0.0,0.0,0.0,0.0,0.0,0.0,0.0,-7.8789,-7.8789,-7.8789,-7.8789,-7.8789,-7.8789,-7.8789,0.0,0.0,0.0,0.0,0.0,0.0,0.0,0.0,0.0,0.0,0.0,0.0,0.0,0.0,0.0,0.0,0.0,0.0,0.0,0.0,0.0,0.0,0.0,0.0,0.0,0.0,0.0,0.0,0.0,0.0,0.0,0.0,0.0,0.0,0.0,0.0,0.0,0.0,0.0,0.0,0.0,0.0,0.0,0.0,0.0,0.0,0.0,0.0,0.0,0.0,0.0,0.0,0.0,0.0,0.0,0.0,0.0,0.0,0.0,0.0,0.0,0.0,0.0,0.0,0.0,0.0,0.0,0.0,0.0,0.0,0.0,0.0,0.0,0.0,0.0,0.0,0.0,0.0,0.0,0.0,0.0,0.0,0.0,0.0,0.0,0.0,0.0,0.0,0.0,0.0,0.0,0.0,0.0,0.0,0.0,0.0,0.0,0.0,0.0,0.0,0.0,0.0,0.0,0.0,0.0,0.0,0.0,0.0,-7.8789,-7.8789,-7.8789,-7.8789,-7.8789,-7.8789,0.0,0.0,0.0,0.0,0.0,0.0,0.0,0.0,0.0,0.0,0.0,0.0,0.0,0.0,0.0,0.0,0.0,0.0,0.0,0.0,0.0,0.0,0.0,0.0,0.0,0.0,0.0,0.0,0.0,0.0,0.0,0.0,0.0,0.0,0.0,0.0,0.0,0.0,0.0,0.0,0.0,0.0,0.0,0.0,0.0,0.0,0.0,0.0,0.0,0.0,0.0,0.0,0.0,0.0,0.0,0.0,0.0,0.0,0.0,0.0,0.0,0.0,0.0,0.0,0.0,0.0,0.0,0.0,0.0,0.0,0.0,0.0,0.0,0.0,0.0,0.0,0.0,0.0,0.0,0.0,0.0,0.0,0.0,0.0,0.0,0.0,0.0,0.0,0.0,0.0,0.0,0.0,0.0,0.0,0.0,0.0,0.0,0.0,0.0,0.0,0.0,0.0,0.0,0.0,0.0,0.0,0.0,0.0,0.0,-7.8789,-7.8789,-7.8789,-7.8789,-7.8789,-7.8789,0.0,0.0,0.0,0.0,0.0,0.0,0.0,0.0,0.0,0.0,0.0,0.0,0.0,0.0,0.0,0.0,0.0,0.0,0.0,0.0,0.0,0.0,0.0,0.0,0.0,0.0,0.0,0.0,0.0,0.0,0.0,0.0,0.0,0.0,0.0,0.0,0.0,0.0,0.0,0.0,0.0,0.0,0.0,0.0,0.0,0.0,0.0,0.0,0.0,0.0,0.0,0.0,0.0,0.0,0.0,0.0,0.0,0.0,0.0,0.0,0.0,0.0,0.0,0.0,0.0,0.0,0.0,0.0,0.0,0.0,0.0,0.0,0.0,0.0,0.0,0.0,0.0,0.0,0.0,0.0,0.0,0.0,0.0,0.0,0.0,0.0,0.0,0.0,0.0,0.0,0.0,0.0,0.0,0.0,0.0,0.0,0.0,0.0,0.0,0.0,0.0,0.0,0.0,0.0,0.0,0.0,0.0,0.0,-7.8789,-7.8789,-7.8789,-7.8789,-7.8789,-7.8789,-7.8789,0.0,0.0,0.0,0.0,0.0,0.0,0.0,0.0,0.0,0.0,0.0,0.0,0.0,0.0,0.0,0.0,0.0,0.0,0.0,0.0,0.0,0.0,0.0,0.0,0.0,0.0,0.0,0.0,0.0,0.0,0.0,0.0,0.0,0.0,0.0,0.0,0.0,0.0,0.0,0.0,0.0,0.0,0.0,0.0,0.0,0.0,0.0,0.0,0.0,0.0,0.0,0.0,0.0,0.0,0.0,0.0,0.0,0.0,0.0,0.0,0.0,0.0,0.0,0.0,0.0,0.0,0.0,0.0,0.0,0.0,0.0,0.0,0.0,0.0,0.0,0.0,0.0,0.0,0.0,0.0,0.0,0.0,0.0,0.0,0.0,0.0,0.0,0.0,0.0,0.0,0.0,0.0,0.0,0.0,0.0,0.0,0.0,0.0,0.0,0.0,0.0,0.0,0.0,0.0,0.0,0.0,0.0,0.0,-7.8579,-7.8579,-7.8579,-7.8579,-7.8609,-7.8729,-7.8789,0.0,0.0,0.0,0.0,0.0,0.0,0.0,0.0,0.0,0.0,0.0,0.0,0.0,0.0,0.0,0.0,0.0,0.0,0.0,0.0,0.0,0.0,0.0,0.0,0.0,0.0,0.0,0.0,0.0,0.0,0.0,0.0,0.0,0.0,0.0,0.0,0.0,0.0,0.0,0.0,0.0,0.0,0.0,0.0,0.0,0.0,0.0,0.0,0.0,0.0,0.0,0.0,0.0,0.0,0.0,0.0,0.0,0.0,0.0,0.0,0.0,0.0,0.0,0.0,0.0,0.0,0.0,0.0,0.0,0.0,0.0,0.0,0.0,0.0,0.0,0.0,0.0,0.0,0.0,0.0,0.0,0.0,0.0,0.0,0.0,0.0,0.0,0.0,0.0,0.0,0.0,0.0,0.0,0.0,0.0,0.0,0.0,0.0,0.0,0.0,0.0,0.0,0.0,0.0,0.0,0.0,0.0,0.0,-7.7233,-7.7233,-7.7233,-7.7233,-7.7233,-7.825,-7.8789,0.0,0.0,0.0,0.0,0.0,0.0,0.0,0.0,0.0,0.0,0.0,0.0,0.0,0.0,0.0,0.0,0.0,0.0,0.0,0.0,0.0,0.0,0.0,0.0,0.0,0.0,0.0,0.0,0.0,0.0,0.0,0.0,0.0,0.0,0.0,0.0,0.0,0.0,0.0,0.0,0.0,0.0,0.0,0.0,0.0,0.0,0.0,0.0,-7.8789,0.0,0.0,0.0,0.0,0.0,0.0,0.0,0.0,0.0,0.0,0.0,0.0,0.0,0.0,0.0,0.0,0.0,0.0,0.0,0.0,0.0,0.0,0.0,0.0,0.0,0.0,0.0,0.0,0.0,0.0,0.0,0.0,0.0,0.0,0.0,0.0,0.0,0.0,0.0,0.0,0.0,0.0,0.0,0.0,0.0,0.0,0.0,0.0,0.0,0.0,0.0,0.0,0.0,0.0,0.0,0.0,0.0,0.0,0.0,-7.6844,-7.6844,-7.6844,-7.6844,-7.6844,-7.7502,-7.8011,0.0,0.0,0.0,0.0,0.0,0.0,0.0,0.0,0.0,0.0,0.0,0.0,0.0,0.0,0.0,0.0,0.0,0.0,0.0,0.0,0.0,0.0,0.0,0.0,0.0,0.0,0.0,0.0,0.0,0.0,0.0,0.0,0.0,0.0,0.0,0.0,0.0,0.0,0.0,0.0,0.0,0.0,0.0,0.0,0.0,0.0,0.0,0.0,0.0,0.0,0.0,0.0,0.0,0.0,0.0,0.0,0.0,0.0,0.0,0.0,0.0,0.0,0.0,0.0,0.0,0.0,0.0,0.0,0.0,0.0,0.0,0.0,0.0,0.0,0.0,0.0,0.0,0.0,0.0,0.0,0.0,0.0,0.0,0.0,0.0,0.0,0.0,0.0,0.0,0.0,0.0,0.0,0.0,0.0,0.0,0.0,0.0,0.0,0.0,0.0,0.0,0.0,0.0,0.0,0.0,0.0,0.0,-7.6824,-7.6764,-7.6514,-7.6764,-7.6764,-7.6544,-7.6634,-7.6933,-7.7502,0.0,0.0,0.0,0.0,0.0,0.0,0.0,0.0,0.0,0.0,0.0,0.0,0.0,0.0,0.0,0.0,0.0,0.0,0.0,0.0,0.0,0.0,0.0,0.0,0.0,0.0,0.0,0.0,0.0,0.0,0.0,0.0,0.0,0.0,0.0,0.0,0.0,0.0,-7.8789,-7.8789,0.0,0.0,0.0,0.0,0.0,0.0,0.0,0.0,-7.8789,0.0,0.0,0.0,0.0,0.0,0.0,0.0,0.0,0.0,0.0,0.0,0.0,0.0,0.0,0.0,0.0,0.0,0.0,0.0,0.0,0.0,0.0,0.0,0.0,0.0,0.0,0.0,0.0,0.0,0.0,0.0,0.0,0.0,0.0,0.0,0.0,0.0,0.0,0.0,0.0,0.0,0.0,0.0,0.0,0.0,0.0,0.0,0.0,0.0,0.0,0.0,0.0,0.0,0.0,0.0,0.0,-7.6036,-7.6843,-7.6574,-7.5267,-7.6538,-7.6604,-7.5267,-7.5736,-7.6125,-7.6275,0.0,0.0,0.0,0.0,0.0,0.0,0.0,0.0,0.0,0.0,0.0,0.0,0.0,0.0,0.0,0.0,0.0,0.0,0.0,0.0,0.0,0.0,0.0,0.0,0.0,0.0,0.0,0.0,0.0,0.0,0.0,0.0,0.0,0.0,0.0,0.0,0.0,0.0,0.0,-7.8789,-7.8789,0.0,0.0,0.0,0.0,0.0,0.0,0.0,0.0,-7.8789,0.0,0.0,0.0,0.0,0.0,0.0,0.0,0.0,0.0,0.0,0.0,0.0,0.0,0.0,0.0,0.0,0.0,0.0,0.0,0.0,0.0,0.0,0.0,0.0,0.0,0.0,0.0,0.0,0.0,0.0,0.0,0.0,0.0,0.0,0.0,0.0,0.0,0.0,0.0,0.0,0.0,0.0,0.0,0.0,0.0,0.0,0.0,0.0,0.0,0.0,0.0,0.0,0.0,0.0,0.0,-7.5416,-7.5843,-7.5661,-7.4937,-7.5661,-7.5661,-7.4937,-7.5198,-7.5377,0.0,0.0,0.0,0.0,0.0,0.0,0.0,0.0,0.0,0.0,0.0,0.0,0.0,0.0,0.0,0.0,0.0,0.0,0.0,0.0,0.0,0.0,0.0,0.0,0.0,0.0,0.0,0.0,0.0,0.0,0.0,0.0,0.0,0.0,0.0,0.0,0.0,0.0,0.0,0.0,-7.8789,-7.8789,-7.8789,0.0,0.0,0.0,0.0,0.0,0.0,-7.7771,-7.7771,0.0,0.0,0.0,0.0,0.0,0.0,0.0,0.0,0.0,0.0,0.0,0.0,0.0,0.0,0.0,0.0,0.0,0.0,0.0,0.0,0.0,0.0,0.0,0.0,0.0,0.0,0.0,0.0,0.0,0.0,0.0,0.0,0.0,0.0,0.0,0.0,0.0,0.0,0.0,0.0,0.0,0.0,0.0,0.0,0.0,0.0,0.0,0.0,0.0,0.0,0.0,0.0,0.0,0.0,0.0,-7.4937,-7.5248,-7.5248,-7.4937,-7.5248,-7.5248,-7.4937,-7.4869,-7.4869,0.0,0.0,0.0,0.0,0.0,0.0,0.0,0.0,0.0,0.0,0.0,0.0,0.0,0.0,0.0,0.0,0.0,0.0,0.0,0.0,0.0,0.0,0.0,0.0,0.0,0.0,0.0,0.0,0.0,0.0,0.0,0.0,0.0,0.0,0.0,0.0,0.0,0.0,0.0,0.0,0.0,-7.8579,-7.8579,-7.8041,0.0,0.0,0.0,0.0,-7.6884,-7.6814,0.0,0.0,0.0,0.0,0.0,0.0,0.0,0.0,0.0,0.0,0.0,0.0,0.0,0.0,0.0,0.0,0.0,0.0,0.0,0.0,0.0,0.0,0.0,0.0,0.0,0.0,0.0,0.0,0.0,0.0,0.0,0.0,0.0,0.0,0.0,0.0,0.0,0.0,0.0,0.0,0.0,0.0,0.0,0.0,0.0,0.0,0.0,0.0,0.0,0.0,0.0,0.0,0.0,0.0,0.0,0.0,-7.4937,-7.6335,-7.6335,-7.5074,-7.6268,-7.6335,-7.4937,-7.4869,-7.4869,0.0,0.0,0.0,0.0,0.0,0.0,0.0,0.0,0.0,0.0,0.0,0.0,0.0,0.0,0.0,0.0,0.0,0.0,0.0,0.0,0.0,0.0,0.0,0.0,0.0,0.0,0.0,0.0,0.0,0.0,0.0,0.0,0.0,0.0,0.0,0.0,0.0,0.0,0.0,0.0,0.0,-7.7921,-7.7921,-7.7352,-7.7034,0.0,0.0,-7.6914,-7.7264,-7.7054,0.0,0.0,0.0,0.0,0.0,0.0,0.0,0.0,0.0,0.0,0.0,0.0,0.0,0.0,0.0,0.0,0.0,0.0,0.0,0.0,0.0,0.0,0.0,0.0,0.0,0.0,0.0,0.0,0.0,0.0,0.0,0.0,0.0,0.0,0.0,0.0,0.0,0.0,0.0,0.0,0.0,0.0,0.0,0.0,0.0,0.0,0.0,0.0,0.0,0.0,0.0,0.0,0.0,0.0,0.0,-7.4869,-7.4937,-7.5594,-7.5594,-7.4937,-7.5594,-7.5594,-7.4937,-7.4869,-7.4869,0.0,0.0,0.0,0.0,0.0,0.0,0.0,0.0,0.0,0.0,0.0,0.0,0.0,0.0,0.0,0.0,0.0,0.0,0.0,0.0,0.0,0.0,0.0,0.0,0.0,0.0,0.0,0.0,0.0,0.0,0.0,0.0,0.0,0.0,0.0,0.0,0.0,0.0,0.0,0.0,0.0,0.0,-7.7263,-7.6834,0.0,0.0,0.0,-7.6052,-7.6189,0.0,0.0,0.0,0.0,0.0,0.0,0.0,0.0,0.0,0.0,0.0,0.0,0.0,0.0,0.0,0.0,0.0,0.0,0.0,0.0,0.0,0.0,0.0,0.0,0.0,0.0,0.0,0.0,0.0,0.0,0.0,0.0,0.0,0.0,0.0,0.0,0.0,0.0,0.0,0.0,0.0,0.0,0.0,0.0,0.0,0.0,0.0,0.0,0.0,0.0,0.0,0.0,0.0,0.0,0.0,0.0,0.0,-7.4869,-7.4869,-7.4809,-7.4629,-7.4629,-7.4629,-7.4629,-7.4629,0.0,0.0,0.0,0.0,0.0,0.0,0.0,0.0,0.0,0.0,0.0,0.0,0.0,0.0,0.0,0.0,0.0,0.0,0.0,0.0,0.0,0.0,0.0,0.0,0.0,0.0,0.0,-7.8789,0.0,0.0,0.0,0.0,0.0,0.0,0.0,0.0,0.0,0.0,0.0,0.0,0.0,0.0,-7.6604,-7.6604,-7.6353,-7.6411,0.0,0.0,-7.6294,-7.6594,-7.7321,-7.7643,0.0,0.0,0.0,0.0,0.0,0.0,0.0,0.0,0.0,0.0,0.0,0.0,0.0,0.0,0.0,0.0,0.0,0.0,0.0,0.0,0.0,0.0,0.0,0.0,0.0,0.0,0.0,0.0,0.0,0.0,0.0,0.0,0.0,0.0,0.0,0.0,0.0,0.0,0.0,0.0,0.0,0.0,0.0,0.0,0.0,0.0,0.0,0.0,0.0,0.0,0.0,0.0,0.0,0.0,-7.4869,-7.4869,-7.4869,-7.4569,-7.4001,-7.3971,-7.3971,-7.3971,-7.3971,-7.424,0.0,0.0,0.0,0.0,0.0,0.0,0.0,0.0,0.0,0.0,0.0,0.0,0.0,0.0,0.0,0.0,0.0,0.0,0.0,0.0,0.0,0.0,0.0,0.0,0.0,0.0,0.0,0.0,0.0,0.0,0.0,0.0,0.0,0.0,0.0,0.0,0.0,0.0,0.0,0.0,0.0,-7.5946,-7.5976,-7.5965,-7.6355,0.0,-7.8057,-7.8628,-7.9742,-7.9742,-7.9529,-7.919,0.0,0.0,0.0,0.0,0.0,0.0,0.0,0.0,0.0,0.0,0.0,0.0,0.0,0.0,0.0,0.0,0.0,0.0,0.0,0.0,0.0,0.0,0.0,0.0,0.0,0.0,0.0,0.0,0.0,0.0,0.0,0.0,0.0,0.0,0.0,0.0,0.0,0.0,0.0,0.0,0.0,0.0,0.0,0.0,0.0,0.0,0.0,0.0,0.0,0.0,0.0,0.0,0.0,-7.427,-7.427,-7.3881,-7.3552,-7.3313,-7.3283,-7.3283,-7.3283,-7.3283,-7.3402,0.0,0.0,0.0,0.0,0.0,0.0,0.0,0.0,0.0,0.0,0.0,0.0,0.0,0.0,0.0,0.0,0.0,0.0,0.0,0.0,0.0,0.0,0.0,0.0,0.0,0.0,0.0,0.0,-7.7592,-7.7203,-7.7203,0.0,0.0,0.0,0.0,0.0,0.0,0.0,0.0,0.0,0.0,-7.5108,-7.4719,-7.5673,0.0,0.0,-7.7522,-7.8314,-7.8615,-7.9268,-7.9386,-7.8559,-7.8679,0.0,0.0,0.0,0.0,0.0,0.0,0.0,0.0,0.0,0.0,0.0,0.0,0.0,0.0,0.0,0.0,0.0,0.0,0.0,0.0,0.0,0.0,0.0,0.0,0.0,0.0,0.0,0.0,0.0,0.0,0.0,0.0,0.0,0.0,0.0,0.0,0.0,0.0,0.0,0.0,0.0,0.0,0.0,0.0,0.0,0.0,0.0,0.0,0.0,0.0,0.0,0.0,-7.3582,-7.3582,-7.3133,-7.2804,-7.2624,-7.2624,-7.2624,-7.2624,-7.2595,-7.2684,0.0,0.0,0.0,0.0,0.0,0.0,0.0,0.0,0.0,0.0,0.0,0.0,0.0,0.0,0.0,0.0,0.0,0.0,0.0,0.0,0.0,0.0,0.0,0.0,0.0,0.0,0.0,0.0,-7.6933,-7.6455,-7.6275,0.0,0.0,0.0,0.0,0.0,0.0,0.0,0.0,0.0,0.0,-7.4256,-7.4112,-7.544,-7.6463,-7.6612,-7.7933,-7.8867,-7.8957,-7.981,-8.0066,-7.9047,0.0,0.0,0.0,0.0,0.0,0.0,0.0,0.0,0.0,0.0,0.0,0.0,0.0,0.0,0.0,0.0,0.0,0.0,0.0,0.0,0.0,0.0,0.0,0.0,0.0,0.0,0.0,-7.4869,0.0,0.0,-7.4839,0.0,0.0,0.0,0.0,0.0,0.0,0.0,0.0,0.0,0.0,0.0,0.0,0.0,0.0,0.0,0.0,0.0,0.0,0.0,0.0,0.0,0.0,-7.2924,-7.2924,-7.2864,-7.2565,-7.1936,-7.1906,-7.1906,-7.1906,-7.1906,-7.2206,-7.2864,0.0,0.0,0.0,0.0,0.0,0.0,0.0,0.0,0.0,0.0,0.0,0.0,0.0,0.0,0.0,0.0,0.0,0.0,0.0,0.0,0.0,0.0,0.0,0.0,0.0,0.0,-7.6814,-7.6275,-7.5677,0.0,0.0,0.0,0.0,0.0,0.0,0.0,0.0,0.0,-7.3911,-7.3373,-7.3323,-7.4245,-7.5304,-7.6612,-7.8312,-7.9697,-8.0816,-8.1657,-8.2061,-8.2113,0.0,0.0,0.0,0.0,0.0,0.0,0.0,0.0,0.0,0.0,0.0,0.0,0.0,0.0,0.0,0.0,0.0,0.0,0.0,0.0,0.0,0.0,0.0,0.0,0.0,0.0,0.0,-7.3754,-7.3612,0.0,0.0,0.0,0.0,0.0,0.0,0.0,0.0,0.0,0.0,0.0,-7.424,-7.424,0.0,0.0,0.0,0.0,0.0,0.0,0.0,0.0,0.0,0.0,0.0,0.0,-7.2235,-7.2206,-7.1816,-7.1457,-7.1248,-7.1218,-7.1248,-7.1248,-7.1248,-7.1338,-7.1577,0.0,0.0,0.0,0.0,0.0,0.0,0.0,0.0,0.0,0.0,0.0,0.0,0.0,0.0,0.0,0.0,0.0,0.0,0.0,0.0,0.0,0.0,0.0,0.0,0.0,-7.6036,0.0,0.0,0.0,0.0,0.0,0.0,0.0,0.0,0.0,0.0,0.0,-7.366,-7.3889,-7.4072,-7.432,-7.4591,-7.604,-7.7274,0.0,0.0,0.0,0.0,0.0,0.0,0.0,0.0,0.0,0.0,0.0,0.0,0.0,0.0,-7.8185,-7.8661,-7.9069,-7.9374,-7.9635,0.0,0.0,0.0,0.0,0.0,0.0,0.0,0.0,0.0,0.0,0.0,0.0,0.0,0.0,-7.3094,-7.2954,-7.3373,0.0,0.0,0.0,0.0,0.0,0.0,0.0,0.0,-7.421,-7.3971,-7.3552,-7.3552,-7.3313,-7.2924,-7.2924,-7.3373,0.0,0.0,0.0,0.0,0.0,0.0,0.0,0.0,-7.1547,-7.1517,-7.1128,-7.0919,-7.0919,-7.0919,-7.0919,-7.0919,-7.0919,-7.0919,-7.0919,-7.1308,-7.1547,0.0,0.0,0.0,0.0,0.0,0.0,0.0,0.0,0.0,0.0,0.0,0.0,0.0,0.0,0.0,0.0,0.0,0.0,0.0,0.0,0.0,0.0,0.0,-7.5288,0.0,0.0,0.0,0.0,0.0,0.0,0.0,0.0,0.0,-7.3529,-7.3353,-7.339,-7.3685,-7.4274,-7.4749,-7.5108,0.0,0.0,0.0,0.0,0.0,0.0,0.0,-7.9904,-7.9699,-7.951,-7.9303,-7.9251,-7.8988,-7.883,-7.883,0.0,0.0,-7.9261,-7.9484,-7.9749,-8.0014,-8.0318,-8.0562,-8.0635,-8.0953,-8.1301,0.0,0.0,0.0,0.0,-7.5021,0.0,0.0,0.0,-7.2901,-7.2804,0.0,-7.2864,0.0,0.0,0.0,0.0,-7.2924,-7.2954,0.0,0.0,-7.2954,-7.2894,-7.2894,-7.2864,-7.2864,-7.2834,-7.2804,-7.2834,-7.2864,-7.2834,0.0,0.0,0.0,0.0,0.0,0.0,-7.0919,-7.0919,-7.0919,-7.0919,-7.0919,-7.0919,-7.0919,-7.0919,-7.0919,-7.0919,-7.0919,-7.0919,-7.0919,-7.0919,-7.1517,0.0,0.0,0.0,0.0,0.0,0.0,0.0,0.0,0.0,0.0,0.0,0.0,0.0,0.0,0.0,0.0,0.0,0.0,0.0,0.0,-7.4839,0.0,0.0,0.0,0.0,0.0,0.0,0.0,0.0,0.0,0.0,-7.3046,-7.2988,-7.308,-7.3433,0.0,0.0,0.0,0.0,-7.773,-7.8391,-7.9217,-7.9734,-7.9734,-7.9955,-8.0107,-8.0107,0.0,0.0,-7.9785,-7.9528,-7.9254,-7.934,-7.9479,-7.9678,-7.9434,-7.9209,-7.9235,-7.9835,-7.9766,-7.9559,-7.9784,-7.9936,-8.0005,-7.8896,0.0,0.0,0.0,0.0,-7.5192,-7.4281,-7.3477,-7.2365,-7.1683,-7.1517,-7.1966,0.0,0.0,0.0,0.0,0.0,0.0,-7.2924,-7.2924,-7.2924,-7.2654,-7.2176,-7.2176,-7.1936,-7.1487,-7.1487,-7.1487,-7.1487,-7.1487,-7.1727,-7.2146,0.0,0.0,0.0,0.0,-7.0919,-7.0919,-7.0919,-7.0919,-7.0919,-7.0919,-7.0919,-7.0919,-7.0919,-7.0919,-7.0919,-7.0919,-7.0919,-7.0919,-7.1068,0.0,0.0,0.0,0.0,0.0,0.0,0.0,0.0,0.0,0.0,0.0,0.0,0.0,0.0,0.0,0.0,0.0,0.0,0.0,-7.421,-7.3762,-7.347,0.0,0.0,0.0,0.0,0.0,0.0,0.0,0.0,0.0,-7.3726,-7.3695,-7.3818,0.0,0.0,-7.6085,-7.7213,-7.785,-7.8312,-7.86,-7.8875,0.0,-7.8571,-7.8569,-7.8619,-7.8619,-7.8619,-7.8619,-7.8519,-7.847,-7.842,-7.842,-7.847,-7.8487,-7.8489,-7.9229,-7.9853,-8.0088,-8.0039,-8.0006,-8.0057,-8.0107,-8.0107,-7.9717,-7.8816,-7.8498,-7.7511,-7.6078,-7.5034,-7.3841,-7.258,-7.1661,-7.1113,-7.0919,-7.1338,-7.1487,-7.1517,-7.1936,0.0,0.0,0.0,-7.2116,-7.2116,-7.2116,-7.1906,-7.1517,-7.1487,-7.1278,-7.0919,-7.0919,-7.0919,-7.0919,-7.0919,-7.1098,-7.1487,0.0,-7.0919,-7.0919,-7.0919,-7.0919,-7.0919,-7.0919,-7.0919,-7.0889,-7.0679,-7.041,-7.0171,-7.038,-7.053,-7.056,-7.0769,-7.0919,-7.0919,-7.0919,-7.0919,0.0,0.0,0.0,0.0,0.0,0.0,0.0,0.0,0.0,0.0,0.0,-7.3073,-7.3462,0.0,0.0,0.0,-7.3851,-7.4009,-7.3724,-7.3334,0.0,0.0,0.0,0.0,0.0,0.0,0.0,-7.2859,-7.3169,-7.3778,-7.4738,-7.5003,-7.5246,-7.5586,-7.637,-7.7184,-7.78,0.0,-7.8265,-7.8237,-7.8354,-7.8319,-7.8044,-7.801,-7.801,-7.801,-7.801,-7.801,-7.801,-7.801,-7.801,-7.801,-7.801,-7.801,-7.801,-7.872,-7.9329,-7.9329,-7.9329,-7.9329,-7.9329,-7.9329,-7.9329,-8.0073,-8.0057,-7.9221,-7.7468,-7.5178,-7.4557,-7.3138,-7.1247,-7.1018,-7.0919,-7.0919,-7.0919,-7.0919,-7.0919,-7.0919,0.0,-7.0919,-7.0919,-7.0919,-7.0919,-7.0919,-7.0919,-7.0919,-7.0919,-7.0919,-7.0919,-7.0919,-7.0919,-7.0919,-7.0919,-7.0889,-7.0829,-7.0829,-7.0859,-7.0919,-7.0859,-7.0829,-7.0829,-7.0769,-7.0739,-7.0739,-7.0201,-6.9602,-6.9034,-6.9572,-6.9871,-6.9901,-7.044,-7.0739,-7.0739,-7.0769,-7.0769,-7.0829,0.0,0.0,0.0,0.0,0.0,0.0,0.0,0.0,0.0,0.0,0.0,0.0,0.0,0.0,0.0,-7.2774,0.0,-7.3238,-7.3208,0.0,0.0,0.0,-7.2198,-7.1466,-7.1597,-7.233,-7.3778,0.0,0.0,-7.5917,-7.6559,-7.6984,-7.7052,-7.7437,-7.7737,-7.7789,-7.7867,-7.7844,-7.7529,-7.7727,-7.7874,-7.7671,-7.7671,-7.7671,-7.7671,-7.7807,-7.7739,-7.7705,-7.7739,-7.7773,-7.7705,-7.7773,-7.7773,-7.7773,-7.7773,-7.7807,-7.7807,-7.7942,-7.8044,-7.8111,-7.8111,-7.8145,-7.8855,-7.9313,-7.9162,-7.8974,-7.8697,-7.6266,-7.4939,-7.4288,-7.1982,-7.0919,-7.0919,-7.0919,-7.0919,-7.0919,-7.0919,-7.0919,-7.0919,-7.0919,-7.0919,-7.0919,-7.0919,-7.0919,-7.0919,-7.0919,-7.0919,-7.0919,-7.0919,-7.0919,-7.0919,-7.0919,-7.0649,-7.0231,-7.0201,-7.044,-7.0859,-7.044,-7.0201,-7.0201,-6.9692,-6.9453,-6.9453,-6.9303,-6.9153,-6.9004,-6.9153,-6.9213,-6.9243,-6.9393,-6.9453,-6.9453,-6.9453,-6.9662,-7.0141,-6.9692,0.0,0.0,0.0,0.0,0.0,0.0,0.0,0.0,0.0,-7.1607,-7.2086,0.0,-7.2116,0.0,-7.1667,-7.1577,-7.2218,-7.1798,0.0,0.0,-7.3448,-7.3967,-7.5093,-7.5061,-7.5072,-7.5427,-7.5555,-7.5819,-7.6399,-7.6834,-7.7242,-7.7664,-7.7276,-7.7107,-7.7565,-7.7665,-7.7527,-7.7119,-7.7082,-7.6927,-7.642,-7.6251,-7.6284,-7.6251,-7.6251,-7.6251,-7.6251,-7.6217,-7.6217,-7.6251,-7.6251,-7.6251,-7.6284,-7.6251,-7.6251,-7.6318,-7.7164,-7.801,-7.801,-7.7976,-7.7976,-7.8247,-7.8619,-7.8585,-7.8622,-7.8453,-7.6489,-7.4821,-7.3352,-7.1665,-7.0919,-7.0919,-7.0919,-7.0919,-7.0919,-7.0919,-7.0919,-7.0919,-7.0919,-7.0919,-7.0919,-7.0919,-7.0919,-7.0919,-7.0919,-7.0919,-7.0889,-7.062,-7.05,-7.047,-7.0201,-6.9871,-6.9542,-6.9542,-6.9722,-7.0021,-6.9722,-6.9542,-6.9542,-6.9183,-6.8854,-6.8555,-6.8555,-6.8405,-6.8136,-6.8405,-6.8525,-6.8555,-6.8824,-6.9004,-6.9004,-6.9004,-6.9153,-6.9482,-6.9183,-6.9217,0.0,0.0,0.0,0.0,0.0,0.0,0.0,0.0,0.0,0.0,0.0,-7.1457,-7.1457,-7.1128,-7.1103,-7.1623,-7.1971,-7.2643,-7.3659,-7.4159,-7.4733,-7.5563,-7.516,-7.5088,-7.5788,-7.5798,-7.607,-7.6659,-7.6926,-7.699,-7.698,-7.657,-7.6507,-7.7107,-7.7036,-7.668,-7.642,-7.6352,-7.6251,-7.5743,-7.5676,-7.5676,-7.5676,-7.5676,-7.5676,-7.5676,-7.5676,-7.5676,-7.5676,-7.5676,-7.5676,-7.5676,-7.5676,-7.5676,-7.5811,-7.6352,-7.6893,-7.6961,-7.6961,-7.6961,-7.7739,-7.7841,-7.7841,-7.7346,-7.6498,-7.5714,-7.3738,-7.1134,-7.0843,-7.0649,-7.0649,-7.0679,-7.0649,-7.0679,-7.0679,-7.0679,-7.0649,-7.0679,-7.0649,-7.0649,-7.0649,-7.0649,-7.0649,-7.0649,-7.0649,-7.0649,-7.0111,-6.9871,-6.9842,-6.9273,-6.8944,-6.8884,-6.8884,-6.8824,-6.8734,-6.8734,-6.8734,-6.8734,-6.8734,-6.8465,-6.7867,-6.7837,-6.7567,-6.7029,-6.7537,-6.7899,-6.7867,-6.8435,-6.8734,-6.8734,-6.8734,-6.8764,-6.8854,-6.8794,-6.889,0.0,-6.911,0.0,0.0,0.0,0.0,0.0,0.0,0.0,0.0,-7.0919,-7.0919,-7.0919,-7.0829,-7.0929,-7.1186,-7.2583,-7.353,-7.38,-7.4582,-7.5047,-7.4903,-7.4356,-7.4431,-7.5713,-7.587,-7.6136,-7.6631,-7.6758,-7.6454,-7.5946,-7.5763,-7.6034,-7.6521,-7.6183,-7.5811,-7.5676,-7.5676,-7.5777,-7.5709,-7.5676,-7.5676,-7.5676,-7.5676,-7.5676,-7.5676,-7.5676,-7.5676,-7.5676,-7.5676,-7.5676,-7.5676,-7.5676,-7.5676,-7.5709,-7.5777,-7.5811,-7.5811,-7.5845,-7.5676,-7.6521,-7.7096,-7.7096,-7.6676,-7.5826,-7.4425,-7.3347,-7.2276,-7.0432,-6.9586,-6.9363,-6.9363,-6.9363,-6.9363,-6.9363,-6.9363,-6.9363,-6.9363,-6.9363,-6.9363,-6.9363,-6.9363,-6.9363,-6.9363,-6.9363,-6.9363,-6.9243,-6.9183,-6.9183,-6.9064,-6.8704,-6.8166,-6.8166,-6.7897,-6.7388,0.0,0.0,0.0,-6.7388,-6.7298,-6.7178,-6.7178,-6.7119,-6.6999,-6.7119,0.0,-6.7178,-6.7298,-6.7358,-6.7358,-6.7388,0.0,0.0,0.0,0.0,0.0,0.0,0.0,0.0,0.0,0.0,0.0,-6.9303,-6.9812,-7.0799,-7.0919,-7.0919,-7.0889,-7.044,-7.0205,-7.0269,-7.1108,-7.2183,-7.3429,-7.4788,-7.5991,-7.7126,-7.7145,-7.7028,-7.6689,-7.6671,-7.6466,-7.6034,-7.5912,-7.5879,-7.5743,-7.5676,-7.5743,-7.5912,-7.5811,-7.5709,-7.5676,-7.5676,-7.5676,-7.5676,-7.5676,-7.5676,-7.5676,-7.5676,-7.5676,-7.5676,-7.5676,-7.5676,-7.5676,-7.5676,-7.5676,-7.5676,-7.5676,-7.5676,-7.5676,-7.5676,-7.5676,-7.5676,-7.5676,-7.5676,-7.5946,-7.6236,-7.5569,-7.48,0.0,-7.2309,-7.1211,-7.0524,-6.9578,-6.91,-6.9004,-6.9004,-6.9004,-6.9004,-6.9004,-6.9004,-6.9004,-6.9004,-6.9004,-6.9004,-6.9004,-6.9004,-6.9004,-6.9004,-6.9004,-6.8974,-6.8645,-6.8495,-6.8465,-6.8166,-6.7837,-6.7478,-6.7478,-6.7328,-6.6999,-6.6999,-6.6999,-6.6999,-6.6999,-6.6999,-6.6999,-6.6999,-6.6999,-6.6999,-6.6999,0.0,0.0,0.0,0.0,0.0,0.0,0.0,0.0,-6.788,0.0,-6.7817,-6.8774,-6.9182,-6.8934,-6.9494,-6.9772,-6.958,-6.9203,-6.9273,-6.9931,-6.9961,-6.9961,-6.9961,-6.9662,-6.9769,-7.0554,-7.1671,-7.2902,-7.4409,-7.5601,-7.6626,-7.7254,-7.7096,-7.6724,-7.6386,-7.6318,-7.6149,-7.5743,-7.5676,-7.5676,-7.5676,-7.5676,-7.5676,-7.5676,-7.5676,-7.5676,-7.5676,-7.5676,-7.5676,-7.5676,-7.5676,-7.5676,-7.5676,-7.5676,-7.5676,-7.5676,-7.5676,-7.5676,-7.5676,-7.5676,-7.5676,-7.5676,-7.5676,-7.5676,-7.5676,-7.5676,-7.5676,-7.5676,-7.5676,-7.5676,-7.5676,-7.558,-7.4206,-7.3206,-7.242,-7.0424,-6.9031,-6.818,-6.8601,0.0,0.0,-6.8645,-6.8645,-6.8645,-6.8645,-6.8645,-6.8645,-6.8645,-6.8645,-6.8645,-6.8645,-6.8645,-6.8645,-6.8645,-6.8645,-6.8615,-6.8076,-6.7807,-6.7777,-6.7238,-6.6999,-6.6999,-6.6999,-6.6999,-6.6999,-6.6999,-6.6999,-6.6999,-6.6999,-6.6999,-6.6999,-6.6999,-6.6999,-6.6999,-6.6999,-6.6999,-6.6999,-6.6999,-6.6999,-6.6999,-6.6999,-6.6999,-6.706,-6.8384,-6.8766,-6.8029,-7.0255,-7.1256,-7.0118,-7.0814,-7.0869,-6.9713,-6.8999,-6.8734,-6.8974,-6.9004,-6.9004,-6.9004,-6.8884,-6.9452,-7.0882,-7.2274,-7.3725,-7.5188,-7.6174,-7.669,-7.6657,-7.6115,-7.5743,-7.5676,-7.5743,-7.5676,-7.5709,-7.5676,-7.5676,-7.5676,-7.5676,-7.5676,-7.5676,-7.5676,-7.5676,-7.5676,-7.5676,-7.5676,-7.5676,-7.5676,-7.5676,-7.5676,-7.5676,-7.5676,-7.5676,-7.5676,-7.5676,-7.5676,-7.5676,-7.5676,-7.5676,-7.5676,-7.5676,-7.5676,-7.5676,-7.5676,-7.5676,-7.5676,-7.5676,-7.5676,-7.558,-7.4206,-7.3515,-7.3173,-7.048,-6.8503,-6.7243,-6.7576,-6.7514,-6.7268,-6.7268,-6.7268,-6.7268,-6.7268,-6.7268,-6.7268,-6.7268,-6.7268,-6.7268,-6.7268,-6.7268,-6.7268,-6.7268,-6.7268,-6.7268,-6.7178,-6.7119,-6.7119,-6.7029,-6.6999,-6.6999,-6.6999,-6.6999,-6.6999,-6.6999,-6.6999,-6.6999,-6.6999,-6.6999,-6.6999,-6.6999,-6.6999,-6.6999,-6.6999,-6.6999,-6.6999,-6.6999,-6.6999,-6.6999,-6.6999,-6.6999,-6.706,-6.8354,-6.9143,-6.9058,-7.0536,-7.1333,-7.1146,-7.0199,-6.8972,-6.7608,-6.7331,-6.7747,-6.8884,-6.9004,-6.9004,-6.8974,-6.8498,-6.8726,-7.014,-7.1256,-7.2509,-7.3877,-7.5102,-7.5845,-7.5912,-7.5811,-7.5676,-7.5676,-7.5676,-7.5676,-7.5676,-7.5676,-7.5676,-7.5676,-7.5676,-7.5676,-7.5676,-7.5676,-7.5676,-7.5676,-7.5676,-7.5676,-7.5676,-7.5676,-7.5676,-7.5676,-7.5676,-7.5676,-7.5676,-7.5676,-7.5676,-7.5676,-7.5676,-7.5676,-7.5676,-7.5676,-7.5676,-7.5676,-7.5676,-7.5676,-7.5676,-7.5676,-7.5676,-7.4588,-7.429,-7.2143,-7.1224,-7.1059,-6.8911,-6.7608,-6.706,-6.7182,-6.7182,-6.6999,-6.6999,-6.6999,-6.6999,-6.6999,-6.6999,-6.6999,-6.6999,-6.6999,-6.6999,-6.6999,-6.6999,-6.6999,-6.6999,-6.6999,-6.6999,-6.6999,-6.6999,-6.6999,-6.6999,-6.6999,-6.6999,-6.6999,-6.6999,-6.6999,-6.6999,-6.6999,-6.6999,-6.6999,-6.6999,-6.6999,-6.6999,-6.6999,-6.6999,-6.6999,-6.6999,-6.6999,-6.6999,-6.6999,-6.6999,-6.6999,-6.6999,-6.706,-6.8384,-6.8794,-6.8147,-7.0143,-7.1059,-7.0224,-6.9605,-6.8942,-6.8206,-6.7427,-6.7637,-6.9031,-6.8361,-6.8268,-6.9032,-6.8847,-6.9608,-7.1758,-7.239,-7.3206,-7.4588,-7.534,-7.5676,-7.5676,-7.5676,-7.5676,-7.5676,-7.5676,-7.5676,-7.5676,-7.5676,-7.5676,-7.5676,-7.5676,-7.5676,-7.5676,-7.5676,-7.5676,-7.5676,-7.5676,-7.5676,-7.5676,-7.5676,-7.5676,-7.5676,-7.5676,-7.5676,-7.5676,-7.5676,-7.5676,-7.5676,-7.5676,-7.5676,-7.5676,-7.5676,-7.5676,-7.5676,-7.5676,-7.5676,-7.5676,-7.5676,-7.5676,-7.3102,-7.2842,-7.0312,-6.9058,-6.859,-6.7487,-6.6999,-6.6999,-6.6999,-6.6999,-6.6999,-6.6999,-6.6999,-6.6999,-6.6999,-6.6999,-6.6999,-6.6999,-6.6999,-6.6999,-6.6999,-6.6999,-6.6999,-6.6999,-6.6999,-6.6999,-6.6999,-6.6999,-6.6999,-6.6999,-6.6999,-6.6999,-6.6999,-6.6999,-6.6999,-6.6999,-6.6999,-6.6999,-6.6999,-6.6999,-6.6999,-6.6999,-6.6999,-6.6999,-6.6999,-6.6999,-6.6999,-6.6999,-6.6999,-6.6999,-6.6999,-6.6999,-6.703,-6.8354,-6.8707,-6.7879,-6.9973,-7.0759,-6.9375,-6.9516,-6.9516,-6.9201,-6.8472,-6.8503,-6.9432,-6.8649,-6.8413,-6.949,-6.9719,-7.0814,-7.2946,-7.3548,-7.4156,-7.5484,-7.5676,-7.5676,-7.5676,-7.5676,-7.5676,-7.5676,-7.5676,-7.5676,-7.5676,-7.5676,-7.5676,-7.5676,-7.5676,-7.5676,-7.5676,-7.5676,-7.5676,-7.5676,-7.5676,-7.5676,-7.5676,-7.5676,-7.5676,-7.5676,-7.5676,-7.5676,-7.5676,-7.5676,-7.5676,-7.5676,-7.5676,-7.5676,-7.5676,-7.5676,-7.5676,-7.5676,-7.5676,-7.5676,-7.5676,-7.5676,-7.5676,-7.1605,-7.1365,-6.9802,-6.8444,-6.7274,-6.703,-6.6999,-6.6999,-6.6999,-6.6999,-6.6999,-6.6999,-6.6999,-6.6999,-6.6999,-6.6999,-6.6999,-6.6999,-6.6999,-6.6999,-6.6999,-6.6999,-6.6999,-6.6999,-6.6999,-6.6999,-6.6999,-6.6999,-6.6999,-6.6999,-6.6999,-6.6999,-6.6999,-6.6999,-6.6999,-6.6999,-6.6999,-6.6999,-6.6999,-6.6999,-6.6999,-6.6999,-6.6999,-6.6999,-6.6999,-6.6999,-6.6999,-6.6999,-6.6999,-6.6999,-6.6999,-6.6999,-6.7152,-6.8384,-6.9085,-6.8969,-7.0448,-7.0759,-6.949,-7.048,-7.056,-6.949,-7.0312,-7.0893,-7.1169,-7.1059,-7.1004,-7.1224,-7.1224,-7.1929,-7.3379,-7.3668,-7.4256,-7.5484,-7.5676,-7.5676,-7.5676,-7.5676,-7.5676,-7.5676,-7.5676,-7.5676,-7.5676,-7.5676,-7.5676,-7.5676,-7.5676,-7.5676,-7.5676,-7.5676,-7.5676,-7.5676,-7.5676,-7.5676,-7.5676,-7.5676,-7.5676,-7.5676,-7.5676,-7.5676,-7.5676,-7.5676,-7.5676,-7.5676,-7.5676,-7.5676,-7.5676,-7.5676,-7.5676,-7.5676,-7.5676,-7.5676,-7.5676,-7.5676,-7.5676,-7.0086,-6.9973,-6.8531,-6.7548,-6.706,-6.6999,-6.6999,-6.6999,-6.6999,-6.6999,-6.6999,-6.6999,-6.6999,-6.6999,-6.6999,-6.6999,-6.6999,-6.6999,-6.6999,-6.6999,-6.6999,-6.6999,-6.6999,-6.6999,-6.6999,-6.6999,-6.6999,-6.6999,-6.6999,-6.6999,-6.6999,-6.6999,-6.6999,-6.6999,-6.6999,-6.6999,-6.6999,-6.6999,-6.6999,-6.6999,-6.6999,-6.6999,-6.6999,-6.6999,-6.6999,-6.6999,-6.6999,-6.6999,-6.6999,-6.6999,-6.6999,-6.6999,-6.6999,-6.7608,-6.7879,-6.7998,-6.9259,-6.9859,-6.9259,-7.0592,-7.1114,-7.0536,-7.1091,-7.1745,-7.2599,-7.2704,-7.3018,-7.3719,-7.3206,-7.3309,-7.4555,-7.4835,-7.5112,-7.558,-7.5676,-7.5676,-7.5676,-7.5676,-7.5676,-7.5676,-7.5676,-7.5676,-7.5676,-7.5676,-7.5676,-7.5676,-7.5676,-7.5676,-7.5676,-7.5676,-7.5676,-7.5676,-7.5676,-7.5676,-7.5676,-7.5676,-7.5676,-7.5676,-7.5676,-7.5676,-7.5676,-7.5676,-7.5676,-7.5676,-7.5676,-7.5676,-7.5676,-7.5676,-7.5676,-7.5676,-7.5676,-7.5676,-7.5676,-7.5676,-7.5676,-6.859,-6.8413,-6.7427,-6.6999,-6.6999,-6.6999,-6.6999,-6.6999,-6.6999,-6.6999,-6.6999,-6.6999,-6.6999,-6.6999,-6.6999,-6.6999,-6.6999,-6.6999,-6.6999,-6.6999,-6.6999,-6.6999,-6.6999,-6.6999,-6.6999,-6.6999,-6.6999,-6.6999,-6.6999,-6.6999,-6.6999,-6.6999,-6.6999,-6.6999,-6.6999,-6.6999,-6.6999,-6.6999,-6.6999,-6.6999,-6.6999,-6.6999,-6.6999,-6.6999,-6.6999,-6.6999,-6.6999,-6.6999,-6.6999,-6.6999,-6.6999,-6.6999,-6.6999,-6.7396,-6.7759,-6.8206,-6.9201,-6.9802,-6.9802,-7.1169,-7.2015,-7.2015,-7.2335,-7.3018,-7.3922,-7.4156,-7.4638,-7.5388,-7.4736,-7.4638,-7.5436,-7.5676,-7.5676,-7.5676,-7.5676,-7.5676,-7.5676,-7.5676,-7.5676,-7.5676,-7.5676,-7.5676,-7.5676,-7.5676,-7.5676,-7.5676,-7.5676,-7.5676,-7.5676,-7.5676,-7.5676,-7.5676,-7.5676,-7.5676,-7.5676,-7.5676,-7.5676,-7.5676,-7.5676,-7.5676,-7.5676,-7.5676,-7.5676,-7.5676,-7.5676,-7.5676,-7.5676,-7.5676,-7.5676,-7.5676,-7.5676,-7.5676,-7.5676,-7.5676,-7.5676,-6.7091,-6.7091,-6.706,-6.6999,-6.6999,-6.6999,-6.6999,-6.6999,-6.6999,-6.6999,-6.6999,-6.6999,-6.6999,-6.6999,-6.6999,-6.6999,-6.6999,-6.6999,-6.6999,-6.6999,-6.6999,-6.6999,-6.6999,-6.6999,-6.6999,-6.6999,-6.6999,-6.6999,-6.6999,-6.6999,-6.6999,-6.6999,-6.6999,-6.6999,-6.6999,-6.6999,-6.6999,-6.6999,-6.6999,-6.6999,-6.6999,-6.6999,-6.6999,-6.6999,-6.6999,-6.6999,-6.6999,-6.6999,-6.6999,-6.6999,-6.6999,-6.6999,-6.7091,-6.8266,-6.949,-7.0672,-7.1146,-7.1256,-7.1388,-7.2652,-7.3515,-7.365,-7.4539,-7.5436,-7.5354,-7.5354,-7.5484,-7.5676,-7.5532,-7.5532,-7.5628,-7.5676,-7.5676,-7.5676,-7.5676,-7.5676,-7.5676,-7.5676,-7.5676,-7.5676,-7.5676,-7.5676,-7.5676,-7.5676,-7.5676,-7.5676,-7.5676,-7.5676,-7.5676,-7.5676,-7.5676,-7.5676,-7.5676,-7.5676,-7.5676,-7.5676,-7.5676,-7.5676,-7.5676,-7.5676,-7.5676,-7.5676,-7.5676,-7.5676,-7.5676,-7.5676,-7.5676,-7.5676,-7.5676,-7.5676,-7.5676,-7.5676,-7.5676,-7.5676,-7.5676,-6.6999,-6.6999,-6.6999,-6.6999,-6.6999,-6.6999,-6.6999,-6.6999,-6.6999,-6.6999,-6.6999,-6.6999,-6.6999,-6.6999,-6.6999,-6.6999,-6.6999,-6.6999,-6.6999,-6.6999,-6.6999,-6.6999,-6.6999,-6.6999,-6.6999,-6.6999,-6.6999,-6.6999,-6.6999,-6.6999,-6.6999,-6.6999,-6.6999,-6.6999,-6.6999,-6.6999,-6.6999,-6.6999,-6.6999,-6.6999,-6.6999,-6.6999,-6.6999,-6.6999,-6.6999,-6.6999,-6.6999,-6.6999,-6.6999,-6.6999,-6.6999,-6.6999,-6.706,-6.7487,-6.7968,-6.8707,-7.0336,-7.142,-7.1691,-7.3668,-7.4932,-7.4966,-7.5388,-7.5676,-7.5676,-7.5676,-7.5676,-7.5676,-7.5676,-7.5676,-7.5676,-7.5676,-7.5676,-7.5676,-7.5676,-7.5676,-7.5676,-7.5676,-7.5676,-7.5676,-7.5676,-7.5676,-7.5676,-7.5676,-7.5676,-7.5676,-7.5676,-7.5676,-7.5676,-7.5676,-7.5676,-7.5676,-7.5676,-7.5676,-7.5676,-7.5676,-7.5676,-7.5676,-7.5676,-7.5676,-7.5676,-7.5676,-7.5676,-7.5676,-7.5676,-7.5676,-7.5676,-7.5676,-7.5676,-7.5676,-7.5676,-7.5676,-7.5676,-7.5676,-7.5676,-6.6999,-6.6999,-6.6999,-6.6999,-6.6999,-6.6999,-6.6999,-6.6999,-6.6999,-6.6999,-6.6999,-6.6999,-6.6999,-6.6999,-6.6999,-6.6999,-6.6999,-6.6999,-6.6999,-6.6999,-6.6999,-6.6999,-6.6999,-6.6999,-6.6999,-6.6999,-6.6999,-6.6999,-6.6999,-6.6999,-6.6999,-6.6999,-6.6999,-6.6999,-6.6999,-6.6999,-6.6999,-6.6999,-6.6999,-6.6999,-6.6999,-6.6999,-6.6999,-6.6999,-6.6999,-6.6999,-6.6999,-6.6999,-6.6999,-6.6999,-6.6999,-6.7213,-6.7638,-6.8147,-6.8649,-6.9286,-7.1464,-7.2776,-7.2966,-7.4638,-7.5676,-7.5676,-7.5676,-7.5676,-7.5676,-7.5676,-7.5676,-7.5676,-7.5676,-7.5676,-7.5676,-7.5676,-7.5676,-7.5676,-7.5676,-7.5676,-7.5676,-7.5676,-7.5676,-7.5676,-7.5676,-7.5676,-7.5676,-7.5676,-7.5676,-7.5676,-7.5676,-7.5676,-7.5676,-7.5676,-7.5676,-7.5676,-7.5676,-7.5879,-7.6082,-7.6251,-7.5912,-7.5845,-7.5879,-7.5845,-7.5879,-7.5845,-7.5811,-7.5743,-7.5709,-7.5709,-7.5709,-7.5709,-7.5709,-7.5709,-7.5676,-7.5676,-7.5676,-7.5676,-7.5676,-6.6999,-6.6999,-6.6999,-6.6999,-6.6999,-6.6999,-6.6999,-6.6999,-6.6999,-6.6999,-6.6999,-6.6999,-6.6999,-6.6999,-6.6999,-6.6999,-6.6999,-6.6999,-6.6999,-6.6999,-6.6999,-6.6999,-6.6999,-6.6999,-6.6999,-6.6999,-6.6999,-6.6999,-6.6999,-6.6999,-6.6999,-6.6999,-6.6999,-6.6999,-6.6999,-6.6999,-6.6999,-6.6999,-6.6999,-6.6999,-6.6999,-6.6999,-6.6999,-6.6999,-6.6999,-6.6999,-6.6999,-6.6999,-6.6999,-6.6999,-6.6999,-6.7729,-6.8969,-7.0143,-7.1713,-7.2809,-7.4588,-7.5436,-7.5436,-7.5532,-7.5676,-7.5676,-7.5676,-7.5676,-7.5676,-7.5676,-7.5676,-7.5676,-7.5676,-7.5676,-7.5676,-7.5676,-7.5676,-7.5676,-7.5676,-7.5676,-7.5676,-7.5676,-7.5676,-7.5676,-7.5676,-7.5676,-7.5676,-7.5676,-7.5676,-7.5676,-7.5777,-7.5845,-7.5912,-7.6014,-7.5845,-7.5845,-7.6115,-7.6454,-7.669,-7.686,-7.642,-7.6082,-7.6115,-7.6149,-7.6318,-7.6352,-7.642,-7.6386,-7.642,-7.6386,-7.6352,-7.6318,-7.6048,-7.598,-7.5879,-7.5743,-7.5676,-7.5676,-7.5676,-6.6999,-6.6999,-6.6999,-6.6999,-6.6999,-6.6999,-6.6999,-6.6999,-6.6999,-6.6999,-6.6999,-6.6999,-6.6999,-6.6999,-6.6999,-6.6999,-6.6999,-6.6999,-6.6999,-6.6999,-6.6999,-6.6999,-6.6999,-6.6999,-6.6999,-6.6999,-6.6999,-6.6999,-6.6999,-6.6999,-6.6999,-6.6999,-6.6999,-6.6999,-6.6999,-6.6999,-6.6999,-6.6999,-6.6999,-6.6999,-6.6999,-6.6999,-6.6999,-6.6999,-6.6999,-6.6999,-6.6999,-6.6999,-6.6999,-6.6999,-6.6999,-6.7638,-6.8969,-6.9631,-7.056,-7.1982,-7.3464,-7.4256,-7.4406,-7.5161,-7.5676,-7.5676,-7.5676,-7.5676,-7.5676,-7.5676,-7.5676,-7.5676,-7.5676,-7.5676,-7.5676,-7.5676,-7.5709,-7.5709,-7.5676,-7.5676,-7.5709,-7.5709,-7.5676,-7.5676,-7.5676,-7.5676,-7.5709,-7.5743,-7.5811,-7.5879,-7.6183,-7.6521,-7.6555,-7.686,-7.7266,-7.7266,-7.7299,-7.7198,-7.7468,-7.7671,-7.7502,-7.7164,-7.7063,-7.6792,-7.6893,-7.6927,-7.6995,-7.7029,-7.7063,-7.7063,-7.7029,-7.686,-7.6623,-7.6318,-7.6251,-7.6048,-7.5777,-7.5777,-7.5879,-6.6999,-6.6999,-6.6999,-6.6999,-6.6999,-6.6999,-6.6999,-6.6999,-6.6999,-6.6999,-6.6999,-6.6999,-6.6999,-6.6999,-6.6999,-6.6999,-6.6999,-6.6999,-6.6999,-6.6999,-6.6999,-6.6999,-6.6999,-6.6999,-6.6999,-6.6999,-6.6999,-6.6999,-6.6999,-6.6999,-6.6999,-6.6999,-6.6999,-6.6999,-6.6999,-6.6999,-6.6999,-6.6999,-6.6999,-6.6999,-6.6999,-6.6999,-6.6999,-6.6999,-6.6999,-6.6999,-6.6999,-6.6999,-6.6999,-6.6999,-6.6999,-6.7487,-6.8384,-6.9375,-7.0448,-7.1497,-7.3173,-7.4406,-7.4456,-7.5258,-7.5676,-7.5676,-7.5676,-7.5676,-7.5676,-7.5676,-7.5676,-7.5676,-7.5676,-7.5676,-7.5676,-7.5676,-7.5811,-7.6149,-7.5879,-7.5709,-7.5743,-7.598,-7.6149,-7.6251,-7.642,-7.6521,-7.6555,-7.6555,-7.6555,-7.6623,-7.6961,-7.7299,-7.7367,-7.7671,-7.7908,-7.801,-7.7841,-7.7908,-7.828,-7.845,-7.8551,-7.8382,-7.8213,-7.7841,-7.7638,-7.7638,-7.7638,-7.7604,-7.7638,-7.757,-7.7536,-7.7468,-7.7266,-7.6995,-7.6792,-7.669,-7.6589,-7.6318,-7.6284,-6.6999,-6.6999,-6.6999,-6.6999,-6.6999,-6.6999,-6.6999,-6.6999,-6.6999,-6.6999,-6.6999,-6.6999,-6.6999,-6.6999,-6.6999,-6.6999,-6.6999,-6.6999,-6.6999,-6.6999,-6.6999,-6.6999,-6.6999,-6.6999,-6.6999,-6.6999,-6.6999,-6.6999,-6.6999,-6.6999,-6.6999,-6.6999,-6.6999,-6.6999,-6.6999,-6.6999,-6.6999,-6.6999,-6.6999,-6.6999,-6.6999,-6.6999,-6.6999,-6.6999,-6.6999,-6.6999,-6.6999,-6.6999,-6.6999,-6.6999,-6.6999,-6.7152,-6.7698,-6.9802,-7.1004,-7.1659,-7.4123,-7.5161,-7.5532,-7.558,-7.5676,-7.5676,-7.5676,-7.5676,-7.5676,-7.5676,-7.5676,-7.5676,-7.5676,-7.5743,-7.5811,-7.5845,-7.6217,-7.6724,-7.6454,-7.6082,-7.5946,-7.6555,-7.6893,-7.7063,-7.7536,-7.7942,-7.7773,-7.7773,-7.7807,-7.7841,-7.7908,-7.8044,-7.8111,-7.8247,-7.8179,-7.828,-7.8551,-7.872,-7.9126,-7.916,-7.9228,-7.9228,-7.9092,-7.8822,-7.8517,-7.8517,-7.8517,-7.845,-7.8314,-7.8213,-7.8179,-7.8213,-7.8111,-7.7942,-7.7773,-7.7604,-7.7333,-7.7063,-7.669,-6.6999,-6.6999,-6.6999,-6.6999,-6.6999,-6.6999,-6.6999,-6.6999,-6.6999,-6.6999,-6.6999,-6.6999,-6.6999,-6.6999,-6.6999,-6.6999,-6.6999,-6.6999,-6.6999,-6.6999,-6.6999,-6.6999,-6.6999,-6.6999,-6.6999,-6.6999,-6.6999,-6.6999,-6.6999,-6.6999,-6.6999,-6.6999,-6.6999,-6.6999,-6.6999,-6.6999,-6.6999,-6.6999,-6.6999,-6.7059,-6.7059,-6.7059,-6.6999,-6.6999,-6.7029,-6.7029,-6.6999,-6.6999,-6.6999,-6.6999,-6.6999,-6.7548,-6.8384,-6.9375,-7.0672,-7.2514,-7.3566,-7.4671,-7.5436,-7.5709,-7.5676,-7.5676,-7.5676,-7.5676,-7.5676,-7.5676,-7.5676,-7.5676,-7.5709,-7.598,-7.642,-7.6623,-7.6961,-7.7536,-7.7502,-7.7333,-7.7333,-7.7536,-7.7705,-7.7739,-7.7908,-7.8077,-7.8145,-7.8111,-7.8111,-7.8213,-7.8483,-7.8822,-7.8855,-7.916,-7.9228,-7.9498,-7.9735,-7.9769,-7.9837,-7.987,-7.9938,-7.9972,-7.9904,-7.9803,-7.9634,-7.96,-7.9634,-7.9667,-7.9363,-7.9228,-7.9228,-7.9261,-7.9092,-7.8822,-7.845,-7.8179,-7.7942,-7.7671,-7.7333,-6.6999,-6.6999,-6.6999,-6.6999,-6.6999,-6.6999,-6.6999,-6.6999,-6.6999,-6.6999,-6.6999,-6.6999,-6.6999,-6.6999,-6.6999,-6.6999,-6.6999,-6.6999,-6.6999,-6.6999,-6.6999,-6.6999,-6.6999,-6.6999,-6.6999,-6.6999,-6.6999,-6.6999,-6.6999,-6.6999,-6.6999,-6.6999,-6.6999,-6.6999,-6.7029,-6.7268,-6.7388,-6.7478,-6.7627,-6.7837,-6.7837,-6.7837,-6.7837,-6.7837,-6.7837,-6.7747,-6.7448,-6.7148,-6.6999,-6.6999,-6.706,-6.7427,-6.8206,-6.8942,-7.0029,-7.1767,-7.2809,-7.4005,-7.4687,-7.5306,-7.5676,-7.5676,-7.5676,-7.5676,-7.5676,-7.5709,-7.5743,-7.6183,-7.6183,-7.6589,-7.7198,-7.7604,-7.801,-7.8416,-7.872,-7.8653,-7.8111,-7.8247,-7.8416,-7.8517,-7.872,-7.8923,-7.8889,-7.8889,-7.8889,-7.9025,-7.9329,-7.9498,-7.96,-8.0006,-8.0209,-8.0209,-8.0209,-8.0107,-8.004,-8.0073,-8.0073,-8.0175,-8.0175,-8.0209,-8.0209,-8.0209,-8.0141,-8.0107,-8.0175,-8.0141,-7.9972,-7.987,-7.9735,-7.9431,-7.9058,-7.8788,-7.8619,-7.845,-7.8077,-6.6999,-6.6999,-6.6999,-6.6999,-6.6999,-6.6999,-6.6999,-6.6999,-6.6999,-6.6999,-6.6999,-6.6999,-6.6999,-6.6999,-6.6999,-6.6999,-6.6999,-6.6999,-6.6999,-6.6999,-6.6999,-6.6999,-6.6999,-6.6999,-6.6999,-6.6999,-6.6999,-6.6999,-6.6999,-6.6999,-6.7059,-6.7178,-6.7148,-6.7208,-6.7478,-6.7837,-6.8046,-6.8166,-6.8525,-6.8734,-6.8764,-6.8764,-6.8734,-6.8734,-6.8764,-6.8525,-6.8076,-6.7627,-6.7328,-6.7238,-6.7059,-6.706,-6.7274,-6.8384,-6.9085,-6.9802,-7.1821,-7.3276,-7.382,-7.5015,-7.5676,-7.5709,-7.5811,-7.5845,-7.5946,-7.6082,-7.642,-7.6961,-7.6995,-7.7367,-7.8044,-7.8754,-7.9092,-7.9261,-7.9769,-7.9464,-7.8754,-7.8822,-7.9228,-7.9261,-7.9837,-8.0107,-8.0209,-8.0209,-8.0141,-7.96,-7.987,-7.987,-7.9938,-8.0073,-8.0209,-8.0209,-8.0209,-8.0209,-8.0175,-8.0175,-8.0175,-8.0209,-8.0209,-8.0209,-8.0209,-8.0209,-8.0209,-8.0209,-8.0209,-8.0209,-8.0141,-8.0107,-8.0107,-8.004,-7.9634,-7.9498,-7.9397,-7.9261,-7.8991,-6.6999,-6.6999,-6.6999,-6.6999,-6.6999,-6.6999,-6.6999,-6.6999,-6.6999,-6.6999,-6.6999,-6.6999,-6.6999,-6.6999,-6.6999,-6.6999,-6.6999,-6.6999,-6.6999,-6.6999,-6.6999,-6.6999,-6.6999,-6.6999,-6.6999,-6.6999,-6.6999,-6.6999,-6.7029,-6.7119,-6.7298,-6.7717,-6.7807,-6.8016,-6.8465,-6.8615,-6.8764,-6.8824,-6.8974,-6.9093,-6.9123,-6.9123,-6.9123,-6.9123,-6.9064,-6.8974,-6.8824,-6.8645,-6.8585,-6.8345,-6.7657,-6.7148,-6.7271,-6.7516,-6.818,-6.9356,-7.0822,-7.2367,-7.3599,-7.4821,-7.5709,-7.5879,-7.6352,-7.6657,-7.669,-7.713,-7.7468,-7.7739,-7.7773,-7.8077,-7.8788,-7.9532,-7.9803,-7.9938,-8.004,-8.0073,-7.9803,-7.9837,-7.987,-7.9972,-8.004,-8.0209,-8.0209,-8.0209,-8.0209,-8.0209,-8.0209,-8.0209,-8.0209,-8.0209,-8.0209,-8.0209,-8.0209,-8.0209,-8.0209,-8.0209,-8.0209,-8.0209,-8.0209,-8.0209,-8.0209,-8.0209,-8.0209,-8.0209,-8.0209,-8.0209,-8.0209,-8.0209,-8.0141,-8.0175,-8.0209,-8.0006,-7.9837,-7.987,-7.9735,-6.6999,-6.6999,-6.6999,-6.6999,-6.6999,-6.6999,-6.6999,-6.6999,-6.6999,-6.6999,-6.6999,-6.6999,-6.6999,-6.6999,-6.6999,-6.6999,-6.6999,-6.6999,-6.6999,-6.6999,-6.6999,-6.6999,-6.6999,-6.6999,-6.6999,-6.6999,-6.6999,-6.7119,-6.7358,-6.7508,-6.7807,-6.8405,-6.8465,-6.8585,-6.9034,-6.9303,-6.9453,-6.9542,-6.9782,-6.9871,-6.9901,-6.9901,-6.9901,-6.9812,-6.9632,-6.9453,-6.9453,-6.9123,-6.9004,-6.8824,-6.8345,-6.7926,-6.7926,-6.7926,-6.8361,-6.9123,-7.0482,-7.1991,-7.3414,-7.4845,-7.6039,-7.6724,-7.7198,-7.7333,-7.7435,-7.7807,-7.8145,-7.8416,-7.8585,-7.8822,-7.9532,-7.987,-8.0175,-8.0209,-8.0209,-8.0209,-8.0209,-8.0209,-8.0209,-8.0209,-8.0175,-8.0209,-8.0209,-8.0209,-8.0209,-8.0209,-8.0209,-8.0209,-8.0209,-8.0209,-8.0209,-8.0209,-8.0209,-8.0209,-8.0209,-8.0209,-8.0209,-8.0209,-8.0209,-8.0209,-8.0209,-8.0209,-8.0209,-8.0209,-8.0209,-8.0209,-8.0209,-8.0209,-8.0209,-8.0209,-8.0209,-8.0209,-8.0175,-8.004,-7.9972,-6.6999,-6.6999,-6.6999,-6.6999,-6.6999,-6.6999,-6.6999,-6.6999,-6.6999,-6.6999,-6.6999,-6.6999,-6.6999,-6.6999,-6.6999,-6.6999,-6.6999,-6.6999,-6.6999,-6.6999,-6.6999,-6.6999,-6.7029,-6.7119,-6.7238,-6.7148,-6.7208,-6.7508,-6.7986,-6.8166,-6.8495,-6.9034,-6.9153,-6.9303,-6.9453,-6.9812,-7.0111,-7.0171,-7.05,-7.0709,-7.0739,-7.0739,-7.0739,-7.0649,-7.038,-7.0141,-7.0021,-6.9722,-6.9393,-6.9303,-6.9303,-6.9273,-6.9243,-6.9034,-6.9226,-6.9353,-7.0942,-7.2509,-7.404,-7.5385,-7.6708,-7.7927,-7.8111,-7.8145,-7.8179,-7.8382,-7.8788,-7.9058,-7.9329,-7.9498,-8.0107,-8.0175,-8.0175,-8.0209,-8.0209,-8.0209,-8.0209,-8.0209,-8.0209,-8.0209,-8.0209,-8.0209,-8.0209,-8.0209,-8.0209,-8.0209,-8.0209,-8.0209,-8.0209,-8.0209,-8.0209,-8.0209,-8.0209,-8.0209,-8.0209,-8.0209,-8.0209,-8.0209,-8.0209,-8.0209,-8.0209,-8.0209,-8.0209,-8.0209,-8.0209,-8.0209,-8.0209,-8.0209,-8.0209,-8.0209,-8.0209,-8.0209,-8.0209,-8.0209,-8.0141,-6.6999,-6.6999,-6.6999,-6.6999,-6.6999,-6.6999,-6.6999,-6.6999,-6.6999,-6.6999,-6.6999,-6.6999,-6.6999,-6.6999,-6.6999,-6.6999,-6.6999,-6.6999,-6.6999,-6.6999,-6.6999,-6.6999,-6.7178,-6.7508,-6.7777,-6.7807,-6.7897,-6.8256,-6.8675,-6.8854,-6.9183,-6.9692,-6.9812,-6.9991,-7.035,-7.0709,-7.0679,-7.062,-7.0829,-7.0889,-7.0919,-7.0919,-7.0919,-7.0889,-7.0709,-7.0679,-7.0709,-7.062,-7.059,-7.059,-7.059,-7.056,-7.0483,-6.9763,-6.9877,-7.0922,-7.2289,-7.3756,-7.5298,-7.6686,-7.758,-7.8062,-7.8585,-7.8889,-7.9058,-7.9397,-7.9634,-7.9803,-7.9938,-8.0073,-8.0175,-8.0209,-8.0209,-8.0209,-8.0209,-8.0209,-8.0209,-8.0209,-8.0209,-8.0209,-8.0209,-8.0209,-8.0209,-8.0209,-8.0209,-8.0209,-8.0209,-8.0209,-8.0209,-8.0209,-8.0209,-8.0209,-8.0209,-8.0209,-8.0209,-8.0209,-8.0209,-8.0209,-8.0209,-8.0209,-8.0209,-8.0209,-8.0209,-8.0209,-8.0209,-8.0209,-8.0209,-8.0209,-8.0209,-8.0209,-8.0209,-8.0209,-8.0209,-8.0209,-8.0209,-6.6999,-6.6999,-6.6999,-6.6999,-6.6999,-6.6999,-6.6999,-6.6999,-6.6999,-6.6999,-6.6999,-6.6999,-6.6999,-6.6999,-6.6999,-6.6999,-6.6999,-6.6999,-6.6999,-6.6999,-6.6999,-6.7208,-6.7448,-6.7867,-6.8435,-6.8824,-6.9034,-6.9123,-6.9453,-6.9512,-6.9842,-7.032,-7.047,-7.062,-7.0829,-7.0859,-7.0919,-7.0919,-7.0919,-7.0919,-7.0919,-7.0919,-7.0919,-7.0919,-7.0919,-7.0919,-7.0919,-7.0919,-7.0889,-7.0889,-7.0889,-7.1375,-7.1643,-7.1716,-7.1537,-7.248,-7.3776,-7.5288,-7.658,-7.7718,-7.8198,-7.906,-7.9498,-7.9634,-7.9735,-7.9938,-8.0175,-8.0209,-8.0209,-8.0209,-8.0209,-8.0209,-8.0209,-8.0209,-8.0209,-8.0209,-8.0209,-8.0209,-8.0209,-8.0209,-8.0209,-8.0209,-8.0209,-8.0209,-8.0209,-8.0209,-8.0209,-8.0209,-8.0209,-8.0209,-8.0209,-8.0209,-8.0209,-8.0209,-8.0209,-8.0209,-8.0209,-8.0209,-8.0209,-8.0209,-8.0209,-8.0209,-8.0209,-8.0209,-8.0209,-8.0209,-8.0209,-8.0209,-8.0209,-8.0209,-8.0209,-8.0209,-8.0209,-8.0209,-8.0209,-6.6999,-6.6999,-6.6999,-6.6999,-6.6999,-6.6999,-6.6999,-6.6999,-6.6999,-6.6999,-6.6999,-6.6999,-6.6999,-6.6999,-6.6999,-6.6999,-6.6999,-6.6999,-6.6999,-6.7029,-6.7208,-6.7508,-6.7867,-6.8405,-6.8944,-6.9632,-7.0021,-7.0171,-7.0141,-7.0171,-7.047,-7.0709,-7.0889,-7.0919,-7.0919,-7.0919,-7.0919,-7.0919,-7.0919,-7.0919,-7.0919,-7.0919,-7.0919,-7.0919,-7.0919,-7.0919,-7.0919,-7.0919,-7.0919,-7.0919,-7.1018,-7.1601,-7.3046,-7.3567,-7.3899,-7.4379,-7.5438,-7.6748,-7.7957,-7.8438,-7.9053,-7.9837,-8.0107,-8.0175,-8.0141,-8.0141,-8.0209,-8.0209,-8.0209,-8.0209,-8.0209,-8.0209,-8.0209,-8.0209,-8.0209,-8.0209,-8.0209,-8.0209,-8.0209,-8.0209,-8.0209,-8.0209,-8.0209,-8.0209,-8.0209,-8.0209,-8.0209,-8.0209,-8.0209,-8.0209,-8.0209,-8.0209,-8.0209,-8.0209,-8.0209,-8.0209,-8.0209,-8.0209,-8.0209,-8.0209,-8.0209,-8.0209,-8.0209,-8.0209,-8.0209,-8.0209,-8.0209,-8.0209,-8.0209,-8.0209,-8.0209,-8.0209,-8.0209,-8.0209,-8.0209,-6.6999,-6.6999,-6.6999,-6.6999,-6.6999,-6.6999,-6.6999,-6.6999,-6.6999,-6.6999,-6.6999,-6.6999,-6.6999,-6.6999,-6.6999,-6.6999,-6.6999,-6.6999,-6.7029,-6.7148,-6.7537,-6.7897,-6.8288,-6.9303,-6.9602,-7.0141,-7.053,-7.0769,-7.0709,-7.0709,-7.0769,-7.0889,-7.0919,-7.0919,-7.0919,-7.0919,-7.0919,-7.0919,-7.0919,-7.0919,-7.0919,-7.0919,-7.0919,-7.0919,-7.0919,-7.0919,-7.0919,-7.0919,-7.0919,-7.0919,-7.0919,-7.1665,-7.3169,-7.4676,-7.5981,-7.6916,-7.7719,-7.8291,-7.9443,-7.9683,-7.9683,-8.0124,-8.0209,-8.0209,-8.0209,-8.0209,-8.0209,-8.0209,-8.0209,-8.0209,-8.0209,-8.0209,-8.0209,-8.0209,-8.0209,-8.0209,-8.0209,-8.0209,-8.0209,-8.0209,-8.0209,-8.0209,-8.0209,-8.0209,-8.0209,-8.0209,-8.0209,-8.0209,-8.0209,-8.0209,-8.0209,-8.0209,-8.0209,-8.0209,-8.0209,-8.0209,-8.0209,-8.0209,-8.0209,-8.0209,-8.0209,-8.0209,-8.0209,-8.0209,-8.0209,-8.0209,-8.0209,-8.0209,-8.0209,-8.0209,-8.0209,-8.0209,-8.0209,-8.0209,-8.0209,-6.6999,-6.6999,-6.6999,-6.6999,-6.6999,-6.6999,-6.6999,-6.6999,-6.6999,-6.6999,-6.6999,-6.6999,-6.6999,-6.6999,-6.6999,-6.6999,-6.6999,-6.6999,-6.7238,-6.7508,-6.7897,-6.8375,-6.9123,-6.9722,-7.0081,-7.05,-7.0739,-7.0829,-7.0919,-7.0919,-7.0919,-7.0919,-7.0919,-7.0919,-7.0919,-7.0919,-7.0919,-7.0919,-7.0919,-7.0919,-7.0919,-7.0919,-7.0919,-7.0919,-7.0919,-7.0919,-7.0919,-7.0919,-7.0919,-7.0919,-7.0919,-7.1665,-7.32,-7.4735,-7.6266,-7.7719,-7.875,-7.9443,-8.0074,-8.0209,-8.0209,-8.0209,-8.0209,-8.0209,-8.0209,-8.0209,-8.0209,-8.0209,-8.0209,-8.0209,-8.0209,-8.0209,-8.0209,-8.0209,-8.0209,-8.0209,-8.0209,-8.0209,-8.0209,-8.0209,-8.0209,-8.0209,-8.0209,-8.0209,-8.0209,-8.0209,-8.0209,-8.0209,-8.0209,-8.0209,-8.0209,-8.0209,-8.0209,-8.0209,-8.0209,-8.0209,-8.0209,-8.0209,-8.0209,-8.0209,-8.0209,-8.0209,-8.0209,-8.0209,-8.0209,-8.0209,-8.0209,-8.0209,-8.0209,-8.0209,-8.0209,-8.0209,-8.0209,-8.0209,-8.0209,-6.6999,-6.6999,-6.6999,-6.6999,-6.6999,-6.6999,-6.6999,-6.6999,-6.6999,-6.6999,-6.6999,-6.6999,-6.6999,-6.6999,-6.6999,-6.6999,-6.6999,-6.7148,-6.7508,-6.7897,-6.8405,-6.9064,-6.9692,-7.0111,-7.047,-7.0919,-7.0859,-7.0919,-7.0919,-7.0919,-7.0919,-7.0919,-7.0919,-7.0919,-7.0919,-7.0919,-7.0919,-7.0919,-7.0919,-7.0919,-7.0919,-7.0919,-7.0919,-7.0919,-7.0919,-7.0919,-7.0919,-7.0919,-7.0919,-7.0919,-7.0919,-7.1792,-7.3839,-7.5056,-7.6692,-7.8238,-7.958,-7.9972,-8.0158,-8.0209,-8.0209,-8.0209,-8.0209,-8.0209,-8.0209,-8.0209,-8.0209,-8.0209,-8.0209,-8.0209,-8.0209,-8.0209,-8.0209,-8.0209,-8.0209,-8.0209,-8.0209,-8.0209,-8.0209,-8.0209,-8.0209,-8.0209,-8.0209,-8.0209,-8.0209,-8.0209,-8.0209,-8.0209,-8.0209,-8.0209,-8.0209,-8.0209,-8.0209,-8.0209,-8.0209,-8.0209,-8.0209,-8.0209,-8.0209,-8.0209,-8.0209,-8.0209,-8.0209,-8.0209,-8.0209,-8.0209,-8.0209,-8.0209,-8.0209,-8.0209,-8.0209,-8.0209,-8.0209,-8.0209,-8.0209,-6.6999,-6.6999,-6.6999,-6.6999,-6.6999,-6.6999,-6.6999,-6.6999,-6.6999,-6.6999,-6.6999,-6.6999,-6.6999,-6.6999,-6.6999,-6.7029,-6.7059,-6.7627,-6.7956,-6.8465,-6.9153,-6.9722,-7.0171,-7.05,-7.0799,-7.0889,-7.0919,-7.0919,-7.0919,-7.0919,-7.0919,-7.0919,-7.0919,-7.0919,-7.0919,-7.0919,-7.0919,-7.0919,-7.0919,-7.0919,-7.0919,-7.0919,-7.0919,-7.0919,-7.0919,-7.0919,-7.0919,-7.0919,-7.0919,-7.0919,-7.0919,-7.2078,-7.414,-7.5231,-7.6804,-7.875,-7.9836,-8.0158,-8.0209,-8.0209,-8.0209,-8.0209,-8.0209,-8.0209,-8.0209,-8.0209,-8.0209,-8.0209,-8.0209,-8.0209,-8.0209,-8.0209,-8.0209,-8.0209,-8.0209,-8.0209,-8.0209,-8.0209,-8.0209,-8.0209,-8.0209,-8.0209,-8.0209,-8.0209,-8.0209,-8.0209,-8.0209,-8.0209,-8.0209,-8.0209,-8.0209,-8.0209,-8.0209,-8.0209,-8.0209,-8.0209,-8.0209,-8.0209,-8.0209,-8.0209,-8.0209,-8.0209,-8.0209,-8.0209,-8.0209,-8.0209,-8.0209,-8.0209,-8.0209,-8.0209,-8.0209,-8.0209,-8.0209,-8.0209,-8.0209,-6.6999,-6.6999,-6.6999,-6.6999,-6.6999,-6.6999,-6.6999,-6.6999,-6.6999,-6.6999,-6.6999,-6.6999,-6.6999,-6.6999,-6.7029,-6.7238,-6.7567,-6.7807,-6.8435,-6.9123,-6.9752,-7.0171,-7.05,-7.0709,-7.0889,-7.0919,-7.0919,-7.0919,-7.0919,-7.0919,-7.0919,-7.0919,-7.0919,-7.0919,-7.0919,-7.0919,-7.0919,-7.0919,-7.0919,-7.0919,-7.0919,-7.0919,-7.0919,-7.0919,-7.0919,-7.0919,-7.0919,-7.0919,-7.0919,-7.0954,-7.0954,-7.2487,-7.4379,-7.5231,-7.686,-7.8836,-7.9734,-8.0158,-8.0209,-8.0209,-8.0209,-8.0209,-8.0209,-8.0209,-8.0209,-8.0209,-8.0209,-8.0209,-8.0209,-8.0209,-8.0209,-8.0209,-8.0209,-8.0209,-8.0209,-8.0209,-8.0209,-8.0209,-8.0209,-8.0209,-8.0209,-8.0209,-8.0209,-8.0209,-8.0209,-8.0209,-8.0209,-8.0209,-8.0209,-8.0209,-8.0209,-8.0209,-8.0209,-8.0209,-8.0209,-8.0209,-8.0209,-8.0209,-8.0209,-8.0209,-8.0209,-8.0209,-8.0209,-8.0209,-8.0209,-8.0209,-8.0209,-8.0209,-8.0209,-8.0209,-8.0209,-8.0209,-8.0209,-8.0209,-8.0209,-6.6999,-6.6999,-6.6999,-6.6999,-6.6999,-6.6999,-6.6999,-6.6999,-6.6999,-6.6999,-6.6999,-6.6999,-6.6999,-6.7029,-6.7268,-6.7478,-6.7986,-6.8465,-6.9153,-6.9722,-7.0171,-7.05,-7.0769,-7.0919,-7.0919,-7.0919,-7.0919,-7.0919,-7.0919,-7.0919,-7.0919,-7.0919,-7.0919,-7.0919,-7.0919,-7.0919,-7.0919,-7.0919,-7.0919,-7.0919,-7.0919,-7.0919,-7.0919,-7.0919,-7.0919,-7.0919,-7.0919,-7.0954,-7.1311,-7.1537,-7.1952,-7.286,-7.4319,-7.5752,-7.7027,-7.8345,-7.9443,-8.0158,-8.0209,-8.0209,-8.0209,-8.0209,-8.0209,-8.0209,-8.0209,-8.0209,-8.0209,-8.0209,-8.0209,-8.0209,-8.0209,-8.0209,-8.0209,-8.0209,-8.0209,-8.0209,-8.0209,-8.0209,-8.0209,-8.0209,-8.0209,-8.0209,-8.0209,-8.0209,-8.0209,-8.0209,-8.0209,-8.0209,-8.0209,-8.0209,-8.0209,-8.0209,-8.0209,-8.0209,-8.0209,-8.0209,-8.0209,-8.0209,-8.0209,-8.0209,-8.0209,-8.0209,-8.0209,-8.0209,-8.0209,-8.0209,-8.0209,-8.0209,-8.0209,-8.0209,-8.0209,-8.0209,-8.0209,-8.0209,-8.0209,-6.6999,-6.6999,-6.6999,-6.6999,-6.6999,-6.6999,-6.6999,-6.6999,-6.6999,-6.6999,-6.6999,-6.6999,-6.6999,-6.7119,-6.7508,-6.7926,-6.8345,-6.9243,-6.9931,-7.0141,-7.053,-7.0829,-7.0889,-7.0919,-7.0919,-7.0919,-7.0919,-7.0919,-7.0919,-7.0919,-7.0919,-7.0919,-7.0919,-7.0919,-7.0919,-7.0919,-7.0919,-7.0919,-7.0919,-7.0919,-7.0919,-7.0919,-7.0919,-7.0919,-7.0919,-7.0919,-7.1375,-7.1375,-7.1952,-7.2984,-7.32,-7.4498,-7.6804,-7.7248,-7.8291,-7.9734,-8.0023,-8.0209,-8.0209,-8.0209,-8.0209,-8.0209,-8.0209,-8.0209,-8.0209,-8.0209,-8.0209,-8.0209,-8.0209,-8.0209,-8.0209,-8.0209,-8.0209,-8.0209,-8.0209,-8.0209,-8.0209,-8.0209,-8.0209,-8.0209,-8.0209,-8.0209,-8.0209,-8.0209,-8.0209,-8.0209,-8.0209,-8.0209,-8.0209,-8.0209,-8.0209,-8.0209,-8.0209,-8.0209,-8.0209,-8.0209,-8.0209,-8.0209,-8.0209,-8.0209,-8.0209,-8.0209,-8.0209,-8.0209,-8.0209,-8.0209,-8.0209,-8.0209,-8.0209,-8.0209,-8.0209,-8.0209,-8.0209,-8.0209,-8.0209,-6.6999,-6.6999,-6.6999,-6.6999,-6.6999,-6.6999,-6.6999,-6.6999,-6.6999,-6.6999,-6.6999,-6.6999,-6.6999,-6.7178,-6.7717,-6.8256,-6.8824,-6.9423,-7.0081,-7.059,-7.0829,-7.0859,-7.0919,-7.0919,-7.0919,-7.0919,-7.0919,-7.0919,-7.0919,-7.0919,-7.0919,-7.0919,-7.0919,-7.0919,-7.0919,-7.0919,-7.0919,-7.0919,-7.0919,-7.0919,-7.0919,-7.0919,-7.0889,-7.0954,-7.1018,-7.1503,-7.2393,-7.2425,-7.323,-7.4494,-7.4821,-7.5924,-7.7665,-7.8077,-7.8697,-7.9836,-8.0209,-8.0209,-8.0209,-8.0209,-8.0209,-8.0209,-8.0209,-8.0209,-8.0209,-8.0209,-8.0209,-8.0209,-8.0209,-8.0209,-8.0209,-8.0209,-8.0209,-8.0209,-8.0209,-8.0209,-8.0209,-8.0209,-8.0209,-8.0209,-8.0209,-8.0209,-8.0209,-8.0209,-8.0209,-8.0209,-8.0209,-8.0209,-8.0209,-8.0209,-8.0209,-8.0209,-8.0209,-8.0209,-8.0209,-8.0209,-8.0209,-8.0209,-8.0209,-8.0209,-8.0209,-8.0209,-8.0209,-8.0209,-8.0209,-8.0209,-8.0209,-8.0209,-8.0209,-8.0209,-8.0209,-8.0209,-8.0209,-8.0209,-8.0209,-6.6999,-6.6999,-6.6999,-6.6999,-6.6999,-6.6999,-6.6999,-6.6999,-6.6999,-6.6999,-6.6999,-6.6999,-6.7148,-6.7478,-6.8016,-6.8704,-6.9363,-7.0021,-7.038,-7.0889,-7.0919,-7.0919,-7.0919,-7.0919,-7.0919,-7.0919,-7.0919,-7.0919,-7.0919,-7.0919,-7.0919,-7.0919,-7.0919,-7.0919,-7.0919,-7.0919,-7.0919,-7.0919,-7.0919,-7.0919,-7.0919,-7.0954,-7.1182,-7.1601,-7.2015,-7.2487,-7.3596,-7.4288,-7.4731,-7.5867,-7.6604,-7.7138,-7.8184,-7.8802,-7.9202,-7.9972,-8.0209,-8.0209,-8.0209,-8.0209,-8.0209,-8.0209,-8.0209,-8.0209,-8.0209,-8.0209,-8.0209,-8.0209,-8.0209,-8.0209,-8.0209,-8.0209,-8.0209,-8.0209,-8.0209,-8.0209,-8.0209,-8.0209,-8.0209,-8.0209,-8.0209,-8.0209,-8.0209,-8.0209,-8.0209,-8.0209,-8.0209,-8.0209,-8.0209,-8.0209,-8.0209,-8.0209,-8.0209,-8.0209,-8.0209,-8.0209,-8.0209,-8.0209,-8.0209,-8.0209,-8.0209,-8.0209,-8.0209,-8.0209,-8.0209,-8.0209,-8.0209,-8.0209,-8.0209,-8.0209,-8.0209,-8.0209,-8.0209,-8.0209,-8.0209,-6.6999,-6.6999,-6.6999,-6.6999,-6.6999,-6.6999,-6.6999,-6.6999,-6.6999,-6.6999,-6.7059,-6.7119,-6.7448,-6.8076,-6.8734,-6.9333,-6.9901,-7.053,-7.0769,-7.0889,-7.0919,-7.0919,-7.0919,-7.0919,-7.0919,-7.0919,-7.0919,-7.0919,-7.0919,-7.0919,-7.0919,-7.0919,-7.0919,-7.0919,-7.0919,-7.0919,-7.0919,-7.0919,-7.0919,-7.0919,-7.0919,-7.1182,-7.1889,-7.255,-7.32,-7.4168,-7.5115,-7.5752,-7.6548,-7.7413,-7.799,-7.8855,-7.9632,-8.0158,-8.0209,-8.0209,-8.0209,-8.0209,-8.0209,-8.0209,-8.0209,-8.0209,-8.0209,-8.0209,-8.0209,-8.0209,-8.0209,-8.0209,-8.0209,-8.0209,-8.0209,-8.0209,-8.0209,-8.0209,-8.0209,-8.0209,-8.0209,-8.0209,-8.0209,-8.0209,-8.0209,-8.0209,-8.0209,-8.0209,-8.0209,-8.0209,-8.0209,-8.0209,-8.0209,-8.0209,-8.0209,-8.0209,-8.0209,-8.0209,-8.0209,-8.0209,-8.0209,-8.0209,-8.0209,-8.0209,-8.0209,-8.0209,-8.0209,-8.0209,-8.0209,-8.0209,-8.0209,-8.0209,-8.0209,-8.0209,-8.0209,-8.0209,-8.0209,-8.0209,-8.0209,-6.6999,-6.6999,-6.6999,-6.6999,-6.6999,-6.6999,-6.6999,-6.6999,-6.6999,-6.7208,-6.7687,-6.7687,-6.8076,-6.8734,-6.9393,-6.9752,-7.0171,-7.056,-7.0799,-7.0919,-7.0919,-7.0919,-7.0919,-7.0919,-7.0919,-7.0919,-7.0919,-7.0919,-7.0919,-7.0919,-7.0919,-7.0919,-7.0919,-7.0919,-7.0919,-7.0919,-7.0919,-7.0919,-7.0919,-7.1018,-7.1375,-7.1889,-7.2798,-7.3535,-7.4526,-7.5695,-7.686,-7.7193,-7.8044,-7.9098,-7.9443,-7.9972,-8.0023,-8.0209,-8.0209,-8.0209,-8.0209,-8.0209,-8.0209,-8.0209,-8.0209,-8.0209,-8.0209,-8.0209,-8.0209,-8.0209,-8.0209,-8.0209,-8.0209,-8.0209,-8.0209,-8.0209,-8.0209,-8.0209,-8.0209,-8.0209,-8.0209,-8.0209,-8.0209,-8.0209,-8.0209,-8.0209,-8.0209,-8.0209,-8.0209,-8.0209,-8.0209,-8.0209,-8.0209,-8.0209,-8.0209,-8.0209,-8.0209,-8.0209,-8.0209,-8.0209,-8.0209,-8.0209,-8.0209,-8.0209,-8.0209,-8.0209,-8.0209,-8.0209,-8.0209,-8.0209,-8.0209,-8.0209,-8.0209,-8.0209,-8.0209,-8.0209,-8.0209,-8.0209,-8.0209,-6.6999,-6.6999,-6.6999,-6.6999,-6.6999,-6.6999,-6.7119,-6.7328,-6.7388,-6.7627,-6.7986,-6.8256,-6.8734,-6.9363,-6.9782,-7.0111,-7.041,-7.0709,-7.0919,-7.0919,-7.0919,-7.0919,-7.0919,-7.0919,-7.0919,-7.0919,-7.0919,-7.0919,-7.0919,-7.0919,-7.0919,-7.0919,-7.0919,-7.0919,-7.0919,-7.0919,-7.0919,-7.0919,-7.0954,-7.1247,-7.1952,-7.283,-7.3657,-7.4998,-7.6095,-7.7248,-7.8538,-7.8697,-7.934,-8.0074,-8.0209,-8.0209,-8.0209,-8.0209,-8.0209,-8.0209,-8.0209,-8.0209,-8.0209,-8.0209,-8.0209,-8.0209,-8.0209,-8.0209,-8.0209,-8.0209,-8.0209,-8.0209,-8.0209,-8.0209,-8.0209,-8.0209,-8.0209,-8.0209,-8.0209,-8.0209,-8.0209,-8.0209,-8.0209,-8.0209,-8.0209,-8.0209,-8.0209,-8.0209,-8.0209,-8.0209,-8.0209,-8.0209,-8.0209,-8.0209,-8.0209,-8.0209,-8.0209,-8.0209,-8.0209,-8.0209,-8.0209,-8.0209,-8.0209,-8.0209,-8.0209,-8.0209,-8.0209,-8.0209,-8.0209,-8.0209,-8.0209,-8.0209,-8.0209,-8.0209,-8.0209,-8.0209,-8.0209,-8.0209,-8.0209,-6.6999,-6.6999,-6.6999,-6.6999,-6.6999,-6.7059,-6.7418,-6.7986,-6.8106,-6.8166,-6.8345,-6.8824,-6.9423,-6.9991,-7.0171,-7.044,-7.0649,-7.0859,-7.0919,-7.0919,-7.0919,-7.0919,-7.0919,-7.0919,-7.0919,-7.0919,-7.0919,-7.0919,-7.0919,-7.0919,-7.0919,-7.0919,-7.0919,-7.0919,-7.0919,-7.0919,-7.0919,-7.0919,-7.1083,-7.1439,-7.2798,-7.3749,-7.4821,-7.7138,-7.8077,-7.8697,-7.9683,-8.0124,-8.0209,-8.0209,-8.0209,-8.0209,-8.0209,-8.0209,-8.0209,-8.0209,-8.0209,-8.0209,-8.0209,-8.0209,-8.0209,-8.0209,-8.0209,-8.0209,-8.0209,-8.0209,-8.0209,-8.0209,-8.0209,-8.0209,-8.0209,-8.0209,-8.0209,-8.0209,-8.0209,-8.0209,-8.0209,-8.0209,-8.0209,-8.0209,-8.0209,-8.0209,-8.0209,-8.0209,-8.0209,-8.0209,-8.0209,-8.0209,-8.0209,-8.0209,-8.0209,-8.0209,-8.0209,-8.0209,-8.0209,-8.0209,-8.0209,-8.0209,-8.0209,-8.0209,-8.0209,-8.0209,-8.0209,-8.0209,-8.0209,-8.0209,-8.0209,-8.0209,-8.0209,-8.0209,-8.0209,-8.0209,-8.0209,-8.0209,-8.0209,-6.6999,-6.6999,-6.6999,-6.6999,-6.7059,-6.7537,-6.7807,-6.8076,-6.9093,-6.9453,-6.9542,-6.9692,-7.0081,-7.053,-7.059,-7.0769,-7.0829,-7.0919,-7.0919,-7.0919,-7.0919,-7.0919,-7.0919,-7.0919,-7.0919,-7.0919,-7.0919,-7.0919,-7.0919,-7.0919,-7.0919,-7.0919,-7.0919,-7.0919,-7.0919,-7.0919,-7.0919,-7.0919,-7.1247,-7.1952,-7.3322,-7.4703,-7.6038,-7.7828,-7.8802,-7.9495,-8.0209,-8.0209,-8.0209,-8.0209,-8.0209,-8.0209,-8.0209,-8.0209,-8.0209,-8.0209,-8.0209,-8.0209,-8.0209,-8.0209,-8.0209,-8.0209,-8.0209,-8.0209,-8.0209,-8.0209,-8.0209,-8.0209,-8.0209,-8.0209,-8.0209,-8.0209,-8.0209,-8.0209,-8.0209,-8.0209,-8.0209,-8.0209,-8.0209,-8.0209,-8.0209,-8.0209,-8.0209,-8.0209,-8.0209,-8.0209,-8.0209,-8.0209,-8.0209,-8.0209,-8.0209,-8.0209,-8.0209,-8.0209,-8.0209,-8.0209,-8.0209,-8.0209,-8.0209,-8.0209,-8.0209,-8.0209,-8.0209,-8.0209,-8.0209,-8.0209,-8.0209,-8.0209,-8.0209,-8.0209,-8.0209,-8.0209,-8.0209,-8.0209,-8.0209,-6.6999,-6.6999,-6.6999,-6.6999,-6.7119,-6.7687,-6.8136,-6.8585,-6.9542,-7.0141,-7.038,-7.041,-7.059,-7.0889,-7.0889,-7.0919,-7.0919,-7.0919,-7.0919,-7.0919,-7.0919,-7.0919,-7.0919,-7.0919,-7.0919,-7.0919,-7.0919,-7.0919,-7.0919,-7.0919,-7.0919,-7.0919,-7.0919,-7.0919,-7.0919,-7.0919,-7.0919,-7.0889,-7.1439,-7.2736,-7.3988,-7.529,-7.6916,-7.8452,-7.9632,-8.0209,-8.0209,-8.0209,-8.0209,-8.0209,-8.0209,-8.0209,-8.0209,-8.0209,-8.0209,-8.0209,-8.0209,-8.0209,-8.0209,-8.0209,-8.0209,-8.0209,-8.0209,-8.0209,-8.0209,-8.0209,-8.0209,-8.0209,-8.0209,-8.0209,-8.0209,-8.0209,-8.0209,-8.0209,-8.0209,-8.0209,-8.0209,-8.0209,-8.0209,-8.0209,-8.0209,-8.0209,-8.0209,-8.0209,-8.0209,-8.0209,-8.0209,-8.0209,-8.0209,-8.0209,-8.0209,-8.0209,-8.0209,-8.0209,-8.0209,-8.0209,-8.0209,-8.0209,-8.0209,-8.0209,-8.0209,-8.0209,-8.0209,-8.0209,-8.0209,-8.0209,-8.0209,-8.0209,-8.0209,-8.0209,-8.0209,-8.0209,-8.0209,-8.0209,-8.0209,-6.6999,-6.6999,-6.6999,-6.7059,-6.7208,-6.7837,-6.8495,-6.9183,-6.9842,-7.041,-7.0799,-7.0859,-7.0919,-7.0919,-7.0919,-7.0919,-7.0919,-7.0919,-7.0919,-7.0919,-7.0919,-7.0919,-7.0919,-7.0919,-7.0919,-7.0919,-7.0919,-7.0919,-7.0919,-7.0919,-7.0919,-7.0919,-7.0919,-7.0919,-7.0919,-7.0919,-7.0919,-7.1311,-7.2141,-7.3899,-7.4939,-7.5867,-7.7665,-7.9202,-8.0209,-8.0209,-8.0209,-8.0209,-8.0209,-8.0209,-8.0209,-8.0209,-8.0209,-8.0209,-8.0209,-8.0209,-8.0209,-8.0209,-8.0209,-8.0209,-8.0209,-8.0209,-8.0209,-8.0209,-8.0209,-8.0209,-8.0209,-8.0209,-8.0209,-8.0209,-8.0209,-8.0209,-8.0209,-8.0209,-8.0209,-8.0209,-8.0209,-8.0209,-8.0209,-8.0209,-8.0209,-8.0209,-8.0209,-8.0209,-8.0209,-8.0209,-8.0209,-8.0209,-8.0209,-8.0209,-8.0209,-8.0209,-8.0209,-8.0209,-8.0209,-8.0209,-8.0209,-8.0209,-8.0209,-8.0209,-8.0209,-8.0209,-8.0209,-8.0209,-8.0209,-8.0209,-8.0209,-8.0209,-8.0209,-8.0209,-8.0209,-8.0209,-8.0209,-8.0209,-8.0209,-6.6999,-6.6999,-6.6999,-6.7298,-6.7837,-6.8495,-6.9183,-6.9842,-7.044,-7.0829,-7.0889,-7.0919,-7.0919,-7.0919,-7.0919,-7.0919,-7.0919,-7.0919,-7.0919,-7.0919,-7.0919,-7.0919,-7.0919,-7.0919,-7.0919,-7.0919,-7.0919,-7.0919,-7.0919,-7.0919,-7.0919,-7.0919,-7.0919,-7.0919,-7.0919,-7.0919,-7.0954,-7.1439,-7.2612,-7.4259,-7.5637,-7.6804,-7.8345,-7.9495,-8.0209,-8.0209,-8.0209,-8.0209,-8.0209,-8.0209,-8.0209,-8.0209,-8.0209,-8.0209,-8.0209,-8.0209,-8.0209,-8.0209,-8.0209,-8.0209,-8.0209,-8.0209,-8.0209,-8.0209,-8.0209,-8.0209,-8.0209,-8.0209,-8.0209,-8.0209,-8.0209,-8.0209,-8.0209,-8.0209,-8.0209,-8.0209,-8.0209,-8.0209,-8.0209,-8.0209,-8.0209,-8.0209,-8.0209,-8.0209,-8.0209,-8.0209,-8.0209,-8.0209,-8.0209,-8.0209,-8.0209,-8.0209,-8.0209,-8.0209,-8.0209,-8.0209,-8.0209,-8.0209,-8.0209,-8.0209,-8.0209,-8.0209,-8.0209,-8.0209,-8.0209,-8.0209,-8.0209,-8.0209,-8.0209,-8.0209,-8.0209,-8.0209,-8.0209,-8.0209,-8.0209]},{"header":{"parameterUnit":"m.s-1","parameterCategory":1,"la1":31.0,"la2":29.5877,"lo1":-88.7671,"lo2":-86.6584,"dy":0.0162,"dx":0.0185,"nx":115,"ny":88,"refTime":"2023-02-23T18:00:00:Z","depth":0,"parameterNumber":3,"parameterNumberName":"V-component_of_WINDS"},"data":[0.0,0.0,0.0,0.0,0.0,0.0,0.0,0.0,0.0,0.0,0.0,0.0,0.0,0.0,0.0,0.0,0.0,0.0,0.0,0.0,0.0,0.0,0.0,0.0,0.0,0.0,0.0,0.0,0.0,0.0,0.0,0.0,0.0,0.0,0.0,0.0,0.0,0.0,0.0,0.0,0.0,0.0,0.0,0.0,0.0,0.0,0.0,0.0,0.0,0.0,0.0,0.0,0.0,0.0,0.0,0.0,0.0,0.0,0.0,0.0,0.0,0.0,0.0,0.0,0.0,0.0,0.0,0.0,0.0,0.0,0.0,0.0,0.0,0.0,0.0,0.0,0.0,0.0,0.0,0.0,0.0,0.0,0.0,0.0,0.0,0.0,0.0,0.0,0.0,0.0,0.0,0.0,0.0,0.0,0.0,0.0,0.0,0.0,0.0,0.0,0.0,0.0,0.0,0.0,0.0,0.0,0.0,0.0,0.0,0.0,0.0,0.0,0.0,0.0,0.0,0.0,0.0,0.0,0.0,0.0,0.0,0.0,0.0,0.0,0.0,0.0,0.0,0.0,0.0,0.0,0.0,0.0,0.0,0.0,0.0,0.0,0.0,0.0,0.0,0.0,0.0,0.0,0.0,0.0,0.0,0.0,0.0,0.0,0.0,0.0,0.0,0.0,0.0,0.0,0.0,0.0,0.0,0.0,0.0,0.0,0.0,0.0,0.0,0.0,0.0,0.0,0.0,0.0,0.0,0.0,0.0,0.0,0.0,0.0,0.0,0.0,0.0,0.0,0.0,0.0,0.0,0.0,0.0,0.0,0.0,0.0,0.0,0.0,0.0,0.0,0.0,0.0,0.0,0.0,0.0,0.0,0.0,0.0,0.0,0.0,0.0,0.0,0.0,0.0,0.0,0.0,0.0,0.0,0.0,0.0,0.0,0.0,0.0,0.0,0.0,0.0,0.0,0.0,0.0,0.0,0.0,0.0,0.0,0.0,0.0,0.0,0.0,0.0,0.0,0.0,0.0,0.0,0.0,0.0,0.0,0.0,0.0,0.0,0.0,0.0,0.0,0.0,0.0,0.0,0.0,0.0,0.0,0.0,0.0,0.0,0.0,0.0,0.0,0.0,0.0,0.0,0.0,0.0,0.0,0.0,0.0,0.0,0.0,0.0,0.0,0.0,0.0,0.0,0.0,0.0,0.0,0.0,0.0,0.0,0.0,0.0,0.0,0.0,0.0,0.0,0.0,0.0,0.0,0.0,0.0,0.0,0.0,0.0,0.0,0.0,0.0,0.0,0.0,0.0,0.0,0.0,0.0,0.0,0.0,0.0,0.0,0.0,0.0,0.0,0.0,0.0,0.0,0.0,0.0,0.0,0.0,0.0,0.0,0.0,0.0,0.0,0.0,0.0,0.0,0.0,0.0,0.0,0.0,0.0,0.0,0.0,0.0,0.0,0.0,0.0,0.0,0.0,0.0,0.0,0.0,0.0,0.0,0.0,0.0,0.0,0.0,0.0,0.0,0.0,0.0,0.0,0.0,0.0,0.0,0.0,0.0,0.0,0.0,0.0,0.0,0.0,0.0,0.0,0.0,0.0,0.0,0.0,0.0,0.0,0.0,0.0,0.0,0.0,0.0,0.0,0.0,0.0,0.0,0.0,0.0,0.0,0.0,0.0,0.0,0.0,0.0,0.0,0.0,0.0,0.0,0.0,0.0,0.0,0.0,0.0,0.0,0.0,0.0,0.0,0.0,0.0,0.0,0.0,0.0,0.0,0.0,0.0,0.0,0.0,0.0,0.0,0.0,0.0,0.0,0.0,0.0,0.0,0.0,0.0,0.0,0.0,0.0,0.0,0.0,0.0,0.0,0.0,0.0,0.0,0.0,0.0,0.0,0.0,0.0,0.0,0.0,0.0,0.0,0.0,0.0,0.0,0.0,0.0,0.0,0.0,0.0,0.0,0.0,0.0,0.0,0.0,0.0,0.0,0.0,0.0,0.0,0.0,0.0,0.0,0.0,0.0,0.0,0.0,0.0,0.0,0.0,0.0,0.0,0.0,0.0,0.0,0.0,0.0,0.0,0.0,0.0,0.0,0.0,0.0,0.0,0.0,0.0,0.0,0.0,0.0,0.0,0.0,0.0,0.0,0.0,0.0,0.0,0.0,0.0,0.0,0.0,0.0,0.0,0.0,0.0,0.0,0.0,0.0,0.0,0.0,0.0,0.0,0.0,0.0,0.0,0.0,0.0,0.0,0.0,0.0,0.0,0.0,0.0,0.0,0.0,0.0,0.0,0.0,0.0,0.0,0.0,0.0,0.0,0.0,0.0,0.0,0.0,0.0,0.0,0.0,0.0,0.0,0.0,0.0,0.0,0.0,0.0,0.0,0.0,0.0,0.0,0.0,0.0,0.0,0.0,0.0,0.0,0.0,0.0,0.0,0.0,0.0,0.0,0.0,0.0,0.0,0.0,0.0,0.0,0.0,0.0,0.0,0.0,0.0,0.0,0.0,0.0,0.0,0.0,0.0,0.0,0.0,0.0,0.0,0.0,0.0,0.0,0.0,0.0,0.0,0.0,0.0,0.0,0.0,0.0,0.0,0.0,0.0,0.0,0.0,0.0,0.0,0.0,0.0,0.0,0.0,0.0,0.0,0.0,0.0,0.0,0.0,0.0,0.0,0.0,0.0,0.0,0.0,0.0,0.0,0.0,0.0,0.0,0.0,0.0,0.0,0.0,0.0,0.0,0.0,0.0,0.0,0.0,0.0,0.0,0.0,0.0,0.0,0.0,0.0,0.0,0.0,0.0,0.0,0.0,0.0,0.0,0.0,0.0,0.0,0.0,0.0,0.0,0.0,0.0,0.0,0.0,0.0,0.0,0.0,0.0,0.0,0.0,0.0,0.0,0.0,0.0,0.0,0.0,0.0,0.0,0.0,0.0,0.0,0.0,0.0,0.0,0.0,0.0,0.0,0.0,0.0,0.0,0.0,0.0,0.0,0.0,0.0,0.0,0.0,0.0,0.0,0.0,0.0,0.0,0.0,0.0,0.0,0.0,0.0,0.0,0.0,0.0,0.0,0.0,0.0,0.0,0.0,0.0,0.0,0.0,0.0,0.0,0.0,0.0,0.0,0.0,0.0,0.0,0.0,0.0,0.0,0.0,0.0,0.0,0.0,0.0,0.0,0.0,0.0,0.0,0.0,0.0,0.0,0.0,0.0,0.0,0.0,0.0,0.0,0.0,0.0,0.0,0.0,0.0,0.0,0.0,0.0,0.0,0.0,0.0,0.0,0.0,0.0,0.0,0.0,0.0,0.0,0.0,0.0,0.0,0.0,0.0,0.0,0.0,0.0,0.0,0.0,0.0,0.0,0.0,0.0,0.0,0.0,0.0,0.0,0.0,0.0,0.0,0.0,0.0,0.0,0.0,0.0,0.0,0.0,0.0,0.0,0.0,0.0,0.0,0.0,0.0,0.0,0.0,0.0,0.0,0.0,0.0,0.0,0.0,0.0,0.0,0.0,0.0,0.0,0.0,0.0,0.0,0.0,0.0,0.0,0.0,0.0,0.0,0.0,0.0,0.0,0.0,0.0,0.0,0.0,0.0,0.0,0.0,0.0,0.0,0.0,0.0,0.0,0.0,0.0,0.0,0.0,0.0,0.0,0.0,0.0,0.0,0.0,0.0,0.0,0.0,0.0,0.0,0.0,0.0,0.0,0.0,0.0,0.0,0.0,0.0,0.0,0.0,0.0,0.0,0.0,0.0,0.0,0.0,0.0,0.0,0.0,0.0,0.0,0.0,0.0,0.0,0.0,0.0,0.0,0.0,0.0,0.0,0.0,0.0,0.0,0.0,0.0,0.0,0.0,0.0,0.0,0.0,0.0,0.0,0.0,0.0,0.0,0.0,0.0,0.0,0.0,0.0,0.0,0.0,0.0,0.0,0.0,0.0,0.0,0.0,0.0,0.0,0.0,0.0,0.0,0.0,0.0,0.0,0.0,0.0,0.0,0.0,0.0,0.0,0.0,0.0,0.0,0.0,0.0,0.0,0.0,0.0,0.0,0.0,0.0,0.0,0.0,0.0,0.0,0.0,0.0,0.0,0.0,0.0,0.0,0.0,0.0,0.0,0.0,0.0,0.0,0.0,0.0,0.0,0.0,0.0,0.0,0.0,0.0,0.0,0.0,0.0,0.0,0.0,0.0,0.0,0.0,0.0,0.0,0.0,0.0,0.0,0.0,0.0,0.0,0.0,0.0,0.0,0.0,0.0,0.0,0.0,0.0,-6.6112,0.0,0.0,0.0,0.0,0.0,0.0,0.0,0.0,0.0,0.0,0.0,0.0,0.0,0.0,0.0,0.0,0.0,0.0,0.0,0.0,0.0,0.0,0.0,0.0,0.0,0.0,0.0,0.0,0.0,0.0,0.0,0.0,0.0,0.0,0.0,0.0,0.0,0.0,0.0,0.0,0.0,0.0,0.0,0.0,0.0,0.0,0.0,0.0,0.0,0.0,0.0,0.0,0.0,0.0,0.0,0.0,0.0,0.0,0.0,0.0,0.0,0.0,0.0,0.0,0.0,0.0,0.0,0.0,0.0,0.0,0.0,0.0,0.0,0.0,0.0,0.0,0.0,0.0,0.0,0.0,0.0,0.0,0.0,0.0,0.0,0.0,0.0,0.0,0.0,0.0,0.0,0.0,0.0,0.0,0.0,0.0,0.0,0.0,0.0,0.0,0.0,0.0,0.0,0.0,0.0,0.0,0.0,0.0,0.0,0.0,-6.6112,-6.6112,-6.6112,-6.6112,-6.6112,0.0,0.0,0.0,0.0,0.0,0.0,0.0,0.0,0.0,0.0,0.0,0.0,0.0,0.0,0.0,0.0,0.0,0.0,0.0,0.0,0.0,0.0,0.0,0.0,0.0,0.0,0.0,0.0,0.0,0.0,0.0,0.0,0.0,0.0,0.0,0.0,0.0,0.0,0.0,0.0,0.0,0.0,0.0,0.0,0.0,0.0,0.0,0.0,0.0,0.0,0.0,0.0,0.0,0.0,0.0,0.0,0.0,0.0,0.0,0.0,0.0,0.0,0.0,0.0,0.0,0.0,0.0,0.0,0.0,0.0,0.0,0.0,0.0,0.0,0.0,0.0,0.0,0.0,0.0,0.0,0.0,0.0,0.0,0.0,0.0,0.0,0.0,0.0,0.0,0.0,0.0,0.0,0.0,0.0,0.0,0.0,0.0,0.0,0.0,0.0,0.0,0.0,0.0,0.0,0.0,0.0,0.0,0.0,0.0,0.0,0.0,0.0,-6.6112,-6.6112,-6.6112,0.0,0.0,0.0,0.0,0.0,0.0,0.0,0.0,0.0,0.0,0.0,0.0,0.0,0.0,0.0,0.0,0.0,0.0,0.0,0.0,0.0,0.0,0.0,0.0,0.0,0.0,0.0,0.0,0.0,0.0,0.0,0.0,0.0,0.0,0.0,0.0,0.0,0.0,0.0,0.0,0.0,0.0,0.0,0.0,0.0,0.0,0.0,0.0,0.0,0.0,0.0,0.0,0.0,0.0,0.0,0.0,0.0,0.0,0.0,0.0,0.0,0.0,0.0,0.0,0.0,0.0,0.0,0.0,0.0,0.0,0.0,0.0,0.0,0.0,0.0,0.0,0.0,0.0,0.0,0.0,0.0,0.0,0.0,0.0,0.0,0.0,0.0,0.0,0.0,0.0,0.0,0.0,0.0,0.0,0.0,0.0,0.0,0.0,0.0,0.0,0.0,0.0,0.0,0.0,0.0,0.0,0.0,0.0,0.0,0.0,-6.6112,-6.6112,-6.6112,0.0,-6.6112,0.0,0.0,0.0,0.0,0.0,0.0,0.0,0.0,0.0,0.0,0.0,0.0,0.0,0.0,0.0,0.0,0.0,0.0,0.0,0.0,0.0,0.0,0.0,0.0,0.0,0.0,0.0,0.0,0.0,0.0,0.0,0.0,0.0,0.0,0.0,0.0,0.0,0.0,0.0,0.0,0.0,0.0,0.0,0.0,0.0,0.0,0.0,0.0,0.0,0.0,0.0,0.0,0.0,0.0,0.0,0.0,0.0,0.0,0.0,0.0,0.0,0.0,0.0,0.0,0.0,0.0,0.0,0.0,0.0,0.0,0.0,0.0,0.0,0.0,0.0,0.0,0.0,0.0,0.0,0.0,0.0,0.0,0.0,0.0,0.0,0.0,0.0,0.0,0.0,0.0,0.0,0.0,0.0,0.0,0.0,0.0,0.0,0.0,0.0,0.0,0.0,0.0,0.0,0.0,0.0,0.0,0.0,0.0,0.0,0.0,-6.6112,-6.6112,-6.6112,-6.6112,0.0,0.0,0.0,0.0,0.0,0.0,0.0,0.0,0.0,0.0,0.0,0.0,0.0,0.0,0.0,0.0,0.0,0.0,0.0,0.0,0.0,0.0,0.0,0.0,0.0,0.0,0.0,0.0,0.0,0.0,0.0,0.0,0.0,0.0,0.0,0.0,0.0,0.0,0.0,0.0,0.0,0.0,0.0,0.0,0.0,0.0,0.0,0.0,0.0,0.0,0.0,0.0,0.0,0.0,0.0,0.0,0.0,0.0,0.0,0.0,0.0,0.0,0.0,0.0,0.0,0.0,0.0,0.0,0.0,0.0,0.0,0.0,0.0,0.0,0.0,0.0,0.0,0.0,0.0,0.0,0.0,0.0,0.0,0.0,0.0,0.0,0.0,0.0,0.0,0.0,0.0,0.0,0.0,0.0,0.0,0.0,0.0,0.0,0.0,0.0,0.0,0.0,0.0,0.0,0.0,0.0,0.0,0.0,0.0,0.0,-6.6112,-6.6112,-6.6112,-6.6112,-6.6112,-6.6112,0.0,0.0,0.0,0.0,0.0,0.0,0.0,0.0,0.0,0.0,0.0,0.0,0.0,0.0,0.0,0.0,0.0,0.0,0.0,0.0,0.0,0.0,0.0,0.0,0.0,0.0,0.0,0.0,0.0,0.0,0.0,0.0,0.0,0.0,0.0,0.0,0.0,0.0,0.0,0.0,0.0,0.0,0.0,0.0,0.0,0.0,0.0,0.0,0.0,0.0,0.0,0.0,0.0,0.0,0.0,0.0,0.0,0.0,0.0,0.0,0.0,0.0,0.0,0.0,0.0,0.0,0.0,0.0,0.0,0.0,0.0,0.0,0.0,0.0,0.0,0.0,0.0,0.0,0.0,0.0,0.0,0.0,0.0,0.0,0.0,0.0,0.0,0.0,0.0,0.0,0.0,0.0,0.0,0.0,0.0,0.0,0.0,0.0,0.0,0.0,0.0,0.0,0.0,0.0,0.0,0.0,0.0,0.0,-6.6112,-6.6112,-6.6112,-6.6112,-6.6112,-6.6112,0.0,0.0,0.0,0.0,0.0,0.0,0.0,0.0,0.0,0.0,0.0,0.0,0.0,0.0,0.0,0.0,0.0,0.0,0.0,0.0,0.0,0.0,0.0,0.0,0.0,0.0,0.0,0.0,0.0,0.0,0.0,0.0,0.0,0.0,0.0,0.0,0.0,0.0,0.0,0.0,0.0,0.0,0.0,0.0,0.0,0.0,0.0,0.0,0.0,0.0,0.0,0.0,0.0,0.0,0.0,0.0,0.0,0.0,0.0,0.0,0.0,0.0,0.0,0.0,0.0,0.0,0.0,0.0,0.0,0.0,0.0,0.0,0.0,0.0,0.0,0.0,0.0,0.0,0.0,0.0,0.0,0.0,0.0,0.0,0.0,0.0,0.0,0.0,0.0,0.0,0.0,0.0,0.0,0.0,0.0,0.0,0.0,0.0,0.0,0.0,0.0,0.0,0.0,0.0,0.0,0.0,0.0,0.0,0.0,-6.6112,-6.6112,-6.6112,-6.6112,-6.6112,-6.6112,0.0,0.0,0.0,0.0,0.0,0.0,0.0,0.0,0.0,0.0,0.0,0.0,0.0,0.0,0.0,0.0,0.0,0.0,0.0,0.0,0.0,0.0,0.0,0.0,0.0,0.0,0.0,0.0,0.0,0.0,0.0,0.0,0.0,0.0,0.0,0.0,0.0,0.0,0.0,0.0,0.0,0.0,0.0,0.0,0.0,0.0,0.0,0.0,0.0,0.0,0.0,0.0,0.0,0.0,0.0,0.0,0.0,0.0,0.0,0.0,0.0,0.0,0.0,0.0,0.0,0.0,0.0,0.0,0.0,0.0,0.0,0.0,0.0,0.0,0.0,0.0,0.0,0.0,0.0,0.0,0.0,0.0,0.0,0.0,0.0,0.0,0.0,0.0,0.0,0.0,0.0,0.0,0.0,0.0,0.0,0.0,0.0,0.0,0.0,0.0,0.0,0.0,0.0,0.0,0.0,0.0,0.0,0.0,0.0,-6.6112,0.0,-6.6112,-6.6112,-6.6112,-6.6112,0.0,0.0,0.0,0.0,0.0,0.0,0.0,0.0,0.0,0.0,0.0,0.0,0.0,0.0,0.0,0.0,0.0,0.0,0.0,0.0,0.0,0.0,0.0,0.0,0.0,0.0,0.0,0.0,0.0,0.0,0.0,0.0,0.0,0.0,0.0,0.0,0.0,0.0,0.0,0.0,0.0,0.0,0.0,0.0,0.0,0.0,0.0,0.0,0.0,0.0,0.0,0.0,0.0,0.0,0.0,0.0,0.0,0.0,0.0,0.0,0.0,0.0,0.0,0.0,0.0,0.0,0.0,0.0,0.0,0.0,0.0,0.0,0.0,0.0,0.0,0.0,0.0,0.0,0.0,0.0,0.0,0.0,0.0,0.0,0.0,0.0,0.0,0.0,0.0,0.0,0.0,0.0,0.0,0.0,0.0,0.0,0.0,0.0,0.0,0.0,0.0,0.0,0.0,0.0,0.0,0.0,0.0,0.0,-6.6112,-6.6112,-6.6112,-6.6112,-6.6112,-6.6112,-6.6112,0.0,0.0,0.0,0.0,0.0,0.0,0.0,0.0,0.0,0.0,0.0,0.0,0.0,0.0,0.0,0.0,0.0,0.0,0.0,0.0,0.0,0.0,0.0,0.0,0.0,0.0,0.0,0.0,0.0,0.0,0.0,0.0,0.0,0.0,0.0,0.0,0.0,0.0,0.0,0.0,0.0,0.0,0.0,0.0,0.0,0.0,0.0,0.0,0.0,0.0,0.0,0.0,0.0,0.0,0.0,0.0,0.0,0.0,0.0,0.0,0.0,0.0,0.0,0.0,0.0,0.0,0.0,0.0,0.0,0.0,0.0,0.0,0.0,0.0,0.0,0.0,0.0,0.0,0.0,0.0,0.0,0.0,0.0,0.0,0.0,0.0,0.0,0.0,0.0,0.0,0.0,0.0,0.0,0.0,0.0,0.0,0.0,0.0,0.0,0.0,0.0,0.0,0.0,0.0,0.0,0.0,0.0,0.0,0.0,-6.6112,-6.6112,-6.6112,-6.6112,-6.6112,-6.6112,0.0,0.0,0.0,0.0,0.0,0.0,0.0,0.0,0.0,0.0,0.0,0.0,0.0,0.0,0.0,0.0,0.0,0.0,0.0,0.0,0.0,0.0,0.0,0.0,0.0,0.0,0.0,0.0,0.0,0.0,0.0,0.0,0.0,0.0,0.0,0.0,0.0,0.0,0.0,0.0,0.0,0.0,0.0,0.0,0.0,0.0,0.0,0.0,0.0,0.0,0.0,0.0,0.0,0.0,0.0,0.0,0.0,0.0,0.0,0.0,0.0,0.0,0.0,0.0,0.0,0.0,0.0,0.0,0.0,0.0,0.0,0.0,0.0,0.0,0.0,0.0,0.0,0.0,0.0,0.0,0.0,0.0,0.0,0.0,0.0,0.0,0.0,0.0,0.0,0.0,0.0,0.0,0.0,0.0,0.0,0.0,0.0,0.0,0.0,0.0,0.0,0.0,0.0,0.0,0.0,0.0,0.0,0.0,0.0,-6.6112,-6.6112,-6.6112,-6.6112,-6.6112,-6.6112,-6.6112,0.0,0.0,0.0,0.0,0.0,0.0,0.0,0.0,0.0,0.0,0.0,0.0,0.0,0.0,0.0,0.0,0.0,0.0,0.0,0.0,0.0,0.0,0.0,0.0,0.0,0.0,0.0,0.0,0.0,0.0,0.0,0.0,0.0,0.0,0.0,0.0,0.0,0.0,0.0,0.0,0.0,0.0,0.0,0.0,0.0,0.0,0.0,0.0,0.0,0.0,0.0,0.0,0.0,0.0,0.0,0.0,0.0,0.0,0.0,0.0,0.0,0.0,0.0,0.0,0.0,0.0,0.0,0.0,0.0,0.0,0.0,0.0,0.0,0.0,0.0,0.0,0.0,0.0,0.0,0.0,0.0,0.0,0.0,0.0,0.0,0.0,0.0,0.0,0.0,0.0,0.0,0.0,0.0,0.0,0.0,0.0,0.0,0.0,0.0,0.0,0.0,0.0,0.0,0.0,0.0,0.0,0.0,0.0,-6.6112,-6.6112,-6.6112,-6.6112,-6.6112,-6.6112,0.0,0.0,0.0,0.0,0.0,0.0,0.0,0.0,0.0,0.0,0.0,0.0,0.0,0.0,0.0,0.0,0.0,0.0,0.0,0.0,0.0,0.0,0.0,0.0,0.0,0.0,0.0,0.0,0.0,0.0,0.0,0.0,0.0,0.0,0.0,0.0,0.0,0.0,0.0,0.0,0.0,0.0,0.0,0.0,0.0,0.0,0.0,0.0,0.0,0.0,0.0,0.0,0.0,0.0,0.0,0.0,0.0,0.0,0.0,0.0,0.0,0.0,0.0,0.0,0.0,0.0,0.0,0.0,0.0,0.0,0.0,0.0,0.0,0.0,0.0,0.0,0.0,0.0,0.0,0.0,0.0,0.0,0.0,0.0,0.0,0.0,0.0,0.0,0.0,0.0,0.0,0.0,0.0,0.0,0.0,0.0,0.0,0.0,0.0,0.0,0.0,0.0,0.0,0.0,0.0,0.0,0.0,0.0,0.0,-6.6112,-6.6112,-6.6112,-6.6112,-6.6112,-6.6112,0.0,0.0,0.0,0.0,0.0,0.0,0.0,0.0,0.0,0.0,0.0,0.0,0.0,0.0,0.0,0.0,0.0,0.0,0.0,0.0,0.0,0.0,0.0,0.0,0.0,0.0,0.0,0.0,0.0,0.0,0.0,0.0,0.0,0.0,0.0,0.0,0.0,0.0,0.0,0.0,0.0,0.0,0.0,0.0,0.0,0.0,0.0,0.0,0.0,0.0,0.0,0.0,0.0,0.0,0.0,0.0,0.0,0.0,0.0,0.0,0.0,0.0,0.0,0.0,0.0,0.0,0.0,0.0,0.0,0.0,0.0,0.0,0.0,0.0,0.0,0.0,0.0,0.0,0.0,0.0,0.0,0.0,0.0,0.0,0.0,0.0,0.0,0.0,0.0,0.0,0.0,0.0,0.0,0.0,0.0,0.0,0.0,0.0,0.0,0.0,0.0,0.0,0.0,0.0,0.0,0.0,0.0,0.0,-6.6112,-6.6112,-6.6112,-6.6112,-6.6112,-6.6112,-6.6112,0.0,0.0,0.0,0.0,0.0,0.0,0.0,0.0,0.0,0.0,0.0,0.0,0.0,0.0,0.0,0.0,0.0,0.0,0.0,0.0,0.0,0.0,0.0,0.0,0.0,0.0,0.0,0.0,0.0,0.0,0.0,0.0,0.0,0.0,0.0,0.0,0.0,0.0,0.0,0.0,0.0,0.0,0.0,0.0,0.0,0.0,0.0,0.0,0.0,0.0,0.0,0.0,0.0,0.0,0.0,0.0,0.0,0.0,0.0,0.0,0.0,0.0,0.0,0.0,0.0,0.0,0.0,0.0,0.0,0.0,0.0,0.0,0.0,0.0,0.0,0.0,0.0,0.0,0.0,0.0,0.0,0.0,0.0,0.0,0.0,0.0,0.0,0.0,0.0,0.0,0.0,0.0,0.0,0.0,0.0,0.0,0.0,0.0,0.0,0.0,0.0,0.0,0.0,0.0,0.0,0.0,0.0,0.0,-6.5936,-6.5936,-6.5936,-6.5936,-6.5961,-6.6061,-6.6112,0.0,0.0,0.0,0.0,0.0,0.0,0.0,0.0,0.0,0.0,0.0,0.0,0.0,0.0,0.0,0.0,0.0,0.0,0.0,0.0,0.0,0.0,0.0,0.0,0.0,0.0,0.0,0.0,0.0,0.0,0.0,0.0,0.0,0.0,0.0,0.0,0.0,0.0,0.0,0.0,0.0,0.0,0.0,0.0,0.0,0.0,0.0,0.0,0.0,0.0,0.0,0.0,0.0,0.0,0.0,0.0,0.0,0.0,0.0,0.0,0.0,0.0,0.0,0.0,0.0,0.0,0.0,0.0,0.0,0.0,0.0,0.0,0.0,0.0,0.0,0.0,0.0,0.0,0.0,0.0,0.0,0.0,0.0,0.0,0.0,0.0,0.0,0.0,0.0,0.0,0.0,0.0,0.0,0.0,0.0,0.0,0.0,0.0,0.0,0.0,0.0,0.0,0.0,0.0,0.0,0.0,0.0,0.0,-6.4806,-6.4806,-6.4806,-6.4806,-6.4806,-6.566,-6.6112,0.0,0.0,0.0,0.0,0.0,0.0,0.0,0.0,0.0,0.0,0.0,0.0,0.0,0.0,0.0,0.0,0.0,0.0,0.0,0.0,0.0,0.0,0.0,0.0,0.0,0.0,0.0,0.0,0.0,0.0,0.0,0.0,0.0,0.0,0.0,0.0,0.0,0.0,0.0,0.0,0.0,0.0,0.0,0.0,0.0,0.0,0.0,0.0,-6.6112,0.0,0.0,0.0,0.0,0.0,0.0,0.0,0.0,0.0,0.0,0.0,0.0,0.0,0.0,0.0,0.0,0.0,0.0,0.0,0.0,0.0,0.0,0.0,0.0,0.0,0.0,0.0,0.0,0.0,0.0,0.0,0.0,0.0,0.0,0.0,0.0,0.0,0.0,0.0,0.0,0.0,0.0,0.0,0.0,0.0,0.0,0.0,0.0,0.0,0.0,0.0,0.0,0.0,0.0,0.0,0.0,0.0,0.0,0.0,-6.4479,-6.4479,-6.4479,-6.4479,-6.4479,-6.5032,-6.5459,0.0,0.0,0.0,0.0,0.0,0.0,0.0,0.0,0.0,0.0,0.0,0.0,0.0,0.0,0.0,0.0,0.0,0.0,0.0,0.0,0.0,0.0,0.0,0.0,0.0,0.0,0.0,0.0,0.0,0.0,0.0,0.0,0.0,0.0,0.0,0.0,0.0,0.0,0.0,0.0,0.0,0.0,0.0,0.0,0.0,0.0,0.0,0.0,0.0,0.0,0.0,0.0,0.0,0.0,0.0,0.0,0.0,0.0,0.0,0.0,0.0,0.0,0.0,0.0,0.0,0.0,0.0,0.0,0.0,0.0,0.0,0.0,0.0,0.0,0.0,0.0,0.0,0.0,0.0,0.0,0.0,0.0,0.0,0.0,0.0,0.0,0.0,0.0,0.0,0.0,0.0,0.0,0.0,0.0,0.0,0.0,0.0,0.0,0.0,0.0,0.0,0.0,0.0,0.0,0.0,0.0,0.0,-6.3894,-6.3844,-6.4203,-6.3844,-6.3844,-6.4228,-6.4304,-6.4555,-6.5032,0.0,0.0,0.0,0.0,0.0,0.0,0.0,0.0,0.0,0.0,0.0,0.0,0.0,0.0,0.0,0.0,0.0,0.0,0.0,0.0,0.0,0.0,0.0,0.0,0.0,0.0,0.0,0.0,0.0,0.0,0.0,0.0,0.0,0.0,0.0,0.0,0.0,0.0,-6.6112,-6.6112,0.0,0.0,0.0,0.0,0.0,0.0,0.0,0.0,-6.6112,0.0,0.0,0.0,0.0,0.0,0.0,0.0,0.0,0.0,0.0,0.0,0.0,0.0,0.0,0.0,0.0,0.0,0.0,0.0,0.0,0.0,0.0,0.0,0.0,0.0,0.0,0.0,0.0,0.0,0.0,0.0,0.0,0.0,0.0,0.0,0.0,0.0,0.0,0.0,0.0,0.0,0.0,0.0,0.0,0.0,0.0,0.0,0.0,0.0,0.0,0.0,0.0,0.0,0.0,0.0,0.0,-6.3802,-6.1398,-6.1046,-6.3016,-6.1154,-6.107,-6.3016,-6.355,-6.3877,-6.4002,0.0,0.0,0.0,0.0,0.0,0.0,0.0,0.0,0.0,0.0,0.0,0.0,0.0,0.0,0.0,0.0,0.0,0.0,0.0,0.0,0.0,0.0,0.0,0.0,0.0,0.0,0.0,0.0,0.0,0.0,0.0,0.0,0.0,0.0,0.0,0.0,0.0,0.0,0.0,-6.6112,-6.6112,0.0,0.0,0.0,0.0,0.0,0.0,0.0,0.0,-6.6112,0.0,0.0,0.0,0.0,0.0,0.0,0.0,0.0,0.0,0.0,0.0,0.0,0.0,0.0,0.0,0.0,0.0,0.0,0.0,0.0,0.0,0.0,0.0,0.0,0.0,0.0,0.0,0.0,0.0,0.0,0.0,0.0,0.0,0.0,0.0,0.0,0.0,0.0,0.0,0.0,0.0,0.0,0.0,0.0,0.0,0.0,0.0,0.0,0.0,0.0,0.0,0.0,0.0,0.0,0.0,-6.3142,-6.1828,-6.168,-6.2741,-6.168,-6.168,-6.2741,-6.3099,-6.3249,0.0,0.0,0.0,0.0,0.0,0.0,0.0,0.0,0.0,0.0,0.0,0.0,0.0,0.0,0.0,0.0,0.0,0.0,0.0,0.0,0.0,0.0,0.0,0.0,0.0,0.0,0.0,0.0,0.0,0.0,0.0,0.0,0.0,0.0,0.0,0.0,0.0,0.0,0.0,0.0,-6.6112,-6.6112,-6.6112,0.0,0.0,0.0,0.0,0.0,0.0,-6.5258,-6.5258,0.0,0.0,0.0,0.0,0.0,0.0,0.0,0.0,0.0,0.0,0.0,0.0,0.0,0.0,0.0,0.0,0.0,0.0,0.0,0.0,0.0,0.0,0.0,0.0,0.0,0.0,0.0,0.0,0.0,0.0,0.0,0.0,0.0,0.0,0.0,0.0,0.0,0.0,0.0,0.0,0.0,0.0,0.0,0.0,0.0,0.0,0.0,0.0,0.0,0.0,0.0,0.0,0.0,0.0,0.0,-6.2741,-6.2306,-6.2306,-6.2741,-6.2306,-6.2306,-6.2741,-6.2822,-6.2822,0.0,0.0,0.0,0.0,0.0,0.0,0.0,0.0,0.0,0.0,0.0,0.0,0.0,0.0,0.0,0.0,0.0,0.0,0.0,0.0,0.0,0.0,0.0,0.0,0.0,0.0,0.0,0.0,0.0,0.0,0.0,0.0,0.0,0.0,0.0,0.0,0.0,0.0,0.0,0.0,0.0,-6.5936,-6.5936,-6.5484,0.0,0.0,0.0,0.0,-6.4371,-6.4454,0.0,0.0,0.0,0.0,0.0,0.0,0.0,0.0,0.0,0.0,0.0,0.0,0.0,0.0,0.0,0.0,0.0,0.0,0.0,0.0,0.0,0.0,0.0,0.0,0.0,0.0,0.0,0.0,0.0,0.0,0.0,0.0,0.0,0.0,0.0,0.0,0.0,0.0,0.0,0.0,0.0,0.0,0.0,0.0,0.0,0.0,0.0,0.0,0.0,0.0,0.0,0.0,0.0,0.0,0.0,0.0,-6.2741,-6.0719,-6.0719,-6.2577,-6.0803,-6.0719,-6.2741,-6.2822,-6.2822,0.0,0.0,0.0,0.0,0.0,0.0,0.0,0.0,0.0,0.0,0.0,0.0,0.0,0.0,0.0,0.0,0.0,0.0,0.0,0.0,0.0,0.0,0.0,0.0,0.0,0.0,0.0,0.0,0.0,0.0,0.0,0.0,0.0,0.0,0.0,0.0,0.0,0.0,0.0,0.0,0.0,-6.5383,-6.5383,-6.4906,-6.4496,0.0,0.0,-6.4396,-6.3975,-6.4228,0.0,0.0,0.0,0.0,0.0,0.0,0.0,0.0,0.0,0.0,0.0,0.0,0.0,0.0,0.0,0.0,0.0,0.0,0.0,0.0,0.0,0.0,0.0,0.0,0.0,0.0,0.0,0.0,0.0,0.0,0.0,0.0,0.0,0.0,0.0,0.0,0.0,0.0,0.0,0.0,0.0,0.0,0.0,0.0,0.0,0.0,0.0,0.0,0.0,0.0,0.0,0.0,0.0,0.0,0.0,-6.2822,-6.2741,-6.1763,-6.1763,-6.2741,-6.1763,-6.1763,-6.2741,-6.2822,-6.2822,0.0,0.0,0.0,0.0,0.0,0.0,0.0,0.0,0.0,0.0,0.0,0.0,0.0,0.0,0.0,0.0,0.0,0.0,0.0,0.0,0.0,0.0,0.0,0.0,0.0,0.0,0.0,0.0,0.0,0.0,0.0,0.0,0.0,0.0,0.0,0.0,0.0,0.0,0.0,0.0,0.0,0.0,-6.4831,-6.4186,0.0,0.0,0.0,-6.3111,-6.2945,0.0,0.0,0.0,0.0,0.0,0.0,0.0,0.0,0.0,0.0,0.0,0.0,0.0,0.0,0.0,0.0,0.0,0.0,0.0,0.0,0.0,0.0,0.0,0.0,0.0,0.0,0.0,0.0,0.0,0.0,0.0,0.0,0.0,0.0,0.0,0.0,0.0,0.0,0.0,0.0,0.0,0.0,0.0,0.0,0.0,0.0,0.0,0.0,0.0,0.0,0.0,0.0,0.0,0.0,0.0,0.0,0.0,-6.2822,-6.2822,-6.2772,-6.2621,-6.2621,-6.2621,-6.2621,-6.2621,0.0,0.0,0.0,0.0,0.0,0.0,0.0,0.0,0.0,0.0,0.0,0.0,0.0,0.0,0.0,0.0,0.0,0.0,0.0,0.0,0.0,0.0,0.0,0.0,0.0,0.0,0.0,-6.6112,0.0,0.0,0.0,0.0,0.0,0.0,0.0,0.0,0.0,0.0,0.0,0.0,0.0,0.0,-6.4279,-6.4279,-6.3361,-6.243,0.0,0.0,-6.0959,-6.0518,-5.933,-5.8908,0.0,0.0,0.0,0.0,0.0,0.0,0.0,0.0,0.0,0.0,0.0,0.0,0.0,0.0,0.0,0.0,0.0,0.0,0.0,0.0,0.0,0.0,0.0,0.0,0.0,0.0,0.0,0.0,0.0,0.0,0.0,0.0,0.0,0.0,0.0,0.0,0.0,0.0,0.0,0.0,0.0,0.0,0.0,0.0,0.0,0.0,0.0,0.0,0.0,0.0,0.0,0.0,0.0,0.0,-6.2822,-6.2822,-6.2822,-6.2571,-6.2094,-6.2069,-6.2069,-6.2069,-6.2069,-6.2295,0.0,0.0,0.0,0.0,0.0,0.0,0.0,0.0,0.0,0.0,0.0,0.0,0.0,0.0,0.0,0.0,0.0,0.0,0.0,0.0,0.0,0.0,0.0,0.0,0.0,0.0,0.0,0.0,0.0,0.0,0.0,0.0,0.0,0.0,0.0,0.0,0.0,0.0,0.0,0.0,0.0,-6.3726,-6.3751,-6.2481,-6.1008,0.0,-5.8554,-5.7653,-5.5966,-5.5966,-5.6336,-5.6878,0.0,0.0,0.0,0.0,0.0,0.0,0.0,0.0,0.0,0.0,0.0,0.0,0.0,0.0,0.0,0.0,0.0,0.0,0.0,0.0,0.0,0.0,0.0,0.0,0.0,0.0,0.0,0.0,0.0,0.0,0.0,0.0,0.0,0.0,0.0,0.0,0.0,0.0,0.0,0.0,0.0,0.0,0.0,0.0,0.0,0.0,0.0,0.0,0.0,0.0,0.0,0.0,0.0,-6.232,-6.232,-6.1994,-6.1718,-6.1517,-6.1492,-6.1492,-6.1492,-6.1492,-6.1592,0.0,0.0,0.0,0.0,0.0,0.0,0.0,0.0,0.0,0.0,0.0,0.0,0.0,0.0,0.0,0.0,0.0,0.0,0.0,0.0,0.0,0.0,0.0,0.0,0.0,0.0,0.0,0.0,-6.5107,-6.4781,-6.4781,0.0,0.0,0.0,0.0,0.0,0.0,0.0,0.0,0.0,0.0,-6.3023,-6.2697,-6.0734,0.0,0.0,-5.6452,-5.5347,-5.4919,-5.3972,-5.3799,-5.5135,-5.4964,0.0,0.0,0.0,0.0,0.0,0.0,0.0,0.0,0.0,0.0,0.0,0.0,0.0,0.0,0.0,0.0,0.0,0.0,0.0,0.0,0.0,0.0,0.0,0.0,0.0,0.0,0.0,0.0,0.0,0.0,0.0,0.0,0.0,0.0,0.0,0.0,0.0,0.0,0.0,0.0,0.0,0.0,0.0,0.0,0.0,0.0,0.0,0.0,0.0,0.0,0.0,0.0,-6.1743,-6.1743,-6.1366,-6.109,-6.0939,-6.0939,-6.0939,-6.0939,-6.0914,-6.0989,0.0,0.0,0.0,0.0,0.0,0.0,0.0,0.0,0.0,0.0,0.0,0.0,0.0,0.0,0.0,0.0,0.0,0.0,0.0,0.0,0.0,0.0,0.0,0.0,0.0,0.0,0.0,0.0,-6.4555,-6.4153,-6.4002,0.0,0.0,0.0,0.0,0.0,0.0,0.0,0.0,0.0,0.0,-6.2033,-6.1229,-5.9206,-5.7358,-5.6174,-5.419,-5.2822,-5.2757,-5.1458,-5.1131,-5.2693,0.0,0.0,0.0,0.0,0.0,0.0,0.0,0.0,0.0,0.0,0.0,0.0,0.0,0.0,0.0,0.0,0.0,0.0,0.0,0.0,0.0,0.0,0.0,0.0,0.0,0.0,0.0,-6.2822,0.0,0.0,-6.2797,0.0,0.0,0.0,0.0,0.0,0.0,0.0,0.0,0.0,0.0,0.0,0.0,0.0,0.0,0.0,0.0,0.0,0.0,0.0,0.0,0.0,0.0,-6.119,-6.119,-6.114,-6.0889,-6.0362,-6.0337,-6.0337,-6.0337,-6.0337,-6.0588,-6.114,0.0,0.0,0.0,0.0,0.0,0.0,0.0,0.0,0.0,0.0,0.0,0.0,0.0,0.0,0.0,0.0,0.0,0.0,0.0,0.0,0.0,0.0,0.0,0.0,0.0,0.0,-6.4454,-6.4002,-6.35,0.0,0.0,0.0,0.0,0.0,0.0,0.0,0.0,0.0,-6.2019,-6.1567,-6.0712,-5.9455,-5.8044,-5.6174,-5.3571,-5.1632,-5.0011,-4.8702,-4.8097,-4.8007,0.0,0.0,0.0,0.0,0.0,0.0,0.0,0.0,0.0,0.0,0.0,0.0,0.0,0.0,0.0,0.0,0.0,0.0,0.0,0.0,0.0,0.0,0.0,0.0,0.0,0.0,0.0,-6.1476,-6.1768,0.0,0.0,0.0,0.0,0.0,0.0,0.0,0.0,0.0,0.0,0.0,-6.2295,-6.2295,0.0,0.0,0.0,0.0,0.0,0.0,0.0,0.0,0.0,0.0,0.0,0.0,-6.0613,-6.0588,-6.0261,-5.996,-5.9784,-5.9759,-5.9784,-5.9784,-5.9784,-5.9859,-6.006,0.0,0.0,0.0,0.0,0.0,0.0,0.0,0.0,0.0,0.0,0.0,0.0,0.0,0.0,0.0,0.0,0.0,0.0,0.0,0.0,0.0,0.0,0.0,0.0,0.0,-6.3802,0.0,0.0,0.0,0.0,0.0,0.0,0.0,0.0,0.0,0.0,0.0,-6.0856,-6.0639,-5.9982,-5.8985,-5.7625,-5.55,-5.3358,0.0,0.0,0.0,0.0,0.0,0.0,0.0,0.0,0.0,0.0,0.0,0.0,0.0,0.0,-5.1872,-5.3684,-5.3082,-5.2412,-5.2584,0.0,0.0,0.0,0.0,0.0,0.0,0.0,0.0,0.0,0.0,0.0,0.0,0.0,0.0,-6.0926,-6.1215,-6.1567,0.0,0.0,0.0,0.0,0.0,0.0,0.0,0.0,-6.227,-6.2069,-6.1718,-6.1718,-6.1517,-6.119,-6.119,-6.1567,0.0,0.0,0.0,0.0,0.0,0.0,0.0,0.0,-6.0035,-6.001,-5.9684,-5.9508,-5.9508,-5.9508,-5.9508,-5.9508,-5.9508,-5.9508,-5.9508,-5.9834,-6.0035,0.0,0.0,0.0,0.0,0.0,0.0,0.0,0.0,0.0,0.0,0.0,0.0,0.0,0.0,0.0,0.0,0.0,0.0,0.0,0.0,0.0,0.0,0.0,-6.3174,0.0,0.0,0.0,0.0,0.0,0.0,0.0,0.0,0.0,-6.1562,-6.0737,-5.9829,-5.9403,-5.816,-5.6841,-5.545,0.0,0.0,0.0,0.0,0.0,0.0,0.0,-4.6832,-4.7181,-4.7421,-4.7768,-4.7854,-4.8286,-4.8544,-4.8544,0.0,0.0,-5.1227,-5.0881,-5.0318,-5.0485,-4.9702,-4.9006,-4.881,-4.8282,-4.7771,0.0,0.0,0.0,0.0,-5.8218,0.0,0.0,0.0,-6.1035,-6.109,0.0,-6.114,0.0,0.0,0.0,0.0,-6.119,-6.1215,0.0,0.0,-6.1215,-6.1165,-6.1165,-6.114,-6.114,-6.1115,-6.109,-6.1115,-6.114,-6.1115,0.0,0.0,0.0,0.0,0.0,0.0,-5.9508,-5.9508,-5.9508,-5.9508,-5.9508,-5.9508,-5.9508,-5.9508,-5.9508,-5.9508,-5.9508,-5.9508,-5.9508,-5.9508,-6.001,0.0,0.0,0.0,0.0,0.0,0.0,0.0,0.0,0.0,0.0,0.0,0.0,0.0,0.0,0.0,0.0,0.0,0.0,0.0,0.0,-6.2797,0.0,0.0,0.0,0.0,0.0,0.0,0.0,0.0,0.0,0.0,-6.0617,-5.9766,-5.8784,-5.8281,0.0,0.0,0.0,0.0,-4.9998,-4.9103,-4.7834,-4.6967,-4.6967,-4.6512,-4.625,-4.625,0.0,0.0,-4.688,-4.7314,-4.7621,-4.7554,-4.7168,-4.7521,-4.9275,-4.8897,-4.8556,-4.8923,-4.8284,-4.7568,-4.7114,-4.7086,-4.6892,-4.8585,0.0,0.0,0.0,0.0,-5.5007,-5.623,-5.7277,-5.8862,-5.9751,-6.001,-6.0387,0.0,0.0,0.0,0.0,0.0,0.0,-6.119,-6.119,-6.119,-6.0964,-6.0563,-6.0563,-6.0362,-5.9985,-5.9985,-5.9985,-5.9985,-5.9985,-6.0186,-6.0537,0.0,0.0,0.0,0.0,-5.9508,-5.9508,-5.9508,-5.9508,-5.9508,-5.9508,-5.9508,-5.9508,-5.9508,-5.9508,-5.9508,-5.9508,-5.9508,-5.9508,-5.9633,0.0,0.0,0.0,0.0,0.0,0.0,0.0,0.0,0.0,0.0,0.0,0.0,0.0,0.0,0.0,0.0,0.0,0.0,0.0,-6.227,-6.1893,-6.1512,0.0,0.0,0.0,0.0,0.0,0.0,0.0,0.0,0.0,-5.6828,-5.6676,-5.6387,0.0,0.0,-5.2536,-5.0864,-4.9955,-4.8935,-4.7344,-4.6809,0.0,-4.5706,-4.5476,-4.5391,-4.5391,-4.5391,-4.5391,-4.5562,-4.5648,-4.5733,-4.5733,-4.5648,-4.5772,-4.6233,-4.667,-4.692,-4.7058,-4.6911,-4.6658,-4.6571,-4.6483,-4.6483,-4.7074,-4.8417,-4.8932,-5.0336,-5.2409,-5.3893,-5.5517,-5.7218,-5.855,-5.9276,-5.9508,-5.9859,-5.9985,-6.001,-6.0362,0.0,0.0,0.0,-6.0512,-6.0512,-6.0512,-6.0337,-6.001,-5.9985,-5.9809,-5.9508,-5.9508,-5.9508,-5.9508,-5.9508,-5.9659,-5.9985,0.0,-5.9508,-5.9508,-5.9508,-5.9508,-5.9508,-5.9508,-5.9508,-5.9483,-5.9307,-5.9081,-5.888,-5.9056,-5.9182,-5.9207,-5.9382,-5.9508,-5.9508,-5.9508,-5.9508,0.0,0.0,0.0,0.0,0.0,0.0,0.0,0.0,0.0,0.0,0.0,-6.1316,-6.1642,0.0,0.0,0.0,-6.1969,-6.1963,-6.1451,-6.1126,0.0,0.0,0.0,0.0,0.0,0.0,0.0,-5.7052,-5.6526,-5.547,-5.3434,-5.3129,-5.3056,-5.3049,-5.1634,-5.0124,-4.9088,0.0,-4.7143,-4.62,-4.5924,-4.5674,-4.5058,-4.5039,-4.5039,-4.5039,-4.5039,-4.5039,-4.5039,-4.5039,-4.5039,-4.5039,-4.5039,-4.5039,-4.5039,-4.5449,-4.5801,-4.5801,-4.5801,-4.5801,-4.5801,-4.5801,-4.5801,-4.623,-4.6337,-4.7601,-5.0188,-5.3624,-5.4418,-5.6375,-5.8993,-5.9328,-5.9508,-5.9508,-5.9508,-5.9508,-5.9508,-5.9508,0.0,-5.9508,-5.9508,-5.9508,-5.9508,-5.9508,-5.9508,-5.9508,-5.9508,-5.9508,-5.9508,-5.9508,-5.9508,-5.9508,-5.9508,-5.9483,-5.9433,-5.9433,-5.9458,-5.9508,-5.9458,-5.9433,-5.9433,-5.9382,-5.9357,-5.9357,-5.8905,-5.8403,-5.7926,-5.8378,-5.8629,-5.8654,-5.9106,-5.9357,-5.9357,-5.9382,-5.9382,-5.9433,0.0,0.0,0.0,0.0,0.0,0.0,0.0,0.0,0.0,0.0,0.0,0.0,0.0,0.0,0.0,-6.1065,0.0,-6.0507,-6.0482,0.0,0.0,0.0,-5.9251,-5.8912,-5.8628,-5.7534,-5.547,0.0,0.0,-5.0487,-4.9363,-4.928,-5.0397,-4.8859,-4.7637,-4.7552,-4.6211,-4.517,-4.5554,-4.5215,-4.4961,-4.4844,-4.4844,-4.4844,-4.4844,-4.4922,-4.4883,-4.4863,-4.4883,-4.4902,-4.4863,-4.4902,-4.4902,-4.4902,-4.4902,-4.4922,-4.4922,-4.5,-4.5058,-4.5098,-4.5098,-4.5117,-4.5527,-4.5907,-4.6166,-4.7101,-4.8462,-5.1927,-5.3824,-5.472,-5.8031,-5.9508,-5.9508,-5.9508,-5.9508,-5.9508,-5.9508,-5.9508,-5.9508,-5.9508,-5.9508,-5.9508,-5.9508,-5.9508,-5.9508,-5.9508,-5.9508,-5.9508,-5.9508,-5.9508,-5.9508,-5.9508,-5.9282,-5.893,-5.8905,-5.9106,-5.9458,-5.9106,-5.8905,-5.8905,-5.8478,-5.8278,-5.8278,-5.8152,-5.8027,-5.7901,-5.8027,-5.8077,-5.8102,-5.8227,-5.8278,-5.8278,-5.8278,-5.8453,-5.8855,-5.8478,0.0,0.0,0.0,0.0,0.0,0.0,0.0,0.0,0.0,-6.0085,-6.0487,0.0,-6.0512,0.0,-6.0136,-6.006,-6.033,-5.9979,0.0,0.0,-5.6613,-5.5738,-5.3811,-5.3788,-5.3302,-5.1839,-5.1444,-5.0422,-4.8088,-4.7315,-4.6872,-4.655,-4.6892,-4.702,-4.6261,-4.5862,-4.5326,-4.4862,-4.4615,-4.4414,-4.4121,-4.4023,-4.4043,-4.4023,-4.4023,-4.4023,-4.4023,-4.4004,-4.4004,-4.4023,-4.4023,-4.4023,-4.4043,-4.4023,-4.4023,-4.4062,-4.4551,-4.5039,-4.5039,-4.5019,-4.5019,-4.5176,-4.5391,-4.5371,-4.5851,-4.6907,-5.1108,-5.3988,-5.6032,-5.8422,-5.9508,-5.9508,-5.9508,-5.9508,-5.9508,-5.9508,-5.9508,-5.9508,-5.9508,-5.9508,-5.9508,-5.9508,-5.9508,-5.9508,-5.9508,-5.9508,-5.9483,-5.9257,-5.9156,-5.9131,-5.8905,-5.8629,-5.8353,-5.8353,-5.8504,-5.8755,-5.8504,-5.8353,-5.8353,-5.8052,-5.7775,-5.7524,-5.7524,-5.7399,-5.7173,-5.7399,-5.7499,-5.7524,-5.775,-5.7901,-5.7901,-5.7901,-5.8027,-5.8303,-5.8052,-5.7951,0.0,0.0,0.0,0.0,0.0,0.0,0.0,0.0,0.0,0.0,0.0,-5.996,-5.996,-5.9684,-5.9531,-5.9701,-5.8541,-5.7138,-5.5758,-5.45,-5.3307,-5.2055,-5.2019,-5.1366,-4.9689,-4.9459,-4.8462,-4.6175,-4.5653,-4.5238,-4.4557,-4.5103,-4.5517,-4.5193,-4.4926,-4.4607,-4.4121,-4.4082,-4.4023,-4.373,-4.3691,-4.3691,-4.3691,-4.3691,-4.3691,-4.3691,-4.3691,-4.3691,-4.3691,-4.3691,-4.3691,-4.3691,-4.3691,-4.3691,-4.3769,-4.4082,-4.4394,-4.4433,-4.4433,-4.4433,-4.4883,-4.4941,-4.4941,-4.5788,-4.7339,-5.107,-5.4937,-5.8638,-5.905,-5.9282,-5.9282,-5.9307,-5.9282,-5.9307,-5.9307,-5.9307,-5.9282,-5.9307,-5.9282,-5.9282,-5.9282,-5.9282,-5.9282,-5.9282,-5.9282,-5.9282,-5.883,-5.8629,-5.8604,-5.8127,-5.7851,-5.7801,-5.7801,-5.775,-5.7675,-5.7675,-5.7675,-5.7675,-5.7675,-5.7449,-5.6947,-5.6922,-5.6696,-5.6244,-5.6671,-5.6848,-5.6947,-5.7424,-5.7675,-5.7675,-5.7675,-5.77,-5.7775,-5.7725,-5.755,0.0,-5.7224,0.0,0.0,0.0,0.0,0.0,0.0,0.0,0.0,-5.9508,-5.9508,-5.9508,-5.9433,-5.9253,-5.8943,-5.6835,-5.5409,-5.4984,-5.2709,-5.1218,-5.1359,-5.0984,-4.9968,-4.8003,-4.7755,-4.6885,-4.469,-4.4316,-4.4141,-4.3848,-4.3852,-4.4009,-4.418,-4.3984,-4.3769,-4.3691,-4.3691,-4.375,-4.3711,-4.3691,-4.3691,-4.3691,-4.3691,-4.3691,-4.3691,-4.3691,-4.3691,-4.3691,-4.3691,-4.3691,-4.3691,-4.3691,-4.3691,-4.3711,-4.375,-4.3769,-4.3769,-4.3789,-4.3691,-4.418,-4.4512,-4.4512,-4.5844,-4.819,-5.0674,-5.2559,-5.4217,-5.6654,-5.7874,-5.8202,-5.8202,-5.8202,-5.8202,-5.8202,-5.8202,-5.8202,-5.8202,-5.8202,-5.8202,-5.8202,-5.8202,-5.8202,-5.8202,-5.8202,-5.8202,-5.8102,-5.8052,-5.8052,-5.7951,-5.765,-5.7198,-5.7198,-5.6972,-5.6545,0.0,0.0,0.0,-5.6545,-5.647,-5.6369,-5.6369,-5.6319,-5.6219,-5.6319,0.0,-5.6369,-5.647,-5.652,-5.652,-5.6545,0.0,0.0,0.0,0.0,0.0,0.0,0.0,0.0,0.0,0.0,0.0,-5.8152,-5.8579,-5.9408,-5.9508,-5.9508,-5.9483,-5.9106,-5.8779,-5.8702,-5.6435,-5.4147,-5.2377,-5.0208,-4.8295,-4.6686,-4.6353,-4.5941,-4.5286,-4.5163,-4.4818,-4.4009,-4.3828,-4.3808,-4.373,-4.3691,-4.373,-4.3828,-4.3769,-4.3711,-4.3691,-4.3691,-4.3691,-4.3691,-4.3691,-4.3691,-4.3691,-4.3691,-4.3691,-4.3691,-4.3691,-4.3691,-4.3691,-4.3691,-4.3691,-4.3691,-4.3691,-4.3691,-4.3691,-4.3691,-4.3691,-4.3691,-4.3691,-4.3691,-4.3848,-4.4126,-4.5183,-4.674,0.0,-5.0985,-5.2573,-5.3749,-5.6469,-5.7725,-5.7901,-5.7901,-5.7901,-5.7901,-5.7901,-5.7901,-5.7901,-5.7901,-5.7901,-5.7901,-5.7901,-5.7901,-5.7901,-5.7901,-5.7901,-5.7876,-5.76,-5.7474,-5.7449,-5.7198,-5.6922,-5.662,-5.662,-5.6495,-5.6219,-5.6219,-5.6219,-5.6219,-5.6219,-5.6219,-5.6219,-5.6219,-5.6219,-5.6219,-5.6219,0.0,0.0,0.0,0.0,0.0,0.0,0.0,0.0,-5.5337,0.0,-5.6153,-5.4096,-5.3446,-5.4587,-5.3808,-5.4023,-5.5844,-5.7173,-5.8127,-5.8679,-5.8704,-5.8704,-5.8704,-5.8453,-5.7898,-5.6752,-5.45,-5.2241,-5.0071,-4.7816,-4.5928,-4.494,-4.4512,-4.4297,-4.4101,-4.4062,-4.3965,-4.373,-4.3691,-4.3691,-4.3691,-4.3691,-4.3691,-4.3691,-4.3691,-4.3691,-4.3691,-4.3691,-4.3691,-4.3691,-4.3691,-4.3691,-4.3691,-4.3691,-4.3691,-4.3691,-4.3691,-4.3691,-4.3691,-4.3691,-4.3691,-4.3691,-4.3691,-4.3691,-4.3691,-4.3691,-4.3691,-4.3691,-4.3691,-4.3691,-4.3691,-4.3856,-4.592,-4.7427,-4.8618,-5.1401,-5.3449,-5.4843,-5.6676,0.0,0.0,-5.76,-5.76,-5.76,-5.76,-5.76,-5.76,-5.76,-5.76,-5.76,-5.76,-5.76,-5.76,-5.76,-5.76,-5.7575,-5.7123,-5.6897,-5.6872,-5.642,-5.6219,-5.6219,-5.6219,-5.6219,-5.6219,-5.6219,-5.6219,-5.6219,-5.6219,-5.6219,-5.6219,-5.6219,-5.6219,-5.6219,-5.6219,-5.6219,-5.6219,-5.6219,-5.6219,-5.6219,-5.6219,-5.6219,-5.6146,-5.4274,-5.3726,-5.4843,-5.1631,-5.0242,-5.1884,-5.0862,-5.1254,-5.4099,-5.6375,-5.7675,-5.7876,-5.7901,-5.7901,-5.7901,-5.7801,-5.6871,-5.4759,-5.251,-5.0315,-4.8246,-4.577,-4.4277,-4.4258,-4.3945,-4.373,-4.3691,-4.373,-4.3691,-4.3711,-4.3691,-4.3691,-4.3691,-4.3691,-4.3691,-4.3691,-4.3691,-4.3691,-4.3691,-4.3691,-4.3691,-4.3691,-4.3691,-4.3691,-4.3691,-4.3691,-4.3691,-4.3691,-4.3691,-4.3691,-4.3691,-4.3691,-4.3691,-4.3691,-4.3691,-4.3691,-4.3691,-4.3691,-4.3691,-4.3691,-4.3691,-4.3691,-4.3691,-4.3856,-4.592,-4.6947,-4.7406,-5.1324,-5.4124,-5.5926,-5.5953,-5.6151,-5.6445,-5.6445,-5.6445,-5.6445,-5.6445,-5.6445,-5.6445,-5.6445,-5.6445,-5.6445,-5.6445,-5.6445,-5.6445,-5.6445,-5.6445,-5.6445,-5.6369,-5.6319,-5.6319,-5.6244,-5.6219,-5.6219,-5.6219,-5.6219,-5.6219,-5.6219,-5.6219,-5.6219,-5.6219,-5.6219,-5.6219,-5.6219,-5.6219,-5.6219,-5.6219,-5.6219,-5.6219,-5.6219,-5.6219,-5.6219,-5.6219,-5.6219,-5.6146,-5.4249,-5.3175,-5.335,-5.1247,-5.0064,-5.0397,-5.1708,-5.3525,-5.5608,-5.6248,-5.6846,-5.7801,-5.7901,-5.7901,-5.7876,-5.7349,-5.6277,-5.4186,-5.1652,-4.9254,-4.7178,-4.5126,-4.3789,-4.3828,-4.3769,-4.3691,-4.3691,-4.3691,-4.3691,-4.3691,-4.3691,-4.3691,-4.3691,-4.3691,-4.3691,-4.3691,-4.3691,-4.3691,-4.3691,-4.3691,-4.3691,-4.3691,-4.3691,-4.3691,-4.3691,-4.3691,-4.3691,-4.3691,-4.3691,-4.3691,-4.3691,-4.3691,-4.3691,-4.3691,-4.3691,-4.3691,-4.3691,-4.3691,-4.3691,-4.3691,-4.3691,-4.3691,-4.5373,-4.586,-4.889,-5.022,-5.0452,-5.3477,-5.5361,-5.6146,-5.5999,-5.5999,-5.6219,-5.6219,-5.6219,-5.6219,-5.6219,-5.6219,-5.6219,-5.6219,-5.6219,-5.6219,-5.6219,-5.6219,-5.6219,-5.6219,-5.6219,-5.6219,-5.6219,-5.6219,-5.6219,-5.6219,-5.6219,-5.6219,-5.6219,-5.6219,-5.6219,-5.6219,-5.6219,-5.6219,-5.6219,-5.6219,-5.6219,-5.6219,-5.6219,-5.6219,-5.6219,-5.6219,-5.6219,-5.6219,-5.6219,-5.6219,-5.6219,-5.6219,-5.6146,-5.4274,-5.3627,-5.4572,-5.1785,-5.0452,-5.1608,-5.257,-5.3501,-5.4497,-5.5582,-5.588,-5.528,-5.6352,-5.6526,-5.5404,-5.5009,-5.3533,-5.0479,-4.8943,-4.7427,-4.5373,-4.4268,-4.3691,-4.3691,-4.3691,-4.3691,-4.3691,-4.3691,-4.3691,-4.3691,-4.3691,-4.3691,-4.3691,-4.3691,-4.3691,-4.3691,-4.3691,-4.3691,-4.3691,-4.3691,-4.3691,-4.3691,-4.3691,-4.3691,-4.3691,-4.3691,-4.3691,-4.3691,-4.3691,-4.3691,-4.3691,-4.3691,-4.3691,-4.3691,-4.3691,-4.3691,-4.3691,-4.3691,-4.3691,-4.3691,-4.3691,-4.3691,-4.7587,-4.7985,-5.1555,-5.335,-5.3951,-5.5509,-5.6219,-5.6219,-5.6219,-5.6219,-5.6219,-5.6219,-5.6219,-5.6219,-5.6219,-5.6219,-5.6219,-5.6219,-5.6219,-5.6219,-5.6219,-5.6219,-5.6219,-5.6219,-5.6219,-5.6219,-5.6219,-5.6219,-5.6219,-5.6219,-5.6219,-5.6219,-5.6219,-5.6219,-5.6219,-5.6219,-5.6219,-5.6219,-5.6219,-5.6219,-5.6219,-5.6219,-5.6219,-5.6219,-5.6219,-5.6219,-5.6219,-5.6219,-5.6219,-5.6219,-5.6219,-5.6219,-5.612,-5.4249,-5.3801,-5.4967,-5.2014,-5.0939,-5.2873,-5.2622,-5.2622,-5.31,-5.41,-5.4124,-5.2798,-5.3876,-5.4175,-5.2722,-5.2418,-5.0862,-4.7826,-4.6968,-4.6001,-4.4021,-4.3691,-4.3691,-4.3691,-4.3691,-4.3691,-4.3691,-4.3691,-4.3691,-4.3691,-4.3691,-4.3691,-4.3691,-4.3691,-4.3691,-4.3691,-4.3691,-4.3691,-4.3691,-4.3691,-4.3691,-4.3691,-4.3691,-4.3691,-4.3691,-4.3691,-4.3691,-4.3691,-4.3691,-4.3691,-4.3691,-4.3691,-4.3691,-4.3691,-4.3691,-4.3691,-4.3691,-4.3691,-4.3691,-4.3691,-4.3691,-4.3691,-4.9674,-5.0086,-5.2242,-5.4199,-5.5827,-5.612,-5.6219,-5.6219,-5.6219,-5.6219,-5.6219,-5.6219,-5.6219,-5.6219,-5.6219,-5.6219,-5.6219,-5.6219,-5.6219,-5.6219,-5.6219,-5.6219,-5.6219,-5.6219,-5.6219,-5.6219,-5.6219,-5.6219,-5.6219,-5.6219,-5.6219,-5.6219,-5.6219,-5.6219,-5.6219,-5.6219,-5.6219,-5.6219,-5.6219,-5.6219,-5.6219,-5.6219,-5.6219,-5.6219,-5.6219,-5.6219,-5.6219,-5.6219,-5.6219,-5.6219,-5.6219,-5.6219,-5.5974,-5.4274,-5.3251,-5.3401,-5.1301,-5.0939,-5.2722,-5.1324,-5.1148,-5.2722,-5.1555,-5.0685,-5.0297,-5.0452,-5.053,-5.022,-5.022,-4.9204,-4.7086,-4.6706,-4.5839,-4.4021,-4.3691,-4.3691,-4.3691,-4.3691,-4.3691,-4.3691,-4.3691,-4.3691,-4.3691,-4.3691,-4.3691,-4.3691,-4.3691,-4.3691,-4.3691,-4.3691,-4.3691,-4.3691,-4.3691,-4.3691,-4.3691,-4.3691,-4.3691,-4.3691,-4.3691,-4.3691,-4.3691,-4.3691,-4.3691,-4.3691,-4.3691,-4.3691,-4.3691,-4.3691,-4.3691,-4.3691,-4.3691,-4.3691,-4.3691,-4.3691,-4.3691,-5.1861,-5.2014,-5.4025,-5.5435,-5.6146,-5.6219,-5.6219,-5.6219,-5.6219,-5.6219,-5.6219,-5.6219,-5.6219,-5.6219,-5.6219,-5.6219,-5.6219,-5.6219,-5.6219,-5.6219,-5.6219,-5.6219,-5.6219,-5.6219,-5.6219,-5.6219,-5.6219,-5.6219,-5.6219,-5.6219,-5.6219,-5.6219,-5.6219,-5.6219,-5.6219,-5.6219,-5.6219,-5.6219,-5.6219,-5.6219,-5.6219,-5.6219,-5.6219,-5.6219,-5.6219,-5.6219,-5.6219,-5.6219,-5.6219,-5.6219,-5.6219,-5.6219,-5.6219,-5.5361,-5.4967,-5.4819,-5.3025,-5.2166,-5.3025,-5.117,-5.0375,-5.1247,-5.0475,-4.954,-4.828,-4.8122,-4.7645,-4.6626,-4.7427,-4.7267,-4.5352,-4.4965,-4.4576,-4.3856,-4.3691,-4.3691,-4.3691,-4.3691,-4.3691,-4.3691,-4.3691,-4.3691,-4.3691,-4.3691,-4.3691,-4.3691,-4.3691,-4.3691,-4.3691,-4.3691,-4.3691,-4.3691,-4.3691,-4.3691,-4.3691,-4.3691,-4.3691,-4.3691,-4.3691,-4.3691,-4.3691,-4.3691,-4.3691,-4.3691,-4.3691,-4.3691,-4.3691,-4.3691,-4.3691,-4.3691,-4.3691,-4.3691,-4.3691,-4.3691,-4.3691,-5.3951,-5.4175,-5.5582,-5.6219,-5.6219,-5.6219,-5.6219,-5.6219,-5.6219,-5.6219,-5.6219,-5.6219,-5.6219,-5.6219,-5.6219,-5.6219,-5.6219,-5.6219,-5.6219,-5.6219,-5.6219,-5.6219,-5.6219,-5.6219,-5.6219,-5.6219,-5.6219,-5.6219,-5.6219,-5.6219,-5.6219,-5.6219,-5.6219,-5.6219,-5.6219,-5.6219,-5.6219,-5.6219,-5.6219,-5.6219,-5.6219,-5.6219,-5.6219,-5.6219,-5.6219,-5.6219,-5.6219,-5.6219,-5.6219,-5.6219,-5.6219,-5.6219,-5.6219,-5.5681,-5.5115,-5.4497,-5.31,-5.2242,-5.2242,-5.0297,-4.9148,-4.9148,-4.8676,-4.7645,-4.6304,-4.6001,-4.5291,-4.4186,-4.5128,-4.5291,-4.4103,-4.3691,-4.3691,-4.3691,-4.3691,-4.3691,-4.3691,-4.3691,-4.3691,-4.3691,-4.3691,-4.3691,-4.3691,-4.3691,-4.3691,-4.3691,-4.3691,-4.3691,-4.3691,-4.3691,-4.3691,-4.3691,-4.3691,-4.3691,-4.3691,-4.3691,-4.3691,-4.3691,-4.3691,-4.3691,-4.3691,-4.3691,-4.3691,-4.3691,-4.3691,-4.3691,-4.3691,-4.3691,-4.3691,-4.3691,-4.3691,-4.3691,-4.3691,-4.3691,-4.3691,-5.6047,-5.6047,-5.6146,-5.6219,-5.6219,-5.6219,-5.6219,-5.6219,-5.6219,-5.6219,-5.6219,-5.6219,-5.6219,-5.6219,-5.6219,-5.6219,-5.6219,-5.6219,-5.6219,-5.6219,-5.6219,-5.6219,-5.6219,-5.6219,-5.6219,-5.6219,-5.6219,-5.6219,-5.6219,-5.6219,-5.6219,-5.6219,-5.6219,-5.6219,-5.6219,-5.6219,-5.6219,-5.6219,-5.6219,-5.6219,-5.6219,-5.6219,-5.6219,-5.6219,-5.6219,-5.6219,-5.6219,-5.6219,-5.6219,-5.6219,-5.6219,-5.6219,-5.6047,-5.4423,-5.2722,-5.0993,-5.0397,-5.0242,-4.9986,-4.8201,-4.6947,-4.6807,-4.5454,-4.4103,-4.4166,-4.4166,-4.4021,-4.3691,-4.3939,-4.3939,-4.3774,-4.3691,-4.3691,-4.3691,-4.3691,-4.3691,-4.3691,-4.3691,-4.3691,-4.3691,-4.3691,-4.3691,-4.3691,-4.3691,-4.3691,-4.3691,-4.3691,-4.3691,-4.3691,-4.3691,-4.3691,-4.3691,-4.3691,-4.3691,-4.3691,-4.3691,-4.3691,-4.3691,-4.3691,-4.3691,-4.3691,-4.3691,-4.3691,-4.3691,-4.3691,-4.3691,-4.3691,-4.3691,-4.3691,-4.3691,-4.3691,-4.3691,-4.3691,-4.3691,-4.3691,-5.6219,-5.6219,-5.6219,-5.6219,-5.6219,-5.6219,-5.6219,-5.6219,-5.6219,-5.6219,-5.6219,-5.6219,-5.6219,-5.6219,-5.6219,-5.6219,-5.6219,-5.6219,-5.6219,-5.6219,-5.6219,-5.6219,-5.6219,-5.6219,-5.6219,-5.6219,-5.6219,-5.6219,-5.6219,-5.6219,-5.6219,-5.6219,-5.6219,-5.6219,-5.6219,-5.6219,-5.6219,-5.6219,-5.6219,-5.6219,-5.6219,-5.6219,-5.6219,-5.6219,-5.6219,-5.6219,-5.6219,-5.6219,-5.6219,-5.6219,-5.6219,-5.6219,-5.6146,-5.5509,-5.4794,-5.3801,-5.1455,-5.0009,-4.9618,-4.6706,-4.4802,-4.4822,-4.4186,-4.3691,-4.3691,-4.3691,-4.3691,-4.3691,-4.3691,-4.3691,-4.3691,-4.3691,-4.3691,-4.3691,-4.3691,-4.3691,-4.3691,-4.3691,-4.3691,-4.3691,-4.3691,-4.3691,-4.3691,-4.3691,-4.3691,-4.3691,-4.3691,-4.3691,-4.3691,-4.3691,-4.3691,-4.3691,-4.3691,-4.3691,-4.3691,-4.3691,-4.3691,-4.3691,-4.3691,-4.3691,-4.3691,-4.3691,-4.3691,-4.3691,-4.3691,-4.3691,-4.3691,-4.3691,-4.3691,-4.3691,-4.3691,-4.3691,-4.3691,-4.3691,-4.3691,-5.6219,-5.6219,-5.6219,-5.6219,-5.6219,-5.6219,-5.6219,-5.6219,-5.6219,-5.6219,-5.6219,-5.6219,-5.6219,-5.6219,-5.6219,-5.6219,-5.6219,-5.6219,-5.6219,-5.6219,-5.6219,-5.6219,-5.6219,-5.6219,-5.6219,-5.6219,-5.6219,-5.6219,-5.6219,-5.6219,-5.6219,-5.6219,-5.6219,-5.6219,-5.6219,-5.6219,-5.6219,-5.6219,-5.6219,-5.6219,-5.6219,-5.6219,-5.6219,-5.6219,-5.6219,-5.6219,-5.6219,-5.6219,-5.6219,-5.6219,-5.6219,-5.5901,-5.5263,-5.4572,-5.3876,-5.2925,-4.9808,-4.7942,-4.7725,-4.5291,-4.3691,-4.3691,-4.3691,-4.3691,-4.3691,-4.3691,-4.3691,-4.3691,-4.3691,-4.3691,-4.3691,-4.3691,-4.3691,-4.3691,-4.3691,-4.3691,-4.3691,-4.3691,-4.3691,-4.3691,-4.3691,-4.3691,-4.3691,-4.3691,-4.3691,-4.3691,-4.3691,-4.3691,-4.3691,-4.3691,-4.3691,-4.3691,-4.3691,-4.3808,-4.3926,-4.4023,-4.3828,-4.3789,-4.3808,-4.3789,-4.3808,-4.3789,-4.3769,-4.373,-4.3711,-4.3711,-4.3711,-4.3711,-4.3711,-4.3711,-4.3691,-4.3691,-4.3691,-4.3691,-4.3691,-5.6219,-5.6219,-5.6219,-5.6219,-5.6219,-5.6219,-5.6219,-5.6219,-5.6219,-5.6219,-5.6219,-5.6219,-5.6219,-5.6219,-5.6219,-5.6219,-5.6219,-5.6219,-5.6219,-5.6219,-5.6219,-5.6219,-5.6219,-5.6219,-5.6219,-5.6219,-5.6219,-5.6219,-5.6219,-5.6219,-5.6219,-5.6219,-5.6219,-5.6219,-5.6219,-5.6219,-5.6219,-5.6219,-5.6219,-5.6219,-5.6219,-5.6219,-5.6219,-5.6219,-5.6219,-5.6219,-5.6219,-5.6219,-5.6219,-5.6219,-5.6219,-5.5214,-5.3401,-5.1785,-4.9518,-4.7963,-4.5373,-4.4103,-4.4103,-4.3939,-4.3691,-4.3691,-4.3691,-4.3691,-4.3691,-4.3691,-4.3691,-4.3691,-4.3691,-4.3691,-4.3691,-4.3691,-4.3691,-4.3691,-4.3691,-4.3691,-4.3691,-4.3691,-4.3691,-4.3691,-4.3691,-4.3691,-4.3691,-4.3691,-4.3691,-4.3691,-4.375,-4.3789,-4.3828,-4.3887,-4.3789,-4.3789,-4.3945,-4.4141,-4.4277,-4.4375,-4.4121,-4.3926,-4.3945,-4.3965,-4.4062,-4.4082,-4.4121,-4.4101,-4.4121,-4.4101,-4.4082,-4.4062,-4.3906,-4.3867,-4.3808,-4.373,-4.3691,-4.3691,-4.3691,-5.6219,-5.6219,-5.6219,-5.6219,-5.6219,-5.6219,-5.6219,-5.6219,-5.6219,-5.6219,-5.6219,-5.6219,-5.6219,-5.6219,-5.6219,-5.6219,-5.6219,-5.6219,-5.6219,-5.6219,-5.6219,-5.6219,-5.6219,-5.6219,-5.6219,-5.6219,-5.6219,-5.6219,-5.6219,-5.6219,-5.6219,-5.6219,-5.6219,-5.6219,-5.6219,-5.6219,-5.6219,-5.6219,-5.6219,-5.6219,-5.6219,-5.6219,-5.6219,-5.6219,-5.6219,-5.6219,-5.6219,-5.6219,-5.6219,-5.6219,-5.6219,-5.5263,-5.3401,-5.2471,-5.1148,-4.9126,-4.7027,-4.5839,-4.5596,-4.4494,-4.3691,-4.3691,-4.3691,-4.3691,-4.3691,-4.3691,-4.3691,-4.3691,-4.3691,-4.3691,-4.3691,-4.3691,-4.3711,-4.3711,-4.3691,-4.3691,-4.3711,-4.3711,-4.3691,-4.3691,-4.3691,-4.3691,-4.3711,-4.373,-4.3769,-4.3808,-4.3984,-4.418,-4.4199,-4.4375,-4.4609,-4.4609,-4.4629,-4.457,-4.4726,-4.4844,-4.4746,-4.4551,-4.4492,-4.4336,-4.4394,-4.4414,-4.4453,-4.4473,-4.4492,-4.4492,-4.4473,-4.4375,-4.4238,-4.4062,-4.4023,-4.3906,-4.375,-4.375,-4.3808,-5.6219,-5.6219,-5.6219,-5.6219,-5.6219,-5.6219,-5.6219,-5.6219,-5.6219,-5.6219,-5.6219,-5.6219,-5.6219,-5.6219,-5.6219,-5.6219,-5.6219,-5.6219,-5.6219,-5.6219,-5.6219,-5.6219,-5.6219,-5.6219,-5.6219,-5.6219,-5.6219,-5.6219,-5.6219,-5.6219,-5.6219,-5.6219,-5.6219,-5.6219,-5.6219,-5.6219,-5.6219,-5.6219,-5.6219,-5.6219,-5.6219,-5.6219,-5.6219,-5.6219,-5.6219,-5.6219,-5.6219,-5.6219,-5.6219,-5.6219,-5.6219,-5.5509,-5.4274,-5.2873,-5.1301,-4.983,-4.7406,-4.5596,-4.5515,-4.433,-4.3691,-4.3691,-4.3691,-4.3691,-4.3691,-4.3691,-4.3691,-4.3691,-4.3691,-4.3691,-4.3691,-4.3691,-4.3769,-4.3965,-4.3808,-4.3711,-4.373,-4.3867,-4.3965,-4.4023,-4.4121,-4.418,-4.4199,-4.4199,-4.4199,-4.4238,-4.4433,-4.4629,-4.4668,-4.4844,-4.498,-4.5039,-4.4941,-4.498,-4.5195,-4.5293,-4.5351,-4.5254,-4.5156,-4.4941,-4.4824,-4.4824,-4.4824,-4.4805,-4.4824,-4.4785,-4.4766,-4.4726,-4.4609,-4.4453,-4.4336,-4.4277,-4.4219,-4.4062,-4.4043,-5.6219,-5.6219,-5.6219,-5.6219,-5.6219,-5.6219,-5.6219,-5.6219,-5.6219,-5.6219,-5.6219,-5.6219,-5.6219,-5.6219,-5.6219,-5.6219,-5.6219,-5.6219,-5.6219,-5.6219,-5.6219,-5.6219,-5.6219,-5.6219,-5.6219,-5.6219,-5.6219,-5.6219,-5.6219,-5.6219,-5.6219,-5.6219,-5.6219,-5.6219,-5.6219,-5.6219,-5.6219,-5.6219,-5.6219,-5.6219,-5.6219,-5.6219,-5.6219,-5.6219,-5.6219,-5.6219,-5.6219,-5.6219,-5.6219,-5.6219,-5.6219,-5.5974,-5.5189,-5.2242,-5.053,-4.9596,-4.5981,-4.4494,-4.3939,-4.3856,-4.3691,-4.3691,-4.3691,-4.3691,-4.3691,-4.3691,-4.3691,-4.3691,-4.3691,-4.373,-4.3769,-4.3789,-4.4004,-4.4297,-4.4141,-4.3926,-4.3848,-4.4199,-4.4394,-4.4492,-4.4766,-4.5,-4.4902,-4.4902,-4.4922,-4.4941,-4.498,-4.5058,-4.5098,-4.5176,-4.5137,-4.5195,-4.5351,-4.5449,-4.5683,-4.5703,-4.5742,-4.5742,-4.5664,-4.5508,-4.5332,-4.5332,-4.5332,-4.5293,-4.5215,-4.5156,-4.5137,-4.5156,-4.5098,-4.5,-4.4902,-4.4805,-4.4648,-4.4492,-4.4277,-5.6219,-5.6219,-5.6219,-5.6219,-5.6219,-5.6219,-5.6219,-5.6219,-5.6219,-5.6219,-5.6219,-5.6219,-5.6219,-5.6219,-5.6219,-5.6219,-5.6219,-5.6219,-5.6219,-5.6219,-5.6219,-5.6219,-5.6219,-5.6219,-5.6219,-5.6219,-5.6219,-5.6219,-5.6219,-5.6219,-5.6219,-5.6219,-5.6219,-5.6219,-5.6219,-5.6219,-5.6219,-5.6219,-5.6219,-5.6269,-5.6269,-5.6269,-5.6219,-5.6219,-5.6244,-5.6244,-5.6219,-5.6219,-5.6219,-5.6219,-5.6219,-5.5435,-5.4274,-5.2873,-5.0993,-4.8338,-4.6867,-4.5311,-4.4103,-4.3711,-4.3691,-4.3691,-4.3691,-4.3691,-4.3691,-4.3691,-4.3691,-4.3691,-4.3711,-4.3867,-4.4121,-4.4238,-4.4433,-4.4766,-4.4746,-4.4648,-4.4648,-4.4766,-4.4863,-4.4883,-4.498,-4.5078,-4.5117,-4.5098,-4.5098,-4.5156,-4.5312,-4.5508,-4.5527,-4.5703,-4.5742,-4.5898,-4.6035,-4.6055,-4.6094,-4.6113,-4.6152,-4.6172,-4.6133,-4.6074,-4.5976,-4.5957,-4.5976,-4.5996,-4.582,-4.5742,-4.5742,-4.5762,-4.5664,-4.5508,-4.5293,-4.5137,-4.5,-4.4844,-4.4648,-5.6219,-5.6219,-5.6219,-5.6219,-5.6219,-5.6219,-5.6219,-5.6219,-5.6219,-5.6219,-5.6219,-5.6219,-5.6219,-5.6219,-5.6219,-5.6219,-5.6219,-5.6219,-5.6219,-5.6219,-5.6219,-5.6219,-5.6219,-5.6219,-5.6219,-5.6219,-5.6219,-5.6219,-5.6219,-5.6219,-5.6219,-5.6219,-5.6219,-5.6219,-5.6244,-5.6445,-5.6545,-5.662,-5.6746,-5.6922,-5.6922,-5.6922,-5.6922,-5.6922,-5.6922,-5.6846,-5.6595,-5.6344,-5.6219,-5.6219,-5.6146,-5.5582,-5.4497,-5.3501,-5.1937,-4.944,-4.7963,-4.6244,-4.521,-4.4248,-4.3691,-4.3691,-4.3691,-4.3691,-4.3691,-4.3711,-4.373,-4.3984,-4.3984,-4.4219,-4.457,-4.4805,-4.5039,-4.5273,-4.5449,-4.541,-4.5098,-4.5176,-4.5273,-4.5332,-4.5449,-4.5566,-4.5547,-4.5547,-4.5547,-4.5625,-4.5801,-4.5898,-4.5957,-4.6191,-4.6308,-4.6308,-4.6308,-4.625,-4.6211,-4.623,-4.623,-4.6289,-4.6289,-4.6308,-4.6308,-4.6308,-4.6269,-4.625,-4.6289,-4.6269,-4.6172,-4.6113,-4.6035,-4.5859,-4.5644,-4.5488,-4.5391,-4.5293,-4.5078,-5.6219,-5.6219,-5.6219,-5.6219,-5.6219,-5.6219,-5.6219,-5.6219,-5.6219,-5.6219,-5.6219,-5.6219,-5.6219,-5.6219,-5.6219,-5.6219,-5.6219,-5.6219,-5.6219,-5.6219,-5.6219,-5.6219,-5.6219,-5.6219,-5.6219,-5.6219,-5.6219,-5.6219,-5.6219,-5.6219,-5.6269,-5.6369,-5.6344,-5.6394,-5.662,-5.6922,-5.7097,-5.7198,-5.7499,-5.7675,-5.77,-5.77,-5.7675,-5.7675,-5.77,-5.7499,-5.7123,-5.6746,-5.6495,-5.642,-5.6269,-5.6146,-5.5827,-5.4274,-5.3251,-5.2242,-4.9361,-4.7246,-4.6465,-4.474,-4.3691,-4.3711,-4.3769,-4.3789,-4.3848,-4.3926,-4.4121,-4.4433,-4.4453,-4.4668,-4.5058,-4.5469,-4.5664,-4.5762,-4.6055,-4.5879,-4.5469,-4.5508,-4.5742,-4.5762,-4.6094,-4.625,-4.6308,-4.6308,-4.6269,-4.5957,-4.6113,-4.6113,-4.6152,-4.623,-4.6308,-4.6308,-4.6308,-4.6308,-4.6289,-4.6289,-4.6289,-4.6308,-4.6308,-4.6308,-4.6308,-4.6308,-4.6308,-4.6308,-4.6308,-4.6308,-4.6269,-4.625,-4.625,-4.6211,-4.5976,-4.5898,-4.584,-4.5762,-4.5605,-5.6219,-5.6219,-5.6219,-5.6219,-5.6219,-5.6219,-5.6219,-5.6219,-5.6219,-5.6219,-5.6219,-5.6219,-5.6219,-5.6219,-5.6219,-5.6219,-5.6219,-5.6219,-5.6219,-5.6219,-5.6219,-5.6219,-5.6219,-5.6219,-5.6219,-5.6219,-5.6219,-5.6219,-5.6244,-5.6319,-5.647,-5.6821,-5.6897,-5.7072,-5.7449,-5.7575,-5.77,-5.775,-5.7876,-5.7976,-5.8001,-5.8001,-5.8001,-5.8001,-5.7951,-5.7876,-5.775,-5.76,-5.7549,-5.7349,-5.6771,-5.6344,-5.6198,-5.578,-5.4843,-5.3219,-5.0985,-4.8697,-4.6888,-4.5291,-4.3711,-4.3808,-4.4082,-4.4258,-4.4277,-4.4531,-4.4726,-4.4883,-4.4902,-4.5078,-4.5488,-4.5918,-4.6074,-4.6152,-4.6211,-4.623,-4.6074,-4.6094,-4.6113,-4.6172,-4.6211,-4.6308,-4.6308,-4.6308,-4.6308,-4.6308,-4.6308,-4.6308,-4.6308,-4.6308,-4.6308,-4.6308,-4.6308,-4.6308,-4.6308,-4.6308,-4.6308,-4.6308,-4.6308,-4.6308,-4.6308,-4.6308,-4.6308,-4.6308,-4.6308,-4.6308,-4.6308,-4.6308,-4.6269,-4.6289,-4.6308,-4.6191,-4.6094,-4.6113,-4.6035,-5.6219,-5.6219,-5.6219,-5.6219,-5.6219,-5.6219,-5.6219,-5.6219,-5.6219,-5.6219,-5.6219,-5.6219,-5.6219,-5.6219,-5.6219,-5.6219,-5.6219,-5.6219,-5.6219,-5.6219,-5.6219,-5.6219,-5.6219,-5.6219,-5.6219,-5.6219,-5.6219,-5.6319,-5.652,-5.6646,-5.6897,-5.7399,-5.7449,-5.7549,-5.7926,-5.8152,-5.8278,-5.8353,-5.8554,-5.8629,-5.8654,-5.8654,-5.8654,-5.8579,-5.8428,-5.8278,-5.8278,-5.8001,-5.7901,-5.775,-5.7349,-5.6997,-5.6997,-5.6997,-5.6352,-5.5353,-5.3353,-5.1232,-4.917,-4.711,-4.5463,-4.4297,-4.457,-4.4648,-4.4707,-4.4922,-4.5117,-4.5273,-4.5371,-4.5508,-4.5918,-4.6113,-4.6289,-4.6308,-4.6308,-4.6308,-4.6308,-4.6308,-4.6308,-4.6308,-4.6289,-4.6308,-4.6308,-4.6308,-4.6308,-4.6308,-4.6308,-4.6308,-4.6308,-4.6308,-4.6308,-4.6308,-4.6308,-4.6308,-4.6308,-4.6308,-4.6308,-4.6308,-4.6308,-4.6308,-4.6308,-4.6308,-4.6308,-4.6308,-4.6308,-4.6308,-4.6308,-4.6308,-4.6308,-4.6308,-4.6308,-4.6308,-4.6289,-4.6211,-4.6172,-5.6219,-5.6219,-5.6219,-5.6219,-5.6219,-5.6219,-5.6219,-5.6219,-5.6219,-5.6219,-5.6219,-5.6219,-5.6219,-5.6219,-5.6219,-5.6219,-5.6219,-5.6219,-5.6219,-5.6219,-5.6219,-5.6219,-5.6244,-5.6319,-5.642,-5.6344,-5.6394,-5.6646,-5.7047,-5.7198,-5.7474,-5.7926,-5.8027,-5.8152,-5.8278,-5.8579,-5.883,-5.888,-5.9156,-5.9332,-5.9357,-5.9357,-5.9357,-5.9282,-5.9056,-5.8855,-5.8755,-5.8504,-5.8227,-5.8152,-5.8152,-5.8127,-5.8102,-5.7926,-5.7574,-5.7298,-5.4682,-5.2319,-5.0059,-4.8373,-4.6548,-4.5104,-4.5098,-4.5117,-4.5137,-4.5254,-4.5488,-4.5644,-4.5801,-4.5898,-4.625,-4.6289,-4.6289,-4.6308,-4.6308,-4.6308,-4.6308,-4.6308,-4.6308,-4.6308,-4.6308,-4.6308,-4.6308,-4.6308,-4.6308,-4.6308,-4.6308,-4.6308,-4.6308,-4.6308,-4.6308,-4.6308,-4.6308,-4.6308,-4.6308,-4.6308,-4.6308,-4.6308,-4.6308,-4.6308,-4.6308,-4.6308,-4.6308,-4.6308,-4.6308,-4.6308,-4.6308,-4.6308,-4.6308,-4.6308,-4.6308,-4.6308,-4.6308,-4.6308,-4.6269,-5.6219,-5.6219,-5.6219,-5.6219,-5.6219,-5.6219,-5.6219,-5.6219,-5.6219,-5.6219,-5.6219,-5.6219,-5.6219,-5.6219,-5.6219,-5.6219,-5.6219,-5.6219,-5.6219,-5.6219,-5.6219,-5.6219,-5.6369,-5.6646,-5.6872,-5.6897,-5.6972,-5.7273,-5.7625,-5.7775,-5.8052,-5.8478,-5.8579,-5.873,-5.9031,-5.9332,-5.9307,-5.9257,-5.9433,-5.9483,-5.9508,-5.9508,-5.9508,-5.9483,-5.9332,-5.9307,-5.9332,-5.9257,-5.9232,-5.9232,-5.9232,-5.9207,-5.875,-5.815,-5.7092,-5.5535,-5.3613,-5.1644,-4.9368,-4.7108,-4.5698,-4.5183,-4.5371,-4.5547,-4.5644,-4.584,-4.5976,-4.6074,-4.6152,-4.623,-4.6289,-4.6308,-4.6308,-4.6308,-4.6308,-4.6308,-4.6308,-4.6308,-4.6308,-4.6308,-4.6308,-4.6308,-4.6308,-4.6308,-4.6308,-4.6308,-4.6308,-4.6308,-4.6308,-4.6308,-4.6308,-4.6308,-4.6308,-4.6308,-4.6308,-4.6308,-4.6308,-4.6308,-4.6308,-4.6308,-4.6308,-4.6308,-4.6308,-4.6308,-4.6308,-4.6308,-4.6308,-4.6308,-4.6308,-4.6308,-4.6308,-4.6308,-4.6308,-4.6308,-4.6308,-5.6219,-5.6219,-5.6219,-5.6219,-5.6219,-5.6219,-5.6219,-5.6219,-5.6219,-5.6219,-5.6219,-5.6219,-5.6219,-5.6219,-5.6219,-5.6219,-5.6219,-5.6219,-5.6219,-5.6219,-5.6219,-5.6394,-5.6595,-5.6947,-5.7424,-5.775,-5.7926,-5.8001,-5.8278,-5.8328,-5.8604,-5.9006,-5.9131,-5.9257,-5.9433,-5.9458,-5.9508,-5.9508,-5.9508,-5.9508,-5.9508,-5.9508,-5.9508,-5.9508,-5.9508,-5.9508,-5.9508,-5.9508,-5.9483,-5.9483,-5.9483,-5.8837,-5.8015,-5.7301,-5.6522,-5.5115,-5.3233,-5.1142,-4.9258,-4.7742,-4.7103,-4.5876,-4.5898,-4.5976,-4.6035,-4.6152,-4.6289,-4.6308,-4.6308,-4.6308,-4.6308,-4.6308,-4.6308,-4.6308,-4.6308,-4.6308,-4.6308,-4.6308,-4.6308,-4.6308,-4.6308,-4.6308,-4.6308,-4.6308,-4.6308,-4.6308,-4.6308,-4.6308,-4.6308,-4.6308,-4.6308,-4.6308,-4.6308,-4.6308,-4.6308,-4.6308,-4.6308,-4.6308,-4.6308,-4.6308,-4.6308,-4.6308,-4.6308,-4.6308,-4.6308,-4.6308,-4.6308,-4.6308,-4.6308,-4.6308,-4.6308,-4.6308,-4.6308,-4.6308,-4.6308,-5.6219,-5.6219,-5.6219,-5.6219,-5.6219,-5.6219,-5.6219,-5.6219,-5.6219,-5.6219,-5.6219,-5.6219,-5.6219,-5.6219,-5.6219,-5.6219,-5.6219,-5.6219,-5.6219,-5.6244,-5.6394,-5.6646,-5.6947,-5.7399,-5.7851,-5.8428,-5.8755,-5.888,-5.8855,-5.888,-5.9131,-5.9332,-5.9483,-5.9508,-5.9508,-5.9508,-5.9508,-5.9508,-5.9508,-5.9508,-5.9508,-5.9508,-5.9508,-5.9508,-5.9508,-5.9508,-5.9508,-5.9508,-5.9508,-5.9508,-5.9328,-5.85,-5.6558,-5.5815,-5.5309,-5.4662,-5.3191,-5.1282,-4.9425,-4.8657,-4.75,-4.6327,-4.625,-4.6289,-4.6269,-4.6269,-4.6308,-4.6308,-4.6308,-4.6308,-4.6308,-4.6308,-4.6308,-4.6308,-4.6308,-4.6308,-4.6308,-4.6308,-4.6308,-4.6308,-4.6308,-4.6308,-4.6308,-4.6308,-4.6308,-4.6308,-4.6308,-4.6308,-4.6308,-4.6308,-4.6308,-4.6308,-4.6308,-4.6308,-4.6308,-4.6308,-4.6308,-4.6308,-4.6308,-4.6308,-4.6308,-4.6308,-4.6308,-4.6308,-4.6308,-4.6308,-4.6308,-4.6308,-4.6308,-4.6308,-4.6308,-4.6308,-4.6308,-4.6308,-4.6308,-5.6219,-5.6219,-5.6219,-5.6219,-5.6219,-5.6219,-5.6219,-5.6219,-5.6219,-5.6219,-5.6219,-5.6219,-5.6219,-5.6219,-5.6219,-5.6219,-5.6219,-5.6219,-5.6244,-5.6344,-5.6671,-5.6972,-5.7174,-5.8152,-5.8403,-5.8855,-5.9182,-5.9382,-5.9332,-5.9332,-5.9382,-5.9483,-5.9508,-5.9508,-5.9508,-5.9508,-5.9508,-5.9508,-5.9508,-5.9508,-5.9508,-5.9508,-5.9508,-5.9508,-5.9508,-5.9508,-5.9508,-5.9508,-5.9508,-5.9508,-5.9508,-5.8422,-5.6399,-5.4255,-5.2343,-5.103,-4.9871,-4.9041,-4.7381,-4.7054,-4.7054,-4.6376,-4.6308,-4.6308,-4.6308,-4.6308,-4.6308,-4.6308,-4.6308,-4.6308,-4.6308,-4.6308,-4.6308,-4.6308,-4.6308,-4.6308,-4.6308,-4.6308,-4.6308,-4.6308,-4.6308,-4.6308,-4.6308,-4.6308,-4.6308,-4.6308,-4.6308,-4.6308,-4.6308,-4.6308,-4.6308,-4.6308,-4.6308,-4.6308,-4.6308,-4.6308,-4.6308,-4.6308,-4.6308,-4.6308,-4.6308,-4.6308,-4.6308,-4.6308,-4.6308,-4.6308,-4.6308,-4.6308,-4.6308,-4.6308,-4.6308,-4.6308,-4.6308,-4.6308,-4.6308,-5.6219,-5.6219,-5.6219,-5.6219,-5.6219,-5.6219,-5.6219,-5.6219,-5.6219,-5.6219,-5.6219,-5.6219,-5.6219,-5.6219,-5.6219,-5.6219,-5.6219,-5.6219,-5.642,-5.6646,-5.6972,-5.7374,-5.8001,-5.8504,-5.8805,-5.9156,-5.9357,-5.9433,-5.9508,-5.9508,-5.9508,-5.9508,-5.9508,-5.9508,-5.9508,-5.9508,-5.9508,-5.9508,-5.9508,-5.9508,-5.9508,-5.9508,-5.9508,-5.9508,-5.9508,-5.9508,-5.9508,-5.9508,-5.9508,-5.9508,-5.9508,-5.8422,-5.6295,-5.4174,-5.1927,-4.9871,-4.8376,-4.7381,-4.6464,-4.6308,-4.6308,-4.6308,-4.6308,-4.6308,-4.6308,-4.6308,-4.6308,-4.6308,-4.6308,-4.6308,-4.6308,-4.6308,-4.6308,-4.6308,-4.6308,-4.6308,-4.6308,-4.6308,-4.6308,-4.6308,-4.6308,-4.6308,-4.6308,-4.6308,-4.6308,-4.6308,-4.6308,-4.6308,-4.6308,-4.6308,-4.6308,-4.6308,-4.6308,-4.6308,-4.6308,-4.6308,-4.6308,-4.6308,-4.6308,-4.6308,-4.6308,-4.6308,-4.6308,-4.6308,-4.6308,-4.6308,-4.6308,-4.6308,-4.6308,-4.6308,-4.6308,-4.6308,-4.6308,-4.6308,-4.6308,-5.6219,-5.6219,-5.6219,-5.6219,-5.6219,-5.6219,-5.6219,-5.6219,-5.6219,-5.6219,-5.6219,-5.6219,-5.6219,-5.6219,-5.6219,-5.6219,-5.6219,-5.6344,-5.6646,-5.6972,-5.7399,-5.7951,-5.8478,-5.883,-5.9131,-5.9508,-5.9458,-5.9508,-5.9508,-5.9508,-5.9508,-5.9508,-5.9508,-5.9508,-5.9508,-5.9508,-5.9508,-5.9508,-5.9508,-5.9508,-5.9508,-5.9508,-5.9508,-5.9508,-5.9508,-5.9508,-5.9508,-5.9508,-5.9508,-5.9508,-5.9508,-5.8266,-5.5389,-5.3661,-5.1365,-4.9126,-4.7228,-4.6638,-4.6396,-4.6308,-4.6308,-4.6308,-4.6308,-4.6308,-4.6308,-4.6308,-4.6308,-4.6308,-4.6308,-4.6308,-4.6308,-4.6308,-4.6308,-4.6308,-4.6308,-4.6308,-4.6308,-4.6308,-4.6308,-4.6308,-4.6308,-4.6308,-4.6308,-4.6308,-4.6308,-4.6308,-4.6308,-4.6308,-4.6308,-4.6308,-4.6308,-4.6308,-4.6308,-4.6308,-4.6308,-4.6308,-4.6308,-4.6308,-4.6308,-4.6308,-4.6308,-4.6308,-4.6308,-4.6308,-4.6308,-4.6308,-4.6308,-4.6308,-4.6308,-4.6308,-4.6308,-4.6308,-4.6308,-4.6308,-4.6308,-5.6219,-5.6219,-5.6219,-5.6219,-5.6219,-5.6219,-5.6219,-5.6219,-5.6219,-5.6219,-5.6219,-5.6219,-5.6219,-5.6219,-5.6219,-5.6244,-5.6269,-5.6746,-5.7022,-5.7449,-5.8027,-5.8504,-5.888,-5.9156,-5.9408,-5.9483,-5.9508,-5.9508,-5.9508,-5.9508,-5.9508,-5.9508,-5.9508,-5.9508,-5.9508,-5.9508,-5.9508,-5.9508,-5.9508,-5.9508,-5.9508,-5.9508,-5.9508,-5.9508,-5.9508,-5.9508,-5.9508,-5.9508,-5.9508,-5.9508,-5.9508,-5.7849,-5.4986,-5.3415,-5.1198,-4.8376,-4.6793,-4.6396,-4.6308,-4.6308,-4.6308,-4.6308,-4.6308,-4.6308,-4.6308,-4.6308,-4.6308,-4.6308,-4.6308,-4.6308,-4.6308,-4.6308,-4.6308,-4.6308,-4.6308,-4.6308,-4.6308,-4.6308,-4.6308,-4.6308,-4.6308,-4.6308,-4.6308,-4.6308,-4.6308,-4.6308,-4.6308,-4.6308,-4.6308,-4.6308,-4.6308,-4.6308,-4.6308,-4.6308,-4.6308,-4.6308,-4.6308,-4.6308,-4.6308,-4.6308,-4.6308,-4.6308,-4.6308,-4.6308,-4.6308,-4.6308,-4.6308,-4.6308,-4.6308,-4.6308,-4.6308,-4.6308,-4.6308,-4.6308,-4.6308,-5.6219,-5.6219,-5.6219,-5.6219,-5.6219,-5.6219,-5.6219,-5.6219,-5.6219,-5.6219,-5.6219,-5.6219,-5.6219,-5.6219,-5.6244,-5.642,-5.6696,-5.6897,-5.7424,-5.8001,-5.8529,-5.888,-5.9156,-5.9332,-5.9483,-5.9508,-5.9508,-5.9508,-5.9508,-5.9508,-5.9508,-5.9508,-5.9508,-5.9508,-5.9508,-5.9508,-5.9508,-5.9508,-5.9508,-5.9508,-5.9508,-5.9508,-5.9508,-5.9508,-5.9508,-5.9508,-5.9508,-5.9508,-5.9508,-5.9405,-5.9405,-5.7273,-5.4662,-5.3415,-5.1114,-4.8311,-4.6967,-4.6396,-4.6308,-4.6308,-4.6308,-4.6308,-4.6308,-4.6308,-4.6308,-4.6308,-4.6308,-4.6308,-4.6308,-4.6308,-4.6308,-4.6308,-4.6308,-4.6308,-4.6308,-4.6308,-4.6308,-4.6308,-4.6308,-4.6308,-4.6308,-4.6308,-4.6308,-4.6308,-4.6308,-4.6308,-4.6308,-4.6308,-4.6308,-4.6308,-4.6308,-4.6308,-4.6308,-4.6308,-4.6308,-4.6308,-4.6308,-4.6308,-4.6308,-4.6308,-4.6308,-4.6308,-4.6308,-4.6308,-4.6308,-4.6308,-4.6308,-4.6308,-4.6308,-4.6308,-4.6308,-4.6308,-4.6308,-4.6308,-4.6308,-5.6219,-5.6219,-5.6219,-5.6219,-5.6219,-5.6219,-5.6219,-5.6219,-5.6219,-5.6219,-5.6219,-5.6219,-5.6219,-5.6244,-5.6445,-5.662,-5.7047,-5.7449,-5.8027,-5.8504,-5.888,-5.9156,-5.9382,-5.9508,-5.9508,-5.9508,-5.9508,-5.9508,-5.9508,-5.9508,-5.9508,-5.9508,-5.9508,-5.9508,-5.9508,-5.9508,-5.9508,-5.9508,-5.9508,-5.9508,-5.9508,-5.9508,-5.9508,-5.9508,-5.9508,-5.9508,-5.9508,-5.9405,-5.8915,-5.8578,-5.8006,-5.6797,-5.4743,-5.2674,-5.0862,-4.8955,-4.7381,-4.6396,-4.6308,-4.6308,-4.6308,-4.6308,-4.6308,-4.6308,-4.6308,-4.6308,-4.6308,-4.6308,-4.6308,-4.6308,-4.6308,-4.6308,-4.6308,-4.6308,-4.6308,-4.6308,-4.6308,-4.6308,-4.6308,-4.6308,-4.6308,-4.6308,-4.6308,-4.6308,-4.6308,-4.6308,-4.6308,-4.6308,-4.6308,-4.6308,-4.6308,-4.6308,-4.6308,-4.6308,-4.6308,-4.6308,-4.6308,-4.6308,-4.6308,-4.6308,-4.6308,-4.6308,-4.6308,-4.6308,-4.6308,-4.6308,-4.6308,-4.6308,-4.6308,-4.6308,-4.6308,-4.6308,-4.6308,-4.6308,-4.6308,-5.6219,-5.6219,-5.6219,-5.6219,-5.6219,-5.6219,-5.6219,-5.6219,-5.6219,-5.6219,-5.6219,-5.6219,-5.6219,-5.6319,-5.6646,-5.6997,-5.7349,-5.8102,-5.8679,-5.8855,-5.9182,-5.9433,-5.9483,-5.9508,-5.9508,-5.9508,-5.9508,-5.9508,-5.9508,-5.9508,-5.9508,-5.9508,-5.9508,-5.9508,-5.9508,-5.9508,-5.9508,-5.9508,-5.9508,-5.9508,-5.9508,-5.9508,-5.9508,-5.9508,-5.9508,-5.9508,-5.8837,-5.8837,-5.8006,-5.651,-5.6295,-5.4499,-5.1198,-5.0526,-4.9041,-4.6967,-4.6551,-4.6308,-4.6308,-4.6308,-4.6308,-4.6308,-4.6308,-4.6308,-4.6308,-4.6308,-4.6308,-4.6308,-4.6308,-4.6308,-4.6308,-4.6308,-4.6308,-4.6308,-4.6308,-4.6308,-4.6308,-4.6308,-4.6308,-4.6308,-4.6308,-4.6308,-4.6308,-4.6308,-4.6308,-4.6308,-4.6308,-4.6308,-4.6308,-4.6308,-4.6308,-4.6308,-4.6308,-4.6308,-4.6308,-4.6308,-4.6308,-4.6308,-4.6308,-4.6308,-4.6308,-4.6308,-4.6308,-4.6308,-4.6308,-4.6308,-4.6308,-4.6308,-4.6308,-4.6308,-4.6308,-4.6308,-4.6308,-4.6308,-4.6308,-5.6219,-5.6219,-5.6219,-5.6219,-5.6219,-5.6219,-5.6219,-5.6219,-5.6219,-5.6219,-5.6219,-5.6219,-5.6219,-5.6369,-5.6821,-5.7273,-5.775,-5.8252,-5.8805,-5.9232,-5.9433,-5.9458,-5.9508,-5.9508,-5.9508,-5.9508,-5.9508,-5.9508,-5.9508,-5.9508,-5.9508,-5.9508,-5.9508,-5.9508,-5.9508,-5.9508,-5.9508,-5.9508,-5.9508,-5.9508,-5.9508,-5.9508,-5.9483,-5.9405,-5.9328,-5.8681,-5.7455,-5.7352,-5.6191,-5.4372,-5.3988,-5.2425,-4.9955,-4.9382,-4.8462,-4.6793,-4.6308,-4.6308,-4.6308,-4.6308,-4.6308,-4.6308,-4.6308,-4.6308,-4.6308,-4.6308,-4.6308,-4.6308,-4.6308,-4.6308,-4.6308,-4.6308,-4.6308,-4.6308,-4.6308,-4.6308,-4.6308,-4.6308,-4.6308,-4.6308,-4.6308,-4.6308,-4.6308,-4.6308,-4.6308,-4.6308,-4.6308,-4.6308,-4.6308,-4.6308,-4.6308,-4.6308,-4.6308,-4.6308,-4.6308,-4.6308,-4.6308,-4.6308,-4.6308,-4.6308,-4.6308,-4.6308,-4.6308,-4.6308,-4.6308,-4.6308,-4.6308,-4.6308,-4.6308,-4.6308,-4.6308,-4.6308,-4.6308,-4.6308,-4.6308,-5.6219,-5.6219,-5.6219,-5.6219,-5.6219,-5.6219,-5.6219,-5.6219,-5.6219,-5.6219,-5.6219,-5.6219,-5.6344,-5.662,-5.7072,-5.765,-5.8202,-5.8755,-5.9056,-5.9483,-5.9508,-5.9508,-5.9508,-5.9508,-5.9508,-5.9508,-5.9508,-5.9508,-5.9508,-5.9508,-5.9508,-5.9508,-5.9508,-5.9508,-5.9508,-5.9508,-5.9508,-5.9508,-5.9508,-5.9508,-5.9508,-5.9405,-5.907,-5.85,-5.7927,-5.7273,-5.5711,-5.472,-5.4046,-5.2508,-5.1427,-5.0694,-4.9211,-4.829,-4.7707,-4.6638,-4.6308,-4.6308,-4.6308,-4.6308,-4.6308,-4.6308,-4.6308,-4.6308,-4.6308,-4.6308,-4.6308,-4.6308,-4.6308,-4.6308,-4.6308,-4.6308,-4.6308,-4.6308,-4.6308,-4.6308,-4.6308,-4.6308,-4.6308,-4.6308,-4.6308,-4.6308,-4.6308,-4.6308,-4.6308,-4.6308,-4.6308,-4.6308,-4.6308,-4.6308,-4.6308,-4.6308,-4.6308,-4.6308,-4.6308,-4.6308,-4.6308,-4.6308,-4.6308,-4.6308,-4.6308,-4.6308,-4.6308,-4.6308,-4.6308,-4.6308,-4.6308,-4.6308,-4.6308,-4.6308,-4.6308,-4.6308,-4.6308,-4.6308,-4.6308,-5.6219,-5.6219,-5.6219,-5.6219,-5.6219,-5.6219,-5.6219,-5.6219,-5.6219,-5.6219,-5.6269,-5.6319,-5.6595,-5.7123,-5.7675,-5.8177,-5.8654,-5.9182,-5.9382,-5.9483,-5.9508,-5.9508,-5.9508,-5.9508,-5.9508,-5.9508,-5.9508,-5.9508,-5.9508,-5.9508,-5.9508,-5.9508,-5.9508,-5.9508,-5.9508,-5.9508,-5.9508,-5.9508,-5.9508,-5.9508,-5.9508,-5.907,-5.8084,-5.7194,-5.6295,-5.4882,-5.3579,-5.2674,-5.1511,-5.0273,-4.9446,-4.8204,-4.7141,-4.6396,-4.6308,-4.6308,-4.6308,-4.6308,-4.6308,-4.6308,-4.6308,-4.6308,-4.6308,-4.6308,-4.6308,-4.6308,-4.6308,-4.6308,-4.6308,-4.6308,-4.6308,-4.6308,-4.6308,-4.6308,-4.6308,-4.6308,-4.6308,-4.6308,-4.6308,-4.6308,-4.6308,-4.6308,-4.6308,-4.6308,-4.6308,-4.6308,-4.6308,-4.6308,-4.6308,-4.6308,-4.6308,-4.6308,-4.6308,-4.6308,-4.6308,-4.6308,-4.6308,-4.6308,-4.6308,-4.6308,-4.6308,-4.6308,-4.6308,-4.6308,-4.6308,-4.6308,-4.6308,-4.6308,-4.6308,-4.6308,-4.6308,-4.6308,-4.6308,-4.6308,-4.6308,-5.6219,-5.6219,-5.6219,-5.6219,-5.6219,-5.6219,-5.6219,-5.6219,-5.6219,-5.6394,-5.6796,-5.6796,-5.7123,-5.7675,-5.8227,-5.8529,-5.888,-5.9207,-5.9408,-5.9508,-5.9508,-5.9508,-5.9508,-5.9508,-5.9508,-5.9508,-5.9508,-5.9508,-5.9508,-5.9508,-5.9508,-5.9508,-5.9508,-5.9508,-5.9508,-5.9508,-5.9508,-5.9508,-5.9508,-5.9328,-5.8837,-5.8084,-5.6876,-5.5791,-5.4395,-5.2756,-5.1114,-5.061,-4.9361,-4.788,-4.7381,-4.6638,-4.6551,-4.6308,-4.6308,-4.6308,-4.6308,-4.6308,-4.6308,-4.6308,-4.6308,-4.6308,-4.6308,-4.6308,-4.6308,-4.6308,-4.6308,-4.6308,-4.6308,-4.6308,-4.6308,-4.6308,-4.6308,-4.6308,-4.6308,-4.6308,-4.6308,-4.6308,-4.6308,-4.6308,-4.6308,-4.6308,-4.6308,-4.6308,-4.6308,-4.6308,-4.6308,-4.6308,-4.6308,-4.6308,-4.6308,-4.6308,-4.6308,-4.6308,-4.6308,-4.6308,-4.6308,-4.6308,-4.6308,-4.6308,-4.6308,-4.6308,-4.6308,-4.6308,-4.6308,-4.6308,-4.6308,-4.6308,-4.6308,-4.6308,-4.6308,-4.6308,-4.6308,-4.6308,-4.6308,-5.6219,-5.6219,-5.6219,-5.6219,-5.6219,-5.6219,-5.6319,-5.6495,-5.6545,-5.6746,-5.7047,-5.7273,-5.7675,-5.8202,-5.8554,-5.883,-5.9081,-5.9332,-5.9508,-5.9508,-5.9508,-5.9508,-5.9508,-5.9508,-5.9508,-5.9508,-5.9508,-5.9508,-5.9508,-5.9508,-5.9508,-5.9508,-5.9508,-5.9508,-5.9508,-5.9508,-5.9508,-5.9508,-5.9405,-5.8993,-5.8006,-5.6773,-5.5631,-5.3743,-5.2177,-5.0526,-4.8719,-4.8462,-4.7554,-4.6464,-4.6308,-4.6308,-4.6308,-4.6308,-4.6308,-4.6308,-4.6308,-4.6308,-4.6308,-4.6308,-4.6308,-4.6308,-4.6308,-4.6308,-4.6308,-4.6308,-4.6308,-4.6308,-4.6308,-4.6308,-4.6308,-4.6308,-4.6308,-4.6308,-4.6308,-4.6308,-4.6308,-4.6308,-4.6308,-4.6308,-4.6308,-4.6308,-4.6308,-4.6308,-4.6308,-4.6308,-4.6308,-4.6308,-4.6308,-4.6308,-4.6308,-4.6308,-4.6308,-4.6308,-4.6308,-4.6308,-4.6308,-4.6308,-4.6308,-4.6308,-4.6308,-4.6308,-4.6308,-4.6308,-4.6308,-4.6308,-4.6308,-4.6308,-4.6308,-4.6308,-4.6308,-4.6308,-4.6308,-4.6308,-4.6308,-5.6219,-5.6219,-5.6219,-5.6219,-5.6219,-5.6269,-5.657,-5.7047,-5.7148,-5.7198,-5.7349,-5.775,-5.8252,-5.873,-5.888,-5.9106,-5.9282,-5.9458,-5.9508,-5.9508,-5.9508,-5.9508,-5.9508,-5.9508,-5.9508,-5.9508,-5.9508,-5.9508,-5.9508,-5.9508,-5.9508,-5.9508,-5.9508,-5.9508,-5.9508,-5.9508,-5.9508,-5.9508,-5.9251,-5.8759,-5.6876,-5.5574,-5.3988,-5.0694,-4.9382,-4.8462,-4.7054,-4.6376,-4.6308,-4.6308,-4.6308,-4.6308,-4.6308,-4.6308,-4.6308,-4.6308,-4.6308,-4.6308,-4.6308,-4.6308,-4.6308,-4.6308,-4.6308,-4.6308,-4.6308,-4.6308,-4.6308,-4.6308,-4.6308,-4.6308,-4.6308,-4.6308,-4.6308,-4.6308,-4.6308,-4.6308,-4.6308,-4.6308,-4.6308,-4.6308,-4.6308,-4.6308,-4.6308,-4.6308,-4.6308,-4.6308,-4.6308,-4.6308,-4.6308,-4.6308,-4.6308,-4.6308,-4.6308,-4.6308,-4.6308,-4.6308,-4.6308,-4.6308,-4.6308,-4.6308,-4.6308,-4.6308,-4.6308,-4.6308,-4.6308,-4.6308,-4.6308,-4.6308,-4.6308,-4.6308,-4.6308,-4.6308,-4.6308,-4.6308,-4.6308,-5.6219,-5.6219,-5.6219,-5.6219,-5.6269,-5.6671,-5.6897,-5.7123,-5.7976,-5.8278,-5.8353,-5.8478,-5.8805,-5.9182,-5.9232,-5.9382,-5.9433,-5.9508,-5.9508,-5.9508,-5.9508,-5.9508,-5.9508,-5.9508,-5.9508,-5.9508,-5.9508,-5.9508,-5.9508,-5.9508,-5.9508,-5.9508,-5.9508,-5.9508,-5.9508,-5.9508,-5.9508,-5.9508,-5.8993,-5.8006,-5.6135,-5.4151,-5.226,-4.9701,-4.829,-4.7295,-4.6308,-4.6308,-4.6308,-4.6308,-4.6308,-4.6308,-4.6308,-4.6308,-4.6308,-4.6308,-4.6308,-4.6308,-4.6308,-4.6308,-4.6308,-4.6308,-4.6308,-4.6308,-4.6308,-4.6308,-4.6308,-4.6308,-4.6308,-4.6308,-4.6308,-4.6308,-4.6308,-4.6308,-4.6308,-4.6308,-4.6308,-4.6308,-4.6308,-4.6308,-4.6308,-4.6308,-4.6308,-4.6308,-4.6308,-4.6308,-4.6308,-4.6308,-4.6308,-4.6308,-4.6308,-4.6308,-4.6308,-4.6308,-4.6308,-4.6308,-4.6308,-4.6308,-4.6308,-4.6308,-4.6308,-4.6308,-4.6308,-4.6308,-4.6308,-4.6308,-4.6308,-4.6308,-4.6308,-4.6308,-4.6308,-4.6308,-4.6308,-4.6308,-4.6308,-5.6219,-5.6219,-5.6219,-5.6219,-5.6319,-5.6796,-5.7173,-5.7549,-5.8353,-5.8855,-5.9056,-5.9081,-5.9232,-5.9483,-5.9483,-5.9508,-5.9508,-5.9508,-5.9508,-5.9508,-5.9508,-5.9508,-5.9508,-5.9508,-5.9508,-5.9508,-5.9508,-5.9508,-5.9508,-5.9508,-5.9508,-5.9508,-5.9508,-5.9508,-5.9508,-5.9508,-5.9508,-5.9483,-5.8759,-5.6956,-5.5124,-5.3333,-5.103,-4.8784,-4.7141,-4.6308,-4.6308,-4.6308,-4.6308,-4.6308,-4.6308,-4.6308,-4.6308,-4.6308,-4.6308,-4.6308,-4.6308,-4.6308,-4.6308,-4.6308,-4.6308,-4.6308,-4.6308,-4.6308,-4.6308,-4.6308,-4.6308,-4.6308,-4.6308,-4.6308,-4.6308,-4.6308,-4.6308,-4.6308,-4.6308,-4.6308,-4.6308,-4.6308,-4.6308,-4.6308,-4.6308,-4.6308,-4.6308,-4.6308,-4.6308,-4.6308,-4.6308,-4.6308,-4.6308,-4.6308,-4.6308,-4.6308,-4.6308,-4.6308,-4.6308,-4.6308,-4.6308,-4.6308,-4.6308,-4.6308,-4.6308,-4.6308,-4.6308,-4.6308,-4.6308,-4.6308,-4.6308,-4.6308,-4.6308,-4.6308,-4.6308,-4.6308,-4.6308,-4.6308,-4.6308,-5.6219,-5.6219,-5.6219,-5.6269,-5.6394,-5.6922,-5.7474,-5.8052,-5.8604,-5.9081,-5.9408,-5.9458,-5.9508,-5.9508,-5.9508,-5.9508,-5.9508,-5.9508,-5.9508,-5.9508,-5.9508,-5.9508,-5.9508,-5.9508,-5.9508,-5.9508,-5.9508,-5.9508,-5.9508,-5.9508,-5.9508,-5.9508,-5.9508,-5.9508,-5.9508,-5.9508,-5.9508,-5.8915,-5.777,-5.5309,-5.3824,-5.2508,-4.9955,-4.7707,-4.6308,-4.6308,-4.6308,-4.6308,-4.6308,-4.6308,-4.6308,-4.6308,-4.6308,-4.6308,-4.6308,-4.6308,-4.6308,-4.6308,-4.6308,-4.6308,-4.6308,-4.6308,-4.6308,-4.6308,-4.6308,-4.6308,-4.6308,-4.6308,-4.6308,-4.6308,-4.6308,-4.6308,-4.6308,-4.6308,-4.6308,-4.6308,-4.6308,-4.6308,-4.6308,-4.6308,-4.6308,-4.6308,-4.6308,-4.6308,-4.6308,-4.6308,-4.6308,-4.6308,-4.6308,-4.6308,-4.6308,-4.6308,-4.6308,-4.6308,-4.6308,-4.6308,-4.6308,-4.6308,-4.6308,-4.6308,-4.6308,-4.6308,-4.6308,-4.6308,-4.6308,-4.6308,-4.6308,-4.6308,-4.6308,-4.6308,-4.6308,-4.6308,-4.6308,-4.6308,-4.6308,-5.6219,-5.6219,-5.6219,-5.647,-5.6922,-5.7474,-5.8052,-5.8604,-5.9106,-5.9433,-5.9483,-5.9508,-5.9508,-5.9508,-5.9508,-5.9508,-5.9508,-5.9508,-5.9508,-5.9508,-5.9508,-5.9508,-5.9508,-5.9508,-5.9508,-5.9508,-5.9508,-5.9508,-5.9508,-5.9508,-5.9508,-5.9508,-5.9508,-5.9508,-5.9508,-5.9508,-5.9405,-5.8759,-5.7114,-5.4824,-5.2839,-5.1198,-4.8955,-4.7295,-4.6308,-4.6308,-4.6308,-4.6308,-4.6308,-4.6308,-4.6308,-4.6308,-4.6308,-4.6308,-4.6308,-4.6308,-4.6308,-4.6308,-4.6308,-4.6308,-4.6308,-4.6308,-4.6308,-4.6308,-4.6308,-4.6308,-4.6308,-4.6308,-4.6308,-4.6308,-4.6308,-4.6308,-4.6308,-4.6308,-4.6308,-4.6308,-4.6308,-4.6308,-4.6308,-4.6308,-4.6308,-4.6308,-4.6308,-4.6308,-4.6308,-4.6308,-4.6308,-4.6308,-4.6308,-4.6308,-4.6308,-4.6308,-4.6308,-4.6308,-4.6308,-4.6308,-4.6308,-4.6308,-4.6308,-4.6308,-4.6308,-4.6308,-4.6308,-4.6308,-4.6308,-4.6308,-4.6308,-4.6308,-4.6308,-4.6308,-4.6308,-4.6308,-4.6308,-4.6308,-4.6308]}]]